[[{"header":{"parameterUnit":"m.s-1","parameterCategory":1,"la1":30.6,"la2":29.2853,"lo1":-89.7004,"lo2":-87.6739,"dy":0.0162,"dx":0.0183,"nx":112,"ny":82,"refTime":"2023-09-04T12:00:00:Z","depth":0,"parameterNumber":2,"parameterNumberName":"U-component_of_WINDS"},"data":[0.0,0.0,0.0,0.0,0.0,0.0,0.0,0.0,0.0,0.0,0.0,0.0,0.0,0.0,0.0,0.0,0.0,0.0,0.0,0.0,0.0,0.0,0.0,0.0,0.0,0.0,0.0,0.0,0.0,0.0,0.0,0.0,0.0,0.0,0.0,0.0,0.0,0.0,0.0,0.0,0.0,0.0,0.0,0.0,0.0,0.0,0.0,0.0,0.0,0.0,0.0,0.0,0.0,0.0,0.0,0.0,0.0,0.0,0.0,0.0,0.0,0.0,0.0,0.0,0.0,0.0,0.0,0.0,0.0,0.0,0.0,0.0,0.0,0.0,0.0,0.0,0.0,0.0,0.0,0.0,0.0,0.0,0.0,0.0,0.0,0.0,0.0,0.0,0.0,0.0,-0.2142,-0.3544,-0.368,-0.368,-0.3547,-0.3413,-0.3349,-0.3349,0.0,0.0,0.0,0.0,0.0,0.0,0.0,0.0,0.0,0.0,0.0,0.0,0.0,0.0,0.0,0.0,0.0,0.0,0.0,0.0,0.0,0.0,0.0,0.0,0.0,0.0,0.0,0.0,0.0,0.0,0.0,0.0,0.0,0.0,0.0,0.0,0.0,0.0,0.0,0.0,0.0,0.0,0.0,0.0,0.0,0.0,0.0,0.0,0.0,0.0,0.0,0.0,0.0,0.0,0.0,0.0,0.0,0.0,0.0,0.0,0.0,0.0,0.0,0.0,0.0,0.0,0.0,0.0,0.0,0.0,0.0,0.0,0.0,0.0,0.0,0.0,0.0,0.0,0.0,0.0,0.0,0.0,0.0,0.0,0.0,0.0,0.0,0.0,0.0,0.0,0.0,0.0,0.0,0.0,0.0,0.0,0.0,0.0,0.0,0.0,0.0,0.0,0.0,0.0,-0.4334,-0.5785,-0.5917,-0.5654,-0.5061,-0.4469,-0.4143,-0.4151,0.0,0.0,0.0,0.0,0.0,0.0,0.0,0.0,0.0,0.0,0.0,0.0,0.0,0.0,0.0,0.0,0.0,0.0,0.0,0.0,0.0,0.0,0.0,0.0,0.0,0.0,0.0,0.0,0.0,0.0,0.0,0.0,0.0,0.0,0.0,0.0,0.0,0.0,0.0,0.0,0.0,0.0,0.0,0.0,0.0,0.0,0.0,0.0,0.0,0.0,0.0,0.0,0.0,0.0,0.0,0.0,0.0,0.0,0.0,0.0,0.0,0.0,0.0,0.0,0.0,0.0,0.0,0.0,0.0,0.0,0.0,0.0,0.0,0.0,0.0,0.0,0.0,0.0,0.0,0.0,0.0,0.0,0.0,0.0,0.0,0.0,0.0,0.0,0.0,0.0,0.0,0.0,0.0,0.0,0.0,0.0,0.0,0.0,0.0,0.0,0.0,0.0,0.0,-0.5727,-0.6256,-0.685,-0.6915,-0.6785,-0.6453,-0.6191,-0.5994,-0.6001,-0.5665,0.0,0.0,0.0,0.0,0.0,0.0,0.0,0.0,0.0,0.0,0.0,0.0,0.0,0.0,0.0,0.0,0.0,0.0,0.0,0.0,0.0,0.0,0.0,0.0,0.0,0.0,0.0,0.0,0.0,0.0,0.0,0.0,0.0,0.0,0.0,0.0,0.0,0.0,0.0,0.0,0.0,0.0,0.0,0.0,0.0,0.0,0.0,0.0,0.0,0.0,0.0,0.0,0.0,0.0,0.0,0.0,0.0,0.0,0.0,0.0,0.0,0.0,0.0,0.0,0.0,0.0,0.0,0.0,0.0,0.0,0.0,0.0,0.0,0.0,0.0,0.0,0.0,0.0,0.0,0.0,0.0,0.0,0.0,0.0,0.0,0.0,0.0,0.0,0.0,0.0,0.0,0.0,0.0,0.0,0.0,0.0,0.0,0.0,0.0,0.0,0.0,0.0,-0.7507,-0.7907,-0.7907,-0.7907,-0.7907,-0.7707,-0.7772,-0.7772,-0.7637,-0.7577,0.0,0.0,0.0,0.0,0.0,0.0,0.0,0.0,0.0,0.0,0.0,0.0,0.0,0.0,0.0,0.0,0.0,0.0,0.0,0.0,0.0,0.0,0.0,0.0,0.0,0.0,0.0,0.0,0.0,0.0,0.0,0.0,0.0,0.0,0.0,0.0,0.0,0.0,0.0,0.0,0.0,0.0,0.0,0.0,0.0,0.0,0.0,0.0,0.0,0.0,0.0,0.0,0.0,0.0,0.0,0.0,0.0,0.0,0.0,0.0,0.0,0.0,0.0,0.0,0.0,0.0,0.0,0.0,0.0,0.0,0.0,0.0,0.0,0.0,0.0,0.0,0.0,0.0,0.0,0.0,0.0,0.0,0.0,0.0,0.0,0.0,0.0,0.0,0.0,0.0,0.0,0.0,0.0,0.0,0.0,0.0,0.0,0.0,0.0,0.0,0.0,0.0,-0.8952,-0.9356,-0.9356,-0.9542,-0.9338,-0.8672,-0.8796,-0.8731,-0.8463,-0.8151,0.0,0.0,0.0,0.0,0.0,0.0,0.0,0.0,0.0,0.0,0.0,0.0,0.0,0.0,0.0,0.0,0.0,0.0,0.0,0.0,0.0,0.0,0.0,0.0,0.0,0.0,0.0,0.0,0.0,0.0,0.0,0.0,0.0,0.0,0.0,0.0,0.0,0.0,0.0,0.0,0.0,0.0,0.0,0.0,0.0,0.0,0.0,0.0,0.0,0.0,0.0,0.0,0.0,0.0,0.0,0.0,0.0,0.0,0.0,0.0,0.0,0.0,0.0,0.0,0.0,0.0,0.0,0.0,0.0,0.0,0.0,0.0,0.0,0.0,0.0,0.0,0.0,0.0,0.0,0.0,0.0,0.0,0.0,0.0,0.0,0.0,0.0,0.0,0.0,0.0,0.0,0.0,0.0,0.0,0.0,0.0,0.0,0.0,0.0,0.0,0.0,0.0,-0.9907,-0.9798,0.0,-0.9862,-0.9977,-1.0129,-0.9831,-0.9767,-1.0059,0.0,0.0,0.0,0.0,0.0,0.0,0.0,0.0,0.0,0.0,0.0,0.0,0.0,0.0,0.0,0.0,0.0,0.0,0.0,0.0,0.0,0.0,0.0,0.0,0.0,0.0,0.0,0.0,0.0,0.0,0.0,0.0,0.0,0.0,0.0,0.0,0.0,0.0,0.0,0.0,0.0,0.0,0.0,0.0,0.0,0.0,0.0,0.0,0.0,0.0,0.0,0.0,0.0,0.0,0.0,0.0,0.0,0.0,0.0,0.0,0.0,0.0,0.0,0.0,0.0,0.0,0.0,0.0,0.0,0.0,0.0,0.0,0.0,0.0,0.0,0.0,0.0,0.0,0.0,0.0,0.0,0.0,0.0,0.0,0.0,0.0,0.0,0.0,0.0,0.0,0.0,0.0,0.0,0.0,0.0,0.0,0.0,0.0,0.0,0.0,0.0,0.0,-1.1322,-1.0905,-1.0661,0.0,-1.0667,-1.0912,-1.1392,-1.085,-1.0787,-1.1578,0.0,0.0,0.0,0.0,0.0,0.0,0.0,0.0,0.0,0.0,0.0,0.0,0.0,0.0,0.0,0.0,0.0,0.0,0.0,0.0,0.0,0.0,0.0,0.0,0.0,0.0,0.0,0.0,0.0,0.0,0.0,0.0,0.0,0.0,0.0,0.0,0.0,0.0,0.0,0.0,0.0,0.0,0.0,0.0,0.0,0.0,0.0,0.0,0.0,0.0,0.0,0.0,0.0,0.0,0.0,0.0,0.0,0.0,0.0,0.0,0.0,0.0,0.0,0.0,0.0,0.0,0.0,0.0,0.0,0.0,0.0,0.0,0.0,0.0,0.0,0.0,0.0,0.0,0.0,0.0,0.0,0.0,0.0,0.0,0.0,0.0,0.0,0.0,0.0,0.0,0.0,0.0,0.0,0.0,0.0,0.0,0.0,0.0,0.0,0.0,0.0,0.0,-1.202,-1.202,-1.202,-1.202,-1.2212,-1.2343,-1.2343,-1.1856,-1.1981,0.0,0.0,0.0,0.0,0.0,0.0,0.0,0.0,0.0,0.0,0.0,0.0,0.0,0.0,0.0,0.0,0.0,0.0,0.0,0.0,0.0,0.0,0.0,0.0,0.0,0.0,0.0,0.0,0.0,0.0,0.0,0.0,0.0,0.0,0.0,0.0,0.0,0.0,0.0,0.0,0.0,0.0,0.0,0.0,0.0,0.0,0.0,0.0,0.0,0.0,0.0,0.0,0.0,0.0,0.0,0.0,0.0,0.0,0.0,0.0,0.0,0.0,0.0,0.0,0.0,0.0,0.0,0.0,0.0,0.0,0.0,0.0,0.0,0.0,0.0,0.0,0.0,0.0,0.0,0.0,0.0,0.0,0.0,0.0,0.0,0.0,0.0,0.0,0.0,0.0,0.0,0.0,0.0,0.0,0.0,0.0,0.0,0.0,0.0,0.0,0.0,0.0,0.0,-1.3913,-1.351,-1.3186,-1.3186,-1.3251,-1.3453,-1.3978,-1.3172,-1.2956,-1.3701,0.0,0.0,0.0,0.0,0.0,0.0,0.0,0.0,0.0,0.0,0.0,0.0,0.0,0.0,0.0,0.0,0.0,0.0,0.0,0.0,0.0,0.0,0.0,0.0,0.0,0.0,0.0,0.0,0.0,0.0,0.0,0.0,0.0,0.0,0.0,0.0,0.0,0.0,0.0,0.0,0.0,0.0,0.0,0.0,0.0,0.0,0.0,0.0,0.0,0.0,0.0,0.0,0.0,0.0,0.0,0.0,0.0,0.0,0.0,0.0,0.0,0.0,0.0,0.0,0.0,0.0,0.0,0.0,0.0,0.0,0.0,0.0,0.0,0.0,0.0,0.0,0.0,0.0,0.0,0.0,0.0,0.0,0.0,0.0,0.0,0.0,0.0,0.0,0.0,0.0,0.0,0.0,0.0,0.0,0.0,0.0,0.0,0.0,0.0,0.0,0.0,0.0,-1.5413,-1.4885,-1.4493,-1.4493,-1.4493,-1.4632,-1.5033,-1.4233,-1.3975,-1.4461,0.0,0.0,0.0,0.0,0.0,0.0,0.0,0.0,0.0,0.0,0.0,0.0,0.0,0.0,0.0,0.0,0.0,0.0,0.0,0.0,0.0,0.0,0.0,0.0,0.0,0.0,0.0,0.0,0.0,0.0,0.0,0.0,0.0,0.0,0.0,0.0,0.0,0.0,0.0,0.0,0.0,0.0,0.0,0.0,0.0,0.0,0.0,0.0,0.0,0.0,0.0,0.0,0.0,0.0,0.0,0.0,0.0,0.0,0.0,0.0,0.0,0.0,0.0,0.0,0.0,0.0,0.0,0.0,0.0,0.0,0.0,0.0,0.0,0.0,0.0,0.0,0.0,0.0,0.0,0.0,0.0,0.0,0.0,0.0,0.0,0.0,0.0,0.0,0.0,0.0,0.0,0.0,0.0,0.0,0.0,0.0,0.0,0.0,0.0,0.0,0.0,0.0,-1.6552,-1.6113,-1.5799,-1.5864,-1.5864,-1.5928,-1.5993,-1.5308,-1.5009,-1.5293,0.0,0.0,0.0,0.0,0.0,0.0,0.0,0.0,0.0,0.0,0.0,0.0,0.0,0.0,0.0,0.0,0.0,0.0,0.0,0.0,0.0,0.0,0.0,0.0,0.0,0.0,0.0,0.0,0.0,0.0,0.0,0.0,0.0,0.0,0.0,0.0,0.0,0.0,0.0,0.0,0.0,0.0,0.0,0.0,0.0,0.0,0.0,0.0,0.0,0.0,0.0,0.0,0.0,0.0,0.0,0.0,0.0,0.0,0.0,0.0,-2.061,-2.1068,0.0,0.0,0.0,0.0,0.0,0.0,0.0,0.0,0.0,0.0,0.0,0.0,0.0,0.0,0.0,0.0,0.0,0.0,0.0,0.0,0.0,0.0,0.0,0.0,0.0,0.0,0.0,0.0,0.0,0.0,0.0,0.0,0.0,0.0,0.0,0.0,0.0,0.0,0.0,0.0,-1.6847,-1.6711,-1.6779,-1.7235,-1.7235,-1.7437,-1.7895,-1.7063,-1.6581,-1.6701,-1.5864,0.0,0.0,0.0,0.0,0.0,0.0,0.0,0.0,0.0,0.0,0.0,0.0,0.0,0.0,0.0,0.0,0.0,0.0,0.0,0.0,0.0,0.0,0.0,0.0,0.0,0.0,0.0,0.0,0.0,0.0,0.0,0.0,0.0,0.0,0.0,0.0,0.0,0.0,0.0,0.0,0.0,0.0,0.0,0.0,0.0,0.0,0.0,0.0,0.0,0.0,0.0,0.0,0.0,0.0,0.0,0.0,0.0,0.0,0.0,-2.1109,-2.1104,0.0,0.0,0.0,0.0,0.0,0.0,0.0,0.0,0.0,0.0,0.0,0.0,0.0,0.0,0.0,0.0,0.0,0.0,0.0,0.0,0.0,0.0,0.0,0.0,0.0,0.0,0.0,0.0,0.0,0.0,0.0,0.0,0.0,0.0,0.0,0.0,0.0,0.0,0.0,0.0,-1.8104,-1.7842,-1.7774,-1.8037,-1.8104,-1.8172,-1.8499,-1.8031,-1.7691,-1.7484,-1.6999,0.0,0.0,0.0,0.0,0.0,0.0,0.0,0.0,0.0,0.0,0.0,0.0,0.0,0.0,0.0,0.0,0.0,0.0,0.0,0.0,0.0,0.0,0.0,0.0,0.0,0.0,0.0,0.0,0.0,0.0,0.0,0.0,0.0,0.0,0.0,0.0,0.0,0.0,0.0,0.0,0.0,0.0,0.0,0.0,0.0,0.0,0.0,0.0,0.0,0.0,0.0,0.0,0.0,-1.9873,-2.03,-2.079,-2.1639,-2.2226,-2.2564,-2.1637,-2.1212,-2.1302,-2.2099,0.0,0.0,0.0,0.0,0.0,0.0,0.0,0.0,0.0,0.0,0.0,0.0,0.0,0.0,0.0,0.0,0.0,0.0,0.0,0.0,0.0,0.0,-2.187,-2.1607,-2.1536,-2.1416,-2.0947,0.0,0.0,0.0,0.0,0.0,0.0,0.0,0.0,0.0,0.0,0.0,-1.9177,-1.8834,-1.8576,-1.8643,-1.8633,-1.871,-1.8777,-1.871,-1.8481,-1.8192,-1.8041,-1.7646,0.0,0.0,0.0,0.0,0.0,0.0,0.0,0.0,0.0,0.0,0.0,0.0,0.0,0.0,0.0,0.0,0.0,0.0,0.0,0.0,0.0,0.0,0.0,0.0,0.0,0.0,0.0,0.0,0.0,0.0,0.0,0.0,-1.3017,-1.2336,0.0,0.0,0.0,0.0,0.0,0.0,0.0,0.0,0.0,0.0,0.0,0.0,0.0,-1.9801,-2.0222,-2.028,-2.0552,-2.102,-2.1095,-2.1343,-2.1851,-2.2309,-2.2564,-2.2617,-2.2789,0.0,-2.2893,-2.3026,0.0,0.0,0.0,0.0,0.0,0.0,0.0,0.0,0.0,0.0,0.0,0.0,0.0,0.0,0.0,0.0,0.0,0.0,0.0,0.0,0.0,0.0,-2.2177,-2.2139,-2.2089,-2.2065,-2.1993,-2.1981,-2.2005,-2.2077,-2.1756,-2.1643,0.0,0.0,0.0,0.0,0.0,0.0,-1.87,-1.8777,-1.8967,-1.9177,-1.9166,-1.9375,-1.9878,-1.9452,-1.9145,-1.9149,-1.8685,-1.836,-1.8319,-1.83,0.0,0.0,0.0,0.0,0.0,0.0,0.0,0.0,0.0,0.0,0.0,0.0,0.0,0.0,0.0,0.0,0.0,0.0,0.0,0.0,0.0,0.0,0.0,0.0,0.0,0.0,0.0,0.0,0.0,-1.2895,-1.2948,-1.2887,-1.3974,-1.4746,0.0,0.0,0.0,0.0,0.0,0.0,0.0,0.0,0.0,-1.8515,-1.9356,-1.9888,-2.0065,-2.0689,-2.1075,-2.1288,-2.1882,-2.2596,-2.3371,-2.387,-2.4385,-2.4949,-2.5135,-2.5059,-2.4666,-2.4015,-2.3892,-2.4177,0.0,0.0,0.0,0.0,-2.5064,-2.4973,-2.4382,-2.4327,-2.4476,-2.4286,0.0,0.0,0.0,0.0,0.0,0.0,0.0,-2.435,-2.4047,-2.3708,-2.3381,-2.3466,-2.3244,-2.3144,-2.3513,-2.3332,-2.2907,-2.2306,-2.23,-2.2492,-2.263,-2.1851,0.0,0.0,0.0,-2.0531,-2.0445,-2.0325,-2.0302,-2.0366,-2.0366,-2.0366,-2.0388,-2.0183,-1.9977,-1.9726,-1.9528,-1.9302,-1.9026,-1.9041,-1.8796,0.0,0.0,0.0,0.0,0.0,0.0,0.0,0.0,0.0,0.0,0.0,0.0,0.0,0.0,0.0,0.0,0.0,0.0,0.0,0.0,0.0,0.0,0.0,0.0,0.0,0.0,0.0,0.0,-1.3078,-1.3183,-1.3623,-1.4638,-1.5362,0.0,0.0,0.0,0.0,0.0,0.0,-1.7696,-1.8158,-1.8659,-1.9215,-1.9945,-2.037,-2.0531,-2.1575,-2.2171,-2.2309,-2.3251,-2.4144,-2.5061,-2.5428,-2.6062,-2.6823,-2.6823,-2.6565,-2.605,-2.5005,-2.4489,-2.4436,-2.5493,-2.5784,-2.5674,-2.5839,-2.5784,-2.5619,-2.5174,-2.51,-2.5236,-2.5236,-2.5344,-2.5524,-2.5979,0.0,0.0,0.0,0.0,-2.5222,-2.4858,-2.4682,-2.4549,-2.4502,-2.4243,-2.4039,-2.432,-2.4188,-2.3688,-2.2775,-2.2907,-2.3183,-2.3183,-2.2579,0.0,-2.3085,0.0,-2.1804,-2.2097,-2.1897,-2.1666,-2.1601,-2.1601,-2.1415,-2.0955,-2.0944,-2.077,-2.0399,-2.027,-2.0064,-1.9639,-1.9587,-1.9414,-1.9019,0.0,0.0,0.0,0.0,0.0,0.0,0.0,0.0,0.0,0.0,0.0,0.0,0.0,0.0,0.0,0.0,0.0,0.0,0.0,0.0,0.0,0.0,0.0,0.0,0.0,0.0,0.0,0.0,0.0,-1.4656,-1.5254,0.0,0.0,0.0,0.0,-1.7467,-1.7772,-1.8198,-1.891,-1.9372,-1.9861,-2.0404,-2.1414,-2.2224,-2.2847,-2.3841,-2.4602,-2.5128,-2.5654,-2.6201,-2.6668,-2.6695,-2.6735,-2.6823,-2.6823,-2.6809,-2.6728,-2.6077,-2.5466,-2.5021,-2.566,-2.5564,-2.5118,-2.5674,-2.5564,-2.5061,-2.5005,-2.5385,-2.5846,-2.5846,-2.6253,-2.6742,-2.6728,-2.6728,0.0,0.0,-2.6411,-2.603,-2.603,-2.5657,-2.5217,-2.4732,-2.4551,-2.4434,-2.3959,-2.4145,-2.4326,-2.3797,-2.3713,-2.3725,-2.3725,0.0,-2.3144,-2.3203,-2.3156,-2.2998,-2.2728,-2.2931,-2.2986,-2.2626,-2.2626,-2.243,-2.1881,-2.1847,-2.1652,-2.1192,-2.0775,-2.0571,-2.0506,-2.0248,-2.0042,-2.0042,-1.9563,0.0,0.0,0.0,0.0,0.0,0.0,0.0,0.0,0.0,0.0,0.0,0.0,0.0,0.0,0.0,0.0,0.0,0.0,0.0,0.0,0.0,0.0,0.0,0.0,0.0,0.0,0.0,0.0,-1.4834,-1.5555,0.0,-1.6708,-1.7181,-1.7693,-1.8306,-1.8668,-1.9175,-1.9932,-2.0733,-2.1434,-2.2076,-2.3156,-2.384,-2.4057,-2.5062,-2.5602,-2.5798,-2.6307,-2.6829,-2.7393,-2.7393,-2.7596,-2.7963,-2.7963,-2.7746,-2.7379,-2.7607,-2.7106,-2.6172,-2.6407,-2.6349,-2.6172,-2.6407,-2.6349,-2.6172,-2.6172,-2.6307,-2.6484,-2.6484,-2.6647,-2.6823,-2.6823,-2.6823,-2.6823,-2.6823,-2.6702,-2.6566,-2.6566,-2.6444,-2.6277,-2.6141,-2.5832,-2.5542,-2.537,-2.518,-2.4975,-2.4795,-2.4482,-2.4254,-2.4254,-2.391,-2.3788,-2.4443,-2.3978,-2.3668,-2.3842,-2.3685,-2.3549,-2.3416,-2.3416,-2.3199,-2.2799,-2.2721,-2.2434,-2.1728,-2.1303,-2.0971,-2.0582,-2.027,-2.0085,-2.0085,-1.9911,-1.9824,0.0,0.0,0.0,0.0,0.0,0.0,0.0,0.0,0.0,0.0,0.0,0.0,0.0,0.0,0.0,0.0,0.0,0.0,0.0,0.0,0.0,0.0,0.0,0.0,0.0,0.0,-1.5457,-1.5792,-1.6377,-1.7062,-1.7809,-1.8248,-1.8711,-1.9342,-1.9934,-2.0568,-2.1292,-2.228,-2.3001,-2.349,-2.453,-2.5128,-2.5124,-2.6162,-2.6645,-2.6704,-2.7158,-2.7732,-2.8302,-2.8302,-2.8641,-2.9211,-2.9211,-2.898,-2.8665,-2.9115,-2.8781,-2.7948,-2.7617,-2.7426,-2.7426,-2.7426,-2.7426,-2.7454,-2.7451,-2.7291,-2.7162,-2.7352,-2.742,-2.742,-2.742,-2.742,-2.742,-2.742,-2.742,-2.742,-2.742,-2.742,-2.739,-2.7258,-2.6948,-2.6657,-2.6488,-2.6013,-2.5594,-2.5594,-2.5163,-2.4783,-2.4783,-2.4506,-2.4518,-2.5204,-2.4723,-2.441,-2.4747,-2.4494,-2.429,-2.429,-2.429,-2.4138,-2.3688,-2.3529,-2.3171,-2.2577,-2.1957,-2.1464,-2.1088,-2.0643,-2.0314,-2.0085,-2.0085,-2.0085,-2.0085,0.0,0.0,0.0,0.0,0.0,0.0,0.0,0.0,0.0,0.0,0.0,0.0,0.0,0.0,0.0,0.0,0.0,0.0,0.0,0.0,0.0,0.0,0.0,-1.5994,-1.6306,-1.6808,-1.7547,-1.7743,-1.8161,-1.8999,-1.9309,-1.9805,-2.0531,-2.1481,-2.2309,-2.3003,-2.407,-2.4626,-2.4626,-2.5662,-2.6201,-2.6309,-2.724,-2.7803,-2.7908,-2.8381,-2.8953,-2.9509,-2.9509,-2.9835,-3.0405,-3.0405,-3.0405,-3.0433,-3.0508,-3.0502,-3.0369,-2.9204,-2.8749,-2.8749,-2.8749,-2.8749,-2.8724,-2.8689,-2.8263,-2.7827,-2.841,-2.8587,-2.8587,-2.8587,-2.8587,-2.8587,-2.8587,-2.8587,-2.8587,-2.8587,-2.8587,-2.8457,-2.7921,-2.7776,-2.7643,-2.7108,-2.6564,-2.622,-2.6164,-2.5734,-2.5312,-2.5312,-2.5312,-2.5312,-2.5312,-2.5312,0.0,-2.5312,-2.5312,-2.5312,-2.5312,-2.5312,-2.5095,-2.459,-2.4279,-2.3997,-2.3821,-2.2764,-2.2117,-2.1927,-2.1275,-2.0653,-2.0107,-2.0085,-2.0085,-2.0085,0.0,0.0,0.0,0.0,0.0,0.0,0.0,0.0,0.0,0.0,0.0,0.0,0.0,0.0,0.0,0.0,0.0,0.0,0.0,0.0,0.0,0.0,-1.7818,-1.7206,-1.7413,-1.7806,-1.8409,-1.8995,-1.9683,-2.0563,-2.1106,-2.1823,-2.2817,-2.3482,-2.3965,-2.4184,-2.5149,-2.5766,-2.5766,-2.6752,-2.7578,-2.8024,-2.8638,-2.9226,-2.9699,-2.9835,-2.9998,-3.0161,-3.0161,-3.0242,-3.0405,-3.0989,-3.1191,-3.1296,-3.2251,-3.2665,-3.2456,-3.0673,-2.9987,-2.9987,-2.9987,-2.9676,-2.9209,-2.8754,-2.8534,-2.837,-2.8546,-2.8587,-2.8587,-2.8587,-2.8587,-2.8587,-2.8587,-2.8587,-2.8587,-2.8587,-2.8587,-2.8457,-2.7921,-2.7776,-2.7577,-2.6633,-2.6289,-2.6082,-2.5664,-2.5382,-2.5312,-2.5312,-2.5312,-2.5312,-2.5312,-2.5312,-2.5312,-2.5312,-2.5312,-2.5312,-2.5312,-2.5664,-2.5742,-2.5107,-2.5375,-2.5225,-2.435,-2.3767,-2.3327,-2.287,-2.2196,-2.1507,-2.0675,-2.0325,-2.0085,0.0,0.0,0.0,0.0,0.0,0.0,0.0,0.0,0.0,0.0,0.0,0.0,0.0,0.0,0.0,0.0,0.0,0.0,0.0,0.0,0.0,0.0,-1.9397,-1.9204,-1.9115,-1.9017,-1.9199,-2.0034,-2.0614,-2.1383,-2.2443,-2.2775,-2.3269,-2.4067,-2.4616,-2.5003,-2.5264,-2.6309,-2.6986,-2.722,-2.8107,-2.8772,-2.9441,-2.9727,-3.0052,-3.0405,-3.0405,-3.0665,-3.1213,-3.1213,-3.1488,-3.2052,-3.2511,-3.2644,-3.2763,-3.3509,-3.3858,-3.3739,0.0,0.0,0.0,0.0,-3.1146,-3.0315,-2.9917,-2.9435,-2.8994,-2.8994,-2.883,-2.8587,-2.8587,-2.8587,-2.8587,-2.8587,-2.8587,-2.8587,-2.8587,-2.8587,-2.8522,-2.8183,-2.8118,-2.7987,-2.731,-2.6837,-2.6427,-2.607,-2.5652,0.0,-2.5312,-2.5312,-2.5312,-2.5312,-2.5312,-2.5312,-2.5312,-2.5312,-2.5312,-2.5312,-2.5594,-2.5664,-2.5312,-2.5465,0.0,0.0,0.0,-2.3875,-2.335,-2.2925,0.0,0.0,0.0,-2.0753,-2.0445,-2.0183,0.0,0.0,-1.9944,-1.9781,0.0,0.0,0.0,0.0,0.0,0.0,0.0,0.0,0.0,0.0,0.0,0.0,0.0,0.0,0.0,0.0,-2.0497,-2.0577,-2.1392,-2.1063,-2.1067,-2.2037,-2.2488,-2.3155,-2.4378,-2.4362,-2.4439,-2.4893,-2.5489,-2.5952,-2.6413,0.0,0.0,0.0,0.0,-2.9876,-3.0513,-3.0513,-3.054,-3.0733,-3.0733,-3.1323,-3.2549,-3.2549,-3.3172,-3.4298,-3.438,-3.4432,-3.447,-3.4565,-3.4658,-3.4645,-3.4559,-3.4475,-3.4398,-3.3694,-3.2619,-3.1599,-3.1541,0.0,0.0,-2.9504,-2.9107,-2.8587,-2.8587,-2.8587,-2.8587,-2.8587,-2.8587,-2.8587,-2.8587,-2.8587,-2.8587,-2.8587,-2.8587,-2.8587,-2.8522,-2.7709,-2.6973,-2.6905,-2.607,-2.5312,-2.5312,-2.5312,-2.5312,-2.5312,-2.5312,-2.5312,-2.5312,-2.5312,-2.5312,-2.5312,-2.5382,0.0,-2.5312,-2.5123,-2.5064,-2.5312,-2.4754,-2.4269,-2.3875,-2.3623,-2.315,-2.2433,-2.2292,-2.1829,-2.114,-2.0643,-2.0402,-2.0412,-2.0238,-2.014,0.0,0.0,0.0,0.0,0.0,0.0,0.0,0.0,0.0,0.0,0.0,0.0,0.0,0.0,0.0,-2.1902,-2.2238,-2.2618,-2.3344,-2.3728,-2.3749,-2.3303,-2.386,-2.4716,-2.5623,-2.5882,-2.6205,-2.692,-2.7708,-2.8034,-2.7918,-2.8953,-2.9611,-2.972,-3.0025,-3.0513,-3.111,-3.1124,-3.1609,-3.2668,-3.2668,0.0,-3.3922,-3.3922,-3.4062,-3.4298,-3.4927,-3.519,-3.5255,-3.5869,-3.6152,-3.6138,-3.4937,-3.4475,-3.4401,-3.3743,-3.2961,-3.2213,-3.172,-3.0625,-2.9504,-2.9504,-2.9107,-2.8587,-2.8587,-2.8587,0.0,-2.8587,-2.8587,-2.8587,-2.8587,-2.8587,-2.8587,-2.8587,-2.8587,-2.8457,-2.8052,-2.7443,-2.6905,-2.6427,-2.5804,-2.5312,-2.5312,-2.5312,-2.5312,-2.5312,-2.5312,-2.5312,-2.5312,-2.5312,-2.5312,-2.5312,-2.5734,-2.5804,-2.5312,-2.5664,-2.5746,-2.5312,-2.5594,-2.5812,-2.5815,-2.5049,-2.4362,-2.3871,-2.3487,-2.316,-2.2849,-2.2544,-2.241,-2.2391,-2.1084,-2.0518,0.0,0.0,0.0,0.0,0.0,0.0,0.0,0.0,0.0,0.0,0.0,-2.2178,0.0,0.0,-2.2513,-2.3053,-2.3368,-2.3816,-2.477,-2.5358,-2.5614,-2.5129,-2.5473,-2.6117,-2.704,-2.7236,-2.7563,-2.8117,-2.8532,-2.8803,-2.8688,-2.9536,-3.0135,-3.0439,-3.0733,-3.1404,-3.2528,-3.2318,-3.2737,-3.3768,-3.3768,-3.4109,-3.4846,-3.4846,-3.5059,-3.54,-3.58,-3.5943,-3.6006,-3.6414,-3.6662,-3.6662,-3.5919,-3.5396,-3.5027,-3.4653,-3.409,-3.3556,-3.3245,-3.2511,-3.1777,-3.1777,-3.1142,-3.0437,-3.0437,-3.0243,-3.0062,-3.0062,-3.0062,-3.0062,-3.0062,-3.0062,-2.9979,-2.9596,-2.9398,-2.9121,-2.8563,-2.7908,-2.731,-2.704,-2.6346,-2.5734,-2.5734,-2.5523,-2.5312,-2.5312,-2.5312,-2.5312,-2.5312,-2.5312,-2.5312,-2.5312,-2.5594,-2.5594,-2.5312,-2.5594,-2.5594,-2.5312,-2.5594,-2.5791,-2.5836,-2.5546,-2.5274,-2.496,-2.4621,-2.4299,-2.3771,-2.3754,-2.3544,-2.3215,-2.291,-2.2057,0.0,0.0,0.0,0.0,0.0,0.0,0.0,0.0,-2.2544,-2.2051,-2.2331,-2.2576,-2.2472,-2.2924,-2.3452,-2.409,-2.4355,-2.4885,-2.5988,-2.668,-2.7101,-2.7229,-2.7165,-2.7402,-2.8387,-2.8441,-2.8634,-2.8994,-2.9107,-2.924,-2.9456,-3.0026,-3.0651,-3.1263,-3.1474,-3.229,-3.3796,-3.3437,-3.3699,-3.4514,-3.4514,-3.4927,-3.5608,-3.5608,-3.5943,-3.6554,-3.6554,-3.6554,-3.6554,-3.6662,-3.6723,-3.6769,-3.6785,-3.6443,-3.5962,-3.5797,-3.5365,-3.4837,-3.4895,-3.4463,-3.3954,-3.4013,-3.3225,-3.2327,-3.2327,-3.1954,-3.1509,-3.1509,-3.1509,-3.1509,-3.1509,-3.1509,-3.1368,-3.0847,-3.0462,-3.0141,-2.9683,-2.8912,-2.8372,-2.8372,-2.7498,-2.6671,-2.6602,-2.6024,-2.5503,-2.5324,-2.5312,-2.5312,-2.5312,-2.5312,-2.5312,-2.5312,-2.5312,-2.5312,-2.5312,-2.5382,-2.5523,-2.5652,-2.5652,-2.5652,-2.5791,-2.6025,-2.6025,-2.5849,-2.5882,-2.5523,-2.4788,-2.4797,-2.4526,-2.3899,-2.4583,-2.3729,-2.49,-2.448,0.0,-2.3132,-2.2786,-2.2566,0.0,0.0,-2.2463,-2.2849,-2.3,-2.3037,-2.2977,-2.3514,-2.4102,-2.4801,-2.5709,-2.6643,-2.7377,-2.7954,-2.8525,-2.9199,-2.873,-2.8616,-2.9345,-2.9421,-2.9574,-2.9913,-3.0205,-3.0495,-3.0805,-3.1354,-3.1994,-3.2649,-3.257,-3.2975,-3.3796,-3.3575,-3.4109,-3.5255,-3.537,-3.5785,-3.6352,-3.6352,-3.6476,-3.6662,-3.6662,-3.6662,-3.6662,-3.6723,-3.6892,-3.7134,-3.6984,-3.6997,-3.6948,-3.6554,-3.5953,-3.5428,-3.5533,-3.4787,-3.3774,-3.3954,-3.3225,-3.2327,-3.2327,-3.1954,-3.1509,-3.1509,-3.1509,-3.1509,-3.1509,-3.1509,-3.1481,-3.1425,-3.1331,-3.1316,-3.1246,-3.0807,-3.0377,-3.0377,-2.9323,-2.8336,-2.8206,-2.7267,-2.6237,-2.5455,-2.5312,-2.5312,-2.5312,-2.5312,-2.5312,-2.5312,-2.5312,-2.5312,-2.5312,-2.5804,-2.6289,-2.6756,-2.6837,-2.7027,-2.751,-2.7108,-2.6837,-2.6824,-2.7311,-2.7139,-2.6408,-2.6239,-2.5895,-2.5336,-2.4964,-2.4432,-2.4993,0.0,0.0,0.0,-2.2943,-2.3212,-2.2865,-2.3389,-2.3918,-2.4168,-2.4221,-2.4105,-2.3767,-2.4471,-2.5208,0.0,-2.6463,-2.762,-2.8664,-2.899,-2.9421,-3.0129,-2.9931,-2.9856,-3.0129,-3.019,-3.0266,-3.0401,-3.0855,-3.1112,-3.0982,-3.1954,-3.2743,-3.3332,-3.3454,-3.4041,-3.535,-3.5059,-3.532,-3.6133,-3.618,-3.6321,-3.6492,-3.66,-3.6662,-3.6723,-3.68,-3.6862,-3.6862,-3.6968,-3.7074,-3.7178,-3.715,-3.7089,-3.7044,-3.6877,-3.6675,-3.6471,-3.6531,-3.6269,-3.59,-3.5644,-3.5016,-3.4322,-3.408,-3.3572,-3.3202,-3.3202,-3.3202,-3.3202,-3.3202,-3.3202,-3.3116,-3.2743,-3.2511,-3.2293,-3.1857,-3.1429,-3.1149,-3.1149,-3.0433,-2.987,-2.9731,-2.8705,-2.7691,-2.731,-2.6254,-2.5453,-2.5312,-2.5312,-2.5312,-2.5312,-2.5312,-2.5312,-2.5312,-2.5523,-2.5791,-2.6,-2.6358,-2.6633,-2.6837,-2.6973,-2.7175,-2.7443,-2.7709,-2.7656,-2.7323,-2.7564,-2.7379,-2.6893,-2.6946,-2.6738,-2.5217,0.0,0.0,-2.3148,-2.3502,-2.4032,-2.3781,-2.4359,-2.5007,-2.5007,-2.5007,-2.4851,-2.4452,-2.515,-2.5977,-2.6283,-2.723,-2.8401,-2.9723,-2.987,-3.0068,-3.0507,-3.0568,-3.0568,-3.0568,-3.0568,-3.0568,-3.0568,-3.1163,-3.1474,-3.1395,-3.2573,-3.3499,-3.4103,-3.428,-3.5059,-3.6492,-3.6133,-3.618,-3.6723,-3.6785,-3.6723,-3.6554,-3.6723,-3.6785,-3.68,-3.6938,-3.6999,-3.7044,-3.7134,-3.7254,-3.7254,-3.7254,-3.7225,-3.7136,-3.7136,-3.7165,-3.715,-3.7194,-3.7329,-3.7345,-3.7029,-3.6445,-3.5849,-3.5479,-3.492,-3.4414,-3.4414,-3.4414,-3.4414,-3.4414,-3.4414,-3.4298,-3.3833,-3.3584,-3.3255,-3.2795,-3.2497,-3.2283,-3.2283,-3.1786,-3.135,-3.135,-3.0288,-2.9405,-2.9249,-2.767,-2.6337,-2.5683,-2.5396,-2.5312,-2.5312,-2.5312,-2.5312,-2.5312,-2.5453,-2.5523,-2.5523,-2.5943,-2.6302,-2.6427,-2.6633,-2.7108,-2.7776,-2.7776,-2.7776,-2.7776,-2.8183,-2.8118,-2.7577,-2.8118,-2.8118,0.0,0.0,-2.5715,-2.505,-2.4937,-2.4951,-2.4937,-2.4993,-2.5007,-2.5007,-2.5007,-2.5007,-2.4951,-2.5439,-2.6226,-2.7563,-2.824,-2.904,-3.036,-3.0568,-3.0568,-3.0568,-3.0568,-3.0568,0.0,-3.0568,-3.0568,-3.0568,-3.1163,-3.1801,-3.2391,-3.353,-3.4486,-3.5124,-3.527,-3.5737,-3.6492,-3.6133,-3.618,-3.6723,-3.6877,-3.6877,-3.6723,-3.6877,-3.7015,-3.7015,-3.7015,-3.7044,-3.7178,-3.7194,-3.7329,-3.748,-3.748,-3.748,-3.748,-3.748,-3.7301,-3.6999,-3.7134,-3.7194,-3.7254,-3.7405,-3.6754,-3.5913,-3.5849,-3.5169,-3.4414,-3.4414,-3.4414,-3.4414,-3.4414,-3.4414,-3.4414,-3.4385,-3.4385,-3.437,-3.4356,-3.4288,-3.4288,-3.4288,-3.3685,-3.3087,-3.2876,-3.1969,-3.1081,-3.0713,-2.9639,-2.8311,-2.6589,-2.5779,-2.5312,-2.5312,-2.5312,-2.5312,-2.5312,-2.5873,-2.6151,-2.6151,-2.6164,-2.6427,-2.6973,-2.6496,-2.6701,-2.7776,-2.7776,-2.7776,-2.7776,-2.7855,-2.7577,-2.704,-2.7577,-2.751,-2.592,0.0,-2.5577,-2.4937,-2.4811,-2.4937,-2.5481,-2.5605,-2.5715,-2.6096,-2.6531,-2.665,-2.6288,-2.7356,-2.8321,-2.8355,-2.928,-3.0067,-3.0539,-3.0568,-3.0568,-3.0568,-3.0568,0.0,0.0,0.0,0.0,-3.1177,-3.2097,-3.2945,-3.3593,-3.4726,-3.5574,-3.6196,-3.6258,-3.6507,-3.6952,-3.6952,-3.6968,-3.6877,-3.6938,-3.6938,-3.6923,-3.7029,-3.7105,-3.6999,-3.7241,-3.7285,-3.7194,-3.7329,-3.7464,-3.748,-3.748,-3.748,-3.748,-3.748,-3.7421,-3.7361,-3.7405,-3.7405,-3.7345,-3.7029,-3.6507,-3.5849,-3.5544,-3.4986,-3.4414,-3.4414,-3.4414,-3.4414,-3.4414,-3.4414,-3.4414,-3.4414,-3.4414,-3.4414,-3.4414,-3.4414,-3.4414,-3.4414,-3.4182,-3.3962,-3.3894,-3.3128,-3.2206,-3.1105,-2.9293,-2.7645,-2.6565,-2.5791,-2.5312,-2.5312,-2.5312,-2.5453,-2.5873,-2.6082,-2.6358,-2.6701,-2.704,-2.731,-2.751,-2.7709,-2.7987,-2.8314,-2.8327,-2.8327,-2.8327,-2.8327,-2.8249,-2.8052,-2.8249,-2.8249,-2.5742,-2.5797,-2.5851,-2.5273,-2.5273,-2.5563,-2.6111,-2.6233,-2.6397,-2.7016,-2.7447,-2.7671,-2.754,-2.8483,-2.9233,-2.9038,-2.9721,-3.0321,-3.0539,-3.0568,-3.0568,-3.0568,-3.0568,-3.0568,0.0,0.0,0.0,-3.1743,-3.2744,-3.363,-3.446,-3.5563,-3.6321,-3.6723,-3.6907,-3.7089,-3.7329,-3.7329,-3.7285,-3.7044,-3.7044,-3.7121,-3.7181,-3.721,-3.721,-3.7181,-3.7345,-3.7329,-3.7329,-3.7464,-3.748,-3.748,-3.748,-3.748,-3.748,-3.748,-3.748,-3.748,-3.748,-3.748,-3.7405,-3.6846,-3.6321,-3.5785,-3.535,-3.4854,-3.4414,-3.4414,-3.4414,-3.4414,-3.4414,-3.4414,-3.4414,-3.4414,-3.4414,-3.4414,-3.4414,-3.4414,-3.4414,-3.4414,-3.4414,-3.4414,-3.4414,-3.3962,-3.324,-3.1983,-3.0301,-2.8682,-2.7281,-2.6532,-2.6057,-2.5931,-2.5931,-2.607,-2.6427,-2.6496,-2.6633,-2.6973,-2.731,-2.7577,-2.7776,-2.7987,-2.8183,-2.8587,-2.8392,-2.8392,-2.8587,-2.8587,-2.8587,-2.8587,-2.8587,-2.8587,-2.5687,-2.615,-2.6674,-2.6111,-2.6394,-2.6779,-2.6779,-2.6808,-2.7012,-2.7607,-2.7726,-2.8013,0.0,0.0,-2.8971,-2.9581,-2.9668,-2.9885,-3.0495,-3.0568,-3.0568,0.0,0.0,0.0,0.0,0.0,0.0,-3.2467,0.0,-3.3922,-3.5003,-3.6107,-3.6723,-3.6723,-3.7225,-3.748,-3.748,-3.7329,-3.7194,-3.7194,-3.7194,-3.7329,-3.748,-3.7329,-3.7329,-3.748,-3.727,-3.7329,-3.748,-3.748,-3.748,-3.748,-3.748,-3.748,-3.748,-3.748,-3.748,-3.748,-3.748,-3.748,-3.7421,-3.6907,-3.6383,-3.5785,-3.535,-3.4854,-3.4414,-3.4414,-3.4414,-3.4414,-3.4414,-3.4414,-3.4414,-3.4414,-3.4414,-3.4414,-3.4414,-3.4414,-3.4414,-3.4414,-3.4414,-3.4414,-3.4414,-3.4414,-3.4113,-3.3367,-3.2665,-3.1295,-2.8818,-2.7957,-2.739,-2.7079,-2.6985,-2.704,-2.704,-2.704,-2.704,-2.7108,-2.7108,-2.731,-2.7842,-2.7377,-2.7577,-2.8587,-2.8118,-2.8118,-2.8587,-2.8587,-2.8587,-2.8587,-2.8587,-2.8587,-2.6433,-2.6606,-2.6779,-2.6621,-2.6674,-2.6779,-2.6779,-2.7157,-2.7534,-2.7639,-2.8421,-2.9189,0.0,0.0,0.0,-3.0306,-3.0335,0.0,-3.0553,-3.0568,0.0,-3.0568,0.0,-3.0937,-3.1781,-3.1792,0.0,0.0,-3.5,-3.5263,-3.5624,-3.6737,-3.7285,-3.7285,-3.7421,-3.7405,-3.7254,-3.7254,-3.7254,-3.7405,-3.7405,-3.7389,-3.7254,-3.7405,-3.7389,-3.7254,-3.7405,-3.7464,-3.748,-3.748,-3.748,-3.748,-3.748,-3.748,-3.748,-3.748,-3.748,-3.748,-3.748,-3.748,-3.748,-3.7345,-3.6631,-3.5849,-3.5785,-3.5103,-3.4414,-3.4414,-3.4414,-3.4414,-3.4414,-3.4414,-3.4414,-3.4414,-3.4414,-3.4414,-3.4414,-3.4414,-3.4414,-3.4414,-3.4414,-3.4414,-3.4414,-3.4414,-3.4332,-3.4113,-3.3566,-3.2337,-3.0197,-2.8864,-2.8056,-2.7726,-2.7284,-2.7175,-2.7577,-2.7577,-2.7776,-2.8183,-2.8183,-2.8249,-2.8392,-2.8249,-2.8314,-2.8587,-2.8457,-2.8457,-2.8587,-2.8587,-2.8587,-2.8587,-2.8587,-2.8587,-2.6539,-2.6712,-2.6779,-2.6779,-2.6779,-2.6852,-2.7128,-2.7476,-2.7937,-2.8697,-2.923,0.0,0.0,0.0,0.0,0.0,0.0,0.0,-3.0568,-3.0568,-3.0568,0.0,-3.0814,0.0,-3.2228,-3.2763,-3.3681,0.0,-3.5414,-3.5783,-3.6538,-3.715,-3.748,-3.748,-3.748,-3.7464,-3.7329,-3.7329,-3.7405,-3.748,-3.748,-3.7464,-3.7329,-3.7464,-3.7464,-3.7329,-3.7464,-3.748,-3.748,-3.748,-3.748,-3.748,-3.748,-3.748,-3.748,-3.748,-3.748,-3.748,-3.748,-3.748,-3.7405,-3.6952,-3.6569,-3.6117,-3.5479,-3.5037,-3.4721,-3.4481,-3.4414,-3.4414,-3.4414,-3.4414,-3.4414,-3.4414,-3.4414,-3.4414,-3.4414,-3.4414,-3.4414,-3.4414,-3.4414,-3.4414,-3.4414,-3.4414,-3.4414,-3.4414,-3.4109,-3.3446,-3.2067,-3.0609,-2.9619,-2.9278,-2.8569,-2.8225,-2.8505,-2.8265,-2.8249,-2.8587,-2.8587,-2.8587,-2.8587,-2.8587,-2.8587,-2.8587,-2.8587,-2.8587,-2.8587,-2.8587,-2.8587,-2.8587,-2.8587,-2.8587,-2.6351,-2.6592,-2.6779,-2.6779,-2.6852,-2.7055,-2.7607,-2.7853,-2.8495,-2.9974,0.0,-3.0206,-3.1174,-3.1043,-3.0747,-3.0687,0.0,-3.0687,-3.0628,-3.0568,-3.0568,-3.0568,-3.1195,-3.1863,-3.2497,-3.403,-3.5095,-3.5309,-3.5248,-3.5891,-3.7314,-3.748,-3.748,-3.748,-3.748,-3.748,-3.748,-3.748,-3.748,-3.748,-3.748,-3.748,-3.748,-3.748,-3.748,-3.748,-3.7575,-3.7559,-3.7496,-3.7575,-3.7559,-3.748,-3.748,-3.748,-3.748,-3.748,-3.748,-3.748,-3.748,-3.748,-3.7345,-3.643,-3.6321,-3.6321,-3.4986,-3.4854,-3.4986,-3.4534,-3.4414,-3.4414,-3.4414,-3.4414,-3.4414,-3.4414,-3.4414,-3.4414,-3.4414,-3.4414,-3.4414,-3.4414,-3.4414,-3.4414,-3.4414,-3.4414,-3.4414,-3.4414,-3.4414,-3.4264,-3.3908,-3.2543,-3.1489,-3.1086,-3.0213,-2.963,-2.9482,-2.9007,-2.8682,-2.86,-2.8587,-2.8587,-2.8587,-2.8587,-2.8587,-2.8587,-2.8587,-2.8587,-2.8587,-2.8587,-2.8587,-2.8587,-2.8587,-2.8587,-2.6659,-2.6779,-2.6779,-2.6779,-2.7171,-2.7592,-2.7654,-2.8785,0.0,0.0,0.0,-3.1573,-3.1751,-3.1709,0.0,-3.1219,0.0,0.0,0.0,0.0,-3.0568,0.0,0.0,0.0,0.0,0.0,0.0,0.0,-3.666,-3.6523,-3.6831,-3.7285,-3.748,-3.748,-3.748,-3.748,-3.748,-3.748,-3.748,-3.748,-3.748,-3.748,-3.748,-3.748,-3.748,-3.7512,-3.8081,-3.8002,-3.7512,-3.8096,-3.8002,-3.748,-3.748,-3.748,-3.748,-3.748,-3.748,-3.748,-3.748,-3.748,-3.748,-3.7285,-3.6693,-3.5976,-3.5721,-3.5103,-3.4534,-3.4414,-3.4414,-3.4414,-3.4414,-3.4414,-3.4414,-3.4414,-3.4414,-3.4414,-3.4414,-3.4414,-3.4414,-3.4414,-3.4414,-3.4414,-3.4414,-3.4414,-3.4414,-3.4414,-3.4414,-3.4346,-3.4278,-3.3346,-3.2472,-3.1709,-3.1034,-3.0335,-2.959,-2.9374,-2.9116,-2.8627,-2.8587,-2.8587,-2.8587,-2.8587,-2.8587,-2.8587,-2.8587,-2.8587,-2.8587,-2.8587,-2.8587,-2.8587,-2.8587,-2.8587,-2.6712,-2.6779,-2.6905,-2.7489,-2.7652,-2.8006,-2.9144,0.0,0.0,0.0,-3.1708,-3.1977,-3.2201,0.0,0.0,0.0,0.0,0.0,0.0,0.0,0.0,0.0,0.0,0.0,0.0,0.0,0.0,0.0,-3.7285,-3.7105,-3.7105,-3.7345,-3.748,-3.748,-3.748,-3.748,-3.748,-3.748,-3.748,-3.748,-3.7844,-3.8017,-3.8017,-3.8381,-3.8523,-3.8555,-3.8886,-3.8839,-3.8555,-3.8886,-3.8823,-3.8523,-3.8523,-3.8318,-3.8017,-3.8017,-3.7796,-3.748,-3.748,-3.748,-3.748,-3.748,-3.715,-3.6569,-3.58,-3.535,-3.5103,-3.4534,-3.4414,-3.4414,-3.4414,-3.4414,-3.4414,-3.4414,-3.4414,-3.4414,-3.4414,-3.4414,-3.4414,-3.4414,-3.4414,-3.4414,-3.4414,-3.4414,-3.4414,-3.4414,-3.4414,-3.4414,-3.4414,-3.4004,-3.3464,-3.2903,-3.2136,-3.139,-3.076,-3.0377,-2.9886,-2.9089,-2.9048,-2.8912,-2.86,-2.8587,-2.8587,-2.8587,-2.8587,-2.8587,-2.8587,-2.8587,-2.8587,-2.8587,-2.8587,-2.8587,-2.6756,-2.6779,-2.703,-2.8121,-2.8189,-2.8437,-3.0513,-3.082,0.0,0.0,-3.2382,-3.2327,-3.2656,0.0,0.0,0.0,0.0,0.0,0.0,0.0,0.0,0.0,0.0,0.0,0.0,0.0,0.0,0.0,-3.7622,-3.7701,-3.7701,-3.7844,-3.7907,-3.7907,-3.7907,-3.7907,-3.7907,-3.7907,-3.7907,-3.7923,-3.846,-3.8728,-3.8744,-3.9266,-3.9503,-3.9518,-3.9677,-3.9645,-3.9518,-3.9677,-3.9645,-3.9503,-3.9503,-3.9187,-3.8728,-3.8728,-3.8286,-3.7701,-3.7701,-3.7607,-3.748,-3.748,-3.7421,-3.7089,-3.5737,-3.5544,-3.5544,-3.4668,-3.4414,-3.4414,-3.4414,-3.4414,-3.4414,-3.4414,-3.4414,-3.4414,-3.4414,-3.4414,-3.4414,-3.4414,-3.4414,-3.4414,-3.4414,-3.4414,-3.4414,-3.4414,-3.4414,-3.4414,-3.4414,-3.4414,-3.4264,-3.3977,-3.3192,-3.2428,-3.1875,-3.1364,-3.0704,-2.978,-2.955,-2.9265,-2.8804,-2.8655,-2.8587,-2.8587,-2.8587,-2.8587,-2.8587,-2.8587,-2.8587,-2.8587,-2.8587,-2.8587,-2.6886,-2.6779,-2.703,-2.8121,-2.8513,-2.9049,-3.0618,0.0,0.0,-3.2461,-3.2888,-3.3187,-3.324,-3.3187,0.0,0.0,0.0,-3.2216,0.0,0.0,0.0,0.0,0.0,0.0,0.0,0.0,0.0,0.0,-3.8065,-3.8428,-3.8428,-3.8997,-3.9313,-3.9313,-3.9313,-3.9313,-3.9313,-3.9313,-3.9313,-3.9313,-3.9376,-3.9408,-3.9408,-3.9471,-3.9503,-3.9534,-4.0214,-4.0119,-3.955,-4.023,-4.0103,-3.9503,-3.9503,-3.9455,-3.9408,-3.9408,-3.8981,-3.8428,-3.8428,-3.8002,-3.748,-3.748,-3.7165,-3.6646,-3.6054,-3.5544,-3.5169,-3.4534,-3.4414,-3.4414,-3.4414,-3.4414,-3.4414,-3.4414,-3.4414,-3.4414,-3.4414,-3.4414,-3.4414,-3.4414,-3.4414,-3.4414,-3.4414,-3.4414,-3.4414,-3.4414,-3.4414,-3.4414,-3.4414,-3.4414,-3.4414,-3.4346,-3.3934,-3.3168,-3.1917,-3.1751,-3.1337,-3.0364,-2.9794,-2.9455,-2.9401,-2.8872,-2.8587,-2.8587,-2.8587,-2.8587,-2.8587,-2.8587,-2.8587,-2.8587,-2.8587,-2.8587,-2.8148,-2.8331,-2.8944,-2.9765,-3.0033,-3.0518,-3.2006,0.0,0.0,-3.2942,-3.3187,-3.3309,-3.3309,-3.3309,-3.324,-3.3065,0.0,0.0,0.0,0.0,0.0,0.0,0.0,0.0,0.0,0.0,0.0,-3.8065,-3.8728,-3.9297,-3.9756,-3.9598,-3.9503,-3.9503,-3.9503,-3.9503,-3.9503,-3.9503,-3.9503,-3.9503,-3.9945,-4.0166,-4.0182,-4.0577,-4.0751,-4.0767,-4.1067,-4.1035,-4.0783,-4.1067,-4.102,-4.0751,-4.0751,-4.0514,-4.0166,-4.0166,-3.9471,-3.8507,-3.8507,-3.8065,-3.748,-3.748,-3.7361,-3.7029,-3.618,-3.5785,-3.5479,-3.4601,-3.4414,-3.4414,-3.4414,-3.4414,-3.4414,-3.4414,-3.4414,-3.4414,-3.4414,-3.4414,-3.4414,-3.4414,-3.4414,-3.4414,-3.4414,-3.4414,-3.4414,-3.4414,-3.4414,-3.4414,-3.4414,-3.4414,-3.4414,-3.4414,-3.4264,-3.3822,-3.3071,-3.2835,-3.2305,-3.1295,-3.0842,-3.0405,-3.0052,-2.9442,-2.9116,-2.9116,-2.8777,-2.8587,-2.8587,-2.8587,-2.8587,-2.8587,-2.8587,-2.8587,-2.9292,-2.9544,-3.0175,-3.0999,-3.1113,-3.1404,0.0,0.0,-3.2711,-3.3187,-3.3309,-3.3309,-3.3309,-3.3309,-3.3372,-3.3561,0.0,-3.3902,0.0,0.0,0.0,0.0,0.0,0.0,0.0,0.0,0.0,-3.876,-3.9439,-4.0135,-4.0862,-4.0403,-4.0119,-4.0119,-4.0119,-4.0119,-4.0119,-4.0119,-4.0119,-4.0135,-4.064,-4.0893,-4.0909,-4.1367,-4.1588,-4.1588,-4.1588,-4.1588,-4.1588,-4.1588,-4.1588,-4.1588,-4.1588,-4.1304,-4.0893,-4.0893,-4.0151,-3.9092,-3.8886,-3.8365,-3.7749,-3.7543,-3.748,-3.7345,-3.643,-3.6054,-3.5672,-3.4654,-3.4414,-3.4414,-3.4414,-3.4414,-3.4414,-3.4414,-3.4414,-3.4414,-3.4414,-3.4414,-3.4414,-3.4414,-3.4414,-3.4414,-3.4414,-3.4414,-3.4414,-3.4414,-3.4414,-3.4414,-3.4414,-3.4414,-3.4414,-3.4414,-3.4414,-3.4264,-3.3839,-3.3563,-3.3087,-3.2305,-3.1707,-3.1237,-3.0814,-3.0147,-2.9754,-2.9754,-2.9347,-2.9034,-2.8858,-2.8858,-2.8763,-2.8587,-2.8587,-2.8587,-3.0084,-3.0007,-3.0295,-3.1402,-3.1344,-3.1404,0.0,0.0,-3.2711,-3.3187,-3.3309,-3.3309,-3.3309,-3.3309,-3.3514,-3.4178,-3.4288,0.0,0.0,0.0,0.0,0.0,0.0,0.0,0.0,0.0,0.0,-3.9439,-4.0166,0.0,-4.1541,-4.1573,-4.1573,-4.1573,-4.1573,-4.1573,-4.1573,-4.1573,-4.1573,-4.1573,-4.1573,-4.1573,-4.1573,-4.1588,-4.1588,-4.1588,-4.1588,-4.1588,-4.1588,-4.1588,-4.1588,-4.1588,-4.1588,-4.1588,-4.1573,-4.1573,-4.1146,-4.0467,-3.974,-3.906,-3.8381,-3.7701,-3.748,-3.7421,-3.6846,-3.6321,-3.5672,-3.4654,-3.4414,-3.4414,-3.4414,-3.4414,-3.4414,-3.4414,-3.4414,-3.4414,-3.4414,-3.4414,-3.4414,-3.4414,-3.4414,-3.4414,-3.4414,-3.4414,-3.4414,-3.4414,-3.4414,-3.4414,-3.4414,-3.4414,-3.4414,-3.4414,-3.4414,-3.4264,-3.3839,-3.377,-3.3632,-3.3339,-3.2347,-3.1792,-3.1792,-3.0911,-3.0405,-3.0405,-3.0391,-3.0079,-2.9469,-2.9469,-2.9157,-2.8587,-2.8587,-2.8587,-3.1509,-3.179,-3.2242,-3.2299,-3.2453,-3.2692,-3.3193,-3.3187,-3.3134,-3.3256,-3.3309,-3.3309,-3.3309,-3.3672,-3.4051,-3.4257,-3.511,0.0,0.0,0.0,0.0,0.0,0.0,0.0,0.0,0.0,0.0,-3.9455,-4.0182,-4.0893,-4.1541,-4.1588,-4.1588,-4.1588,-4.1588,-4.1588,-4.1588,-4.1588,-4.1588,-4.1588,-4.1588,-4.1588,-4.1588,-4.1588,-4.1588,-4.1588,-4.1588,-4.1588,-4.1588,-4.1588,-4.1588,-4.1588,-4.1588,-4.1588,-4.1588,-4.1588,-4.1178,-4.0577,-4.034,-3.9487,-3.8476,-3.8254,-3.7859,-3.7421,-3.6846,-3.6321,-3.5672,-3.4654,-3.4414,-3.4414,-3.4414,-3.4414,-3.4414,-3.4414,-3.4414,-3.4414,-3.4414,-3.4414,-3.4414,-3.4414,-3.4414,-3.4414,-3.4414,-3.4414,-3.4414,-3.4414,-3.4414,-3.4414,-3.4414,-3.4414,-3.4414,-3.4414,-3.4414,-3.4346,-3.4196,-3.3977,-3.377,-3.3632,-3.3156,-3.2695,-3.2414,-3.1708,-3.1267,-3.1015,-3.0622,-3.031,-3.012,-3.012,-3.0025,-2.9835,-2.9835,-2.9835,0.0,-3.285,-3.324,-3.2942,-3.3065,0.0,0.0,-3.3309,-3.3309,-3.3309,-3.3309,-3.3309,-3.3309,-3.3846,-3.4383,-3.4668,-3.5663,0.0,0.0,0.0,0.0,0.0,0.0,0.0,0.0,0.0,-3.906,-3.9471,-4.0419,-4.1146,-4.1573,-4.1588,-4.1588,-4.1588,-4.1588,-4.1588,-4.1588,-4.1588,-4.1588,-4.1588,-4.1588,-4.1588,-4.1588,-4.1588,-4.1588,-4.1588,-4.1588,-4.1588,0.0,-4.1588,-4.1588,-4.1588,-4.1588,-4.1588,-4.1588,-4.1588,-4.1336,-4.0941,-4.0688,-3.985,-3.8839,-3.8602,-3.8049,-3.7421,-3.6846,-3.6196,-3.5479,-3.4854,-3.4534,-3.4414,-3.4414,-3.4414,-3.4414,-3.4414,-3.4414,-3.4414,-3.4414,-3.4414,-3.4414,-3.4414,-3.4414,-3.4414,-3.4414,-3.4414,-3.4414,-3.4414,-3.4414,-3.4414,-3.4414,-3.4414,-3.4414,-3.4414,-3.4414,-3.4414,-3.4414,-3.4196,-3.4059,-3.4059,-3.3701,-3.3409,-3.3129,-3.2626,-3.2291,-3.2024,-3.1667,-3.1295,-3.0924,-3.0582,-3.0405,-3.0405,-3.0405,-3.0405,0.0,0.0,0.0,0.0,0.0,0.0,0.0,-3.3309,0.0,-3.3309,-3.3309,-3.3309,-3.3309,-3.3878,-3.4589,-3.5284,0.0,0.0,0.0,0.0,0.0,0.0,0.0,0.0,0.0,0.0,-3.9503,-3.9503,-4.0798,-4.1588,-4.1588,-4.1588,-4.1588,-4.1588,-4.1588,-4.1588,-4.1588,-4.1588,-4.1588,-4.1588,-4.1588,-4.1588,-4.1588,-4.1588,-4.1588,-4.1588,-4.1588,-4.1588,-4.1588,-4.1588,-4.1588,-4.1588,-4.1588,-4.1588,-4.1588,-4.1588,-4.1588,-4.1494,-4.0893,-4.0182,-3.9455,-3.8744,-3.8049,-3.7421,-3.6907,-3.607,-3.5234,-3.5234,-3.4787,-3.4414,-3.4414,-3.4414,-3.4414,-3.4414,-3.4414,-3.4414,-3.4414,-3.4414,-3.4414,-3.4414,-3.4414,-3.4414,-3.4414,-3.4414,-3.4414,-3.4414,-3.4414,-3.4414,-3.4414,-3.4414,-3.4414,-3.4414,-3.4414,-3.4414,-3.4414,-3.4414,-3.4414,-3.4414,-3.4059,-3.3839,-3.377,-3.3479,-3.3339,-3.3269,-3.3269,-3.2779,-3.1805,-3.0923,-3.054,-3.054,-3.054,-3.054,-3.3309,0.0,-3.3309,-3.3309,-3.3309,-3.3309,0.0,0.0,0.0,0.0,0.0,0.0,0.0,0.0,0.0,0.0,0.0,0.0,0.0,0.0,0.0,0.0,0.0,0.0,0.0,0.0,-3.9503,-3.9503,-4.0798,-4.1588,-4.1588,-4.1588,-4.1588,-4.1588,-4.1588,-4.1588,-4.1588,-4.1588,-4.1588,-4.1588,-4.1588,-4.1588,-4.1588,-4.1588,-4.1588,-4.1588,-4.1588,-4.1588,-4.1588,-4.1588,-4.1588,-4.1588,-4.1588,-4.1588,-4.1588,-4.1588,-4.1588,-4.1573,-4.1415,-4.0909,-4.0151,-3.8918,-3.8049,-3.748,-3.7345,-3.6569,-3.5672,-3.5299,-3.4787,-3.4414,-3.4414,-3.4414,-3.4414,-3.4414,-3.4414,-3.4414,-3.4414,-3.4414,-3.4414,-3.4414,-3.4414,-3.4414,-3.4414,-3.4414,-3.4414,-3.4414,-3.4414,-3.4414,-3.4414,-3.4414,-3.4414,-3.4414,-3.4414,-3.4414,-3.4414,-3.4414,-3.4414,-3.4414,-3.4346,-3.4128,-3.3839,-3.3701,-3.3563,-3.3339,-3.2988,-3.2577,-3.2109,-3.1901,-3.1762,-3.1762,-3.1762,-3.1762,-3.3309,-3.3309,-3.3309,-3.3309,-3.3309,-3.3309,0.0,0.0,0.0,0.0,0.0,0.0,0.0,0.0,0.0,0.0,0.0,0.0,0.0,0.0,0.0,0.0,0.0,0.0,0.0,-3.8697,-3.9503,-3.9503,-4.0798,-4.1588,-4.1588,-4.1588,-4.1588,-4.1588,-4.1588,-4.1588,-4.1588,-4.1588,-4.1588,-4.1588,-4.1588,-4.1588,-4.1588,-4.1588,-4.1588,-4.1588,-4.1588,-4.1588,-4.1588,-4.1588,-4.1588,-4.1588,-4.1588,-4.1588,-4.1588,-4.1588,-4.1588,-4.1588,-4.1588,-4.1146,-4.0372,-3.8965,-3.8254,-3.7891,-3.7575,-3.6892,-3.618,-3.5672,-3.5169,-3.4721,-3.4467,-3.4414,-3.4414,-3.4414,-3.4414,-3.4414,-3.4414,-3.4414,-3.4414,-3.4414,-3.4414,-3.4414,-3.4414,-3.4414,-3.4414,-3.4414,-3.4414,-3.4414,-3.4414,-3.4414,-3.4414,-3.4414,-3.4414,-3.4414,-3.4414,-3.4414,-3.4414,-3.4414,-3.4414,-3.4278,-3.4059,-3.4059,-3.3908,-3.3563,-3.3339,-3.3072,-3.2731,-3.2731,-3.2731,-3.2731,-3.2731,-3.2731,-3.3309,-3.3309,-3.3309,-3.3309,-3.3309,-3.3309,0.0,0.0,0.0,0.0,0.0,0.0,0.0,0.0,0.0,0.0,0.0,0.0,0.0,0.0,0.0,0.0,0.0,0.0,-3.748,-3.8697,-3.9503,-3.9503,-4.0798,-4.1588,-4.1588,-4.1588,-4.1588,-4.1588,-4.1588,-4.1588,-4.1588,-4.1588,-4.1588,-4.1588,-4.1588,-4.1588,-4.1588,-4.1588,-4.1588,-4.1588,-4.1588,-4.1588,-4.1588,-4.1588,-4.1588,-4.1588,-4.1588,-4.1588,-4.1588,-4.1588,-4.1588,-4.1588,-4.1588,-4.1146,-4.0388,-3.9092,-3.8602,-3.8381,-3.7686,-3.7165,-3.6708,-3.618,-3.5608,-3.5103,-3.4668,-3.4467,-3.4414,-3.4414,-3.4414,-3.4414,-3.4414,-3.4414,-3.4414,-3.4414,-3.4414,-3.4414,-3.4414,-3.4414,-3.4414,-3.4414,-3.4414,-3.4414,-3.4414,-3.4414,-3.4414,-3.4414,-3.4414,-3.4414,-3.4414,-3.4414,-3.4414,-3.4414,-3.4414,-3.4414,-3.4414,-3.4414,-3.4196,-3.3839,-3.377,-3.3632,-3.3269,-3.3269,-3.3269,-3.3269,-3.3269,-3.3269,-3.3309,-3.3309,-3.3309,-3.3309,-3.3309,-3.3309,0.0,0.0,0.0,0.0,0.0,0.0,0.0,0.0,0.0,0.0,0.0,0.0,0.0,0.0,0.0,0.0,0.0,0.0,-3.748,-3.8697,-3.9503,-3.9503,-4.0798,-4.1588,-4.1588,-4.1588,-4.1588,-4.1588,-4.1588,-4.1588,-4.1588,-4.1588,-4.1588,-4.1588,-4.1588,-4.1588,-4.1588,-4.1588,-4.1588,-4.1588,-4.1588,-4.1588,-4.1588,-4.1588,-4.1588,-4.1588,-4.1588,-4.1588,-4.1588,-4.1588,-4.1588,-4.1588,-4.1588,-4.1146,-4.0467,-3.9629,-3.8965,-3.8381,-3.7686,-3.7421,-3.7285,-3.6708,-3.5943,-3.5169,-3.5103,-3.4721,-3.4414,-3.4414,-3.4414,-3.4414,-3.4414,-3.4414,-3.4414,-3.4414,-3.4414,-3.4414,-3.4414,-3.4414,-3.4414,-3.4414,-3.4414,-3.4414,-3.4414,-3.4414,-3.4414,-3.4414,-3.4414,-3.4414,-3.4414,-3.4414,-3.4414,-3.4414,-3.4414,-3.4414,-3.4414,-3.4414,-3.4196,-3.3839,-3.377,-3.3632,-3.3269,-3.3269,-3.3269,-3.3269,-3.3269,-3.3269,-3.3309,-3.3309,-3.3309,-3.3309,-3.3309,-3.3309,-3.3309,0.0,0.0,0.0,0.0,0.0,0.0,0.0,0.0,0.0,0.0,0.0,0.0,0.0,0.0,0.0,0.0,-3.748,-3.748,-3.8381,-3.9123,-3.9471,-4.0467,-4.1209,-4.1573,-4.1588,-4.1588,-4.1588,-4.1588,-4.1588,-4.1588,-4.1588,-4.1588,-4.1588,-4.1588,-4.1588,-4.1588,-4.1588,-4.1588,-4.1588,-4.1588,-4.1588,-4.1588,-4.1588,-4.1588,-4.1588,-4.1588,-4.1588,-4.1588,-4.1588,-4.1588,-4.1588,-4.1588,-4.1399,-4.0956,-3.9866,-3.9297,-3.8855,-3.7796,-3.748,-3.748,-3.7225,-3.6585,-3.5943,-3.5672,-3.5234,-3.4854,-3.4854,-3.4601,-3.4414,-3.4414,-3.4414,-3.4414,-3.4414,-3.4414,-3.4414,-3.4414,-3.4414,-3.4414,-3.4414,-3.4414,-3.4414,-3.4414,-3.4414,-3.4414,-3.4414,-3.4414,-3.4414,-3.4414,-3.4414,-3.4414,-3.4414,-3.4414,-3.4414,-3.4414,-3.4414,-3.4196,-3.3839,-3.3991,-3.3908,-3.3563,-3.377,-3.3908,-3.3908,-3.3908,-3.3908,-3.3591,-3.3487,-3.3346,-3.345,0.0,-3.3309,-3.3309,0.0,0.0,0.0,0.0,0.0,0.0,0.0,0.0,0.0,0.0,0.0,0.0,0.0,0.0,0.0,-3.748,-3.748,-3.748,-3.8112,-3.8792,-3.9455,-4.0182,-4.0893,-4.1541,-4.1588,-4.1588,-4.1588,-4.1588,-4.1588,-4.1588,-4.1588,-4.1588,-4.1588,-4.1588,-4.1588,-4.1588,-4.1588,-4.1588,-4.1588,-4.1588,-4.1588,-4.1588,-4.1588,-4.1588,-4.1588,-4.1588,-4.1588,-4.1588,-4.1588,-4.1588,-4.1588,-4.1588,-4.1588,-4.1383,-4.0151,-3.9645,-3.9281,-3.8081,-3.7607,-3.748,-3.748,-3.7225,-3.6769,-3.6243,-3.5737,-3.535,-3.535,-3.4986,-3.4601,-3.4601,-3.4481,-3.4414,-3.4414,-3.4414,-3.4414,-3.4414,-3.4414,-3.4414,-3.4414,-3.4414,-3.4414,-3.4414,-3.4414,-3.4414,-3.4414,-3.4414,-3.4414,-3.4414,-3.4414,-3.4414,-3.4414,-3.4414,-3.4414,-3.4414,-3.4414,-3.4264,-3.3977,-3.4264,-3.4264,-3.3908,-3.4264,-3.4414,-3.4414,-3.4414,-3.4414,-3.4448,-3.4018,-3.3398,-3.3899,0.0,0.0,-3.3309,0.0,0.0,0.0,0.0,0.0,0.0,0.0,0.0,0.0,0.0,0.0,0.0,0.0,0.0,-3.748,-3.748,-3.748,-3.748,-3.8112,-3.8792,-3.9455,-4.0182,-4.0893,-4.1541,-4.1588,-4.1588,-4.1588,-4.1588,-4.1588,-4.1588,-4.1588,-4.1588,-4.1588,-4.1588,-4.1588,-4.1588,-4.1588,-4.1588,-4.1588,-4.1588,-4.1588,-4.1588,-4.1588,-4.1588,-4.1588,-4.1588,-4.1588,-4.1588,-4.1588,-4.1588,-4.1588,-4.1588,-4.1588,-4.1478,-4.0751,-4.0056,-3.9376,-3.8665,-3.7986,-3.748,-3.748,-3.748,-3.7285,-3.6785,-3.6258,-3.5849,-3.5849,-3.5479,-3.5169,-3.5169,-3.4721,-3.4414,-3.4414,-3.4414,-3.4414,-3.4414,-3.4414,-3.4414,-3.4414,-3.4414,-3.4414,-3.4414,-3.4414,-3.4414,-3.4414,-3.4414,-3.4414,-3.4414,-3.4414,-3.4414,-3.4414,-3.4414,-3.4414,-3.4414,-3.4414,-3.4414,-3.4346,-3.4414,-3.4414,-3.4346,-3.4414,-3.4414,-3.4414,-3.4414,-3.4414,-3.4317,-3.4084,-3.3745,-3.3658,0.0,0.0,0.0,0.0,0.0,0.0,0.0,0.0,0.0,0.0,0.0,0.0,0.0,0.0,0.0,0.0,-3.748,-3.748,-3.748,-3.748,-3.748,-3.7717,-3.816,-3.8839,-3.9518,-4.023,-4.0941,-4.1367,-4.1588,-4.1588,-4.1588,-4.1588,-4.1588,-4.1588,-4.1588,-4.1588,-4.1588,-4.1588,-4.1588,-4.1588,-4.1588,-4.1588,-4.1588,-4.1588,-4.1588,-4.1588,-4.1588,-4.1588,-4.1588,-4.1588,-4.1588,-4.1588,-4.1588,-4.1588,-4.1588,-4.1588,-4.1399,-4.0277,-3.974,-3.9297,-3.8207,-3.7686,-3.748,-3.748,-3.748,-3.748,-3.7225,-3.6569,-3.5913,-3.5913,-3.5544,-3.5169,-3.5169,-3.5037,-3.492,-3.492,-3.4601,-3.4414,-3.4414,-3.4414,-3.4414,-3.4414,-3.4414,-3.4414,-3.4414,-3.4414,-3.4414,-3.4414,-3.4414,-3.4414,-3.4414,-3.4414,-3.4414,-3.4414,-3.4414,-3.4414,-3.4414,-3.4414,-3.4414,-3.4414,-3.4414,-3.4414,-3.4414,-3.4414,-3.4414,-3.4414,-3.4414,-3.4414,-3.4561,-3.4234,0.0,0.0,0.0,0.0,0.0,0.0,0.0,0.0,0.0,0.0,0.0,0.0,0.0,0.0,0.0,0.0,0.0,0.0,-3.748,-3.748,-3.748,-3.748,-3.748,-3.748,-3.7765,-3.846,-3.8934,-3.9503,-4.0214,-4.0688,-4.1035,-4.1272,-4.1272,-4.1383,-4.1588,-4.1588,-4.1588,-4.1588,-4.1588,-4.1588,-4.1588,-4.1588,-4.1588,-4.1588,-4.1588,-4.1588,-4.1588,-4.1588,-4.1588,-4.1588,-4.1588,-4.1588,-4.1588,-4.1588,-4.1588,-4.1588,-4.1588,-4.1588,-4.1399,-4.023,-3.9692,-3.9281,-3.816,-3.7654,-3.748,-3.748,-3.748,-3.748,-3.748,-3.6952,-3.643,-3.643,-3.6054,-3.5688,-3.5688,-3.5544,-3.5415,-3.5415,-3.4971,-3.4668,-3.4668,-3.4534,-3.4414,-3.4414,-3.4414,-3.4414,-3.4414,-3.4414,-3.4414,-3.4414,-3.4414,-3.4414,-3.4414,-3.4414,-3.4414,-3.4414,-3.4414,-3.4414,-3.4414,-3.4414,-3.4414,-3.4414,-3.4414,-3.4414,-3.4414,-3.4414,-3.4414,-3.4414,-3.4414,-3.4414,-3.5345,-3.4496,0.0,0.0,0.0,0.0,0.0,0.0,0.0,0.0,0.0,0.0,0.0,0.0,0.0,0.0,0.0,0.0,0.0,-3.748,-3.748,-3.748,-3.748,-3.748,-3.748,-3.748,-3.7765,-3.8444,-3.8507,-3.8792,-3.9455,-3.9503,-3.9835,-4.0577,-4.0593,-4.0909,-4.1573,-4.1573,-4.1588,-4.1588,-4.1588,-4.1588,-4.1588,-4.1588,-4.1588,-4.1588,-4.1588,-4.1588,-4.1588,-4.1588,-4.1588,-4.1588,-4.1588,-4.1588,-4.1588,-4.1588,-4.1588,-4.1588,-4.1588,-4.1588,-4.1478,-4.0814,-4.0087,-3.9376,-3.8697,-3.8017,-3.748,-3.748,-3.748,-3.748,-3.748,-3.748,-3.748,-3.748,-3.7105,-3.6723,-3.6723,-3.6258,-3.5913,-3.5913,-3.5544,-3.5234,-3.5234,-3.4787,-3.4414,-3.4414,-3.4414,-3.4414,-3.4414,-3.4414,-3.4414,-3.4414,-3.4414,-3.4414,-3.4414,-3.4414,-3.4414,-3.4414,-3.4414,-3.4414,-3.4414,-3.4414,-3.4414,-3.4414,-3.4414,-3.4414,-3.4414,-3.4414,-3.4414,-3.4414,-3.4414,-3.4414,-3.5144,0.0,0.0,0.0,0.0,0.0,0.0,0.0,0.0,0.0,0.0,0.0,0.0,0.0,0.0,-3.5189,-3.5568,-3.6121,-3.7306,-3.748,-3.748,-3.748,-3.748,-3.748,-3.748,-3.748,-3.7559,-3.7765,-3.8239,-3.8602,-3.8792,-3.925,-3.9598,-3.9819,-3.9835,-4.0166,-4.0893,-4.0893,-4.113,-4.1588,-4.1588,-4.1588,-4.1588,-4.1588,-4.1588,-4.1588,-4.1588,-4.1588,-4.1588,-4.1588,-4.1588,-4.1588,-4.1588,-4.1588,-4.1588,-4.1588,-4.1588,-4.1588,-4.1588,-4.1288,-4.0783,-4.0056,-3.936,-3.8681,-3.7986,-3.7638,-3.748,-3.748,-3.748,-3.748,-3.748,-3.748,-3.7405,-3.7029,-3.6846,-3.6723,-3.6723,-3.6585,-3.6445,-3.6445,-3.6054,-3.5672,-3.5672,-3.5299,-3.4986,-3.4986,-3.4668,-3.4414,-3.4414,-3.4414,-3.4414,-3.4414,-3.4414,-3.4414,-3.4414,-3.4414,-3.4414,-3.4414,-3.4414,-3.4414,-3.4414,-3.4414,-3.4414,-3.4414,-3.4414,-3.4414,-3.4414,-3.4414,-3.4414,-3.4414,-3.4414,-3.4414,-3.4738,0.0,0.0,0.0,0.0,0.0,0.0,0.0,0.0,0.0,0.0,0.0,0.0,0.0,0.0,-3.5205,-3.5616,-3.62,-3.7322,-3.748,-3.748,-3.748,-3.748,-3.748,-3.748,-3.748,-3.748,-3.748,-3.7859,-3.8096,-3.8096,-3.8476,-3.8823,-3.9092,-3.9108,-3.9439,-4.0166,-4.0166,-4.0372,-4.0767,-4.0767,-4.0767,-4.0783,-4.1336,-4.1588,-4.1573,-4.1304,-4.1035,-4.0767,-4.0767,-4.0767,-4.0767,-4.0767,-4.0767,-4.0767,-4.0767,-4.0767,-4.0767,-4.0767,-4.0498,-4.0056,-3.9345,-3.8839,-3.8381,-3.7686,-3.748,-3.748,-3.748,-3.748,-3.748,-3.748,-3.748,-3.7421,-3.7089,-3.7029,-3.7029,-3.7029,-3.7029,-3.7029,-3.7029,-3.6569,-3.6117,-3.5913,-3.5672,-3.535,-3.492,-3.4601,-3.4414,-3.4414,-3.4414,-3.4414,-3.4414,-3.4414,-3.4414,-3.4414,-3.4414,-3.4414,-3.4414,-3.4414,-3.4414,-3.4414,-3.4414,-3.4414,-3.4414,-3.4414,-3.4414,-3.4414,-3.4414,-3.4283,-3.4037,-3.4037,-3.3906,0.0,0.0,0.0,0.0,0.0,0.0,0.0,0.0,0.0,0.0,0.0,0.0,0.0,0.0,0.0,-3.5268,-3.5963,-3.6674,-3.7385,-3.748,-3.748,-3.748,-3.748,-3.748,-3.748,-3.748,-3.748,-3.748,-3.748,-3.748,-3.748,-3.748,-3.7765,-3.8397,-3.8428,-3.8744,-3.9408,-3.9408,-3.9439,-3.9503,-3.9503,-3.9503,-3.9534,-4.083,-4.1399,-4.1367,-4.0751,-4.0119,-3.9503,-3.9503,-3.9503,-3.9503,-3.9503,-3.9503,-3.9503,-3.9503,-3.9503,-3.9503,-3.9503,-3.9455,-3.9313,-3.8713,-3.8476,-3.8302,-3.767,-3.748,-3.748,-3.748,-3.748,-3.748,-3.748,-3.748,-3.748,-3.748,-3.748,-3.748,-3.748,-3.748,-3.748,-3.748,-3.7105,-3.6646,-3.6117,-3.5991,-3.5672,-3.4654,-3.4467,-3.4481,-3.4481,-3.4414,-3.4414,-3.4414,-3.4414,-3.4414,-3.4414,-3.4414,-3.4414,-3.4414,-3.4414,-3.4385,-3.4327,-3.4385,-3.4414,-3.4414,-3.4356,-3.4327,-3.4327,-3.4269,-3.3949,-3.3383,-3.3383,-3.3079,0.0,0.0,0.0,0.0,0.0,0.0,0.0,0.0,0.0,0.0,0.0,0.0,0.0,0.0,0.0,-3.5268,-3.5963,-3.6674,-3.7385,-3.748,-3.748,-3.748,-3.748,-3.748,-3.748,-3.748,-3.748,-3.748,-3.748,-3.748,-3.748,-3.748,-3.7543,-3.7701,-3.7701,-3.8033,-3.8728,-3.8728,-3.8981,-3.9503,-3.9503,-3.9503,-3.9518,-3.9803,-3.9945,-3.9945,-3.9803,-3.9645,-3.9503,-3.9503,-3.9503,-3.9503,-3.9503,-3.9503,-3.9503,-3.9503,-3.9503,-3.9503,-3.9503,-3.9171,-3.8697,-3.8555,-3.8144,-3.767,-3.7512,-3.748,-3.748,-3.748,-3.748,-3.748,-3.748,-3.748,-3.748,-3.748,-3.748,-3.748,-3.748,-3.748,-3.748,-3.748,-3.7421,-3.7285,-3.715,-3.6846,-3.6321,-3.5672,-3.5285,-3.5052,-3.5052,-3.4668,-3.4414,-3.4414,-3.4414,-3.4414,-3.4414,-3.4414,-3.4414,-3.4414,-3.4414,-3.4196,-3.3688,-3.4153,-3.4414,-3.4414,-3.392,-3.3674,-3.3674,-3.3166,-3.2861,-3.273,-3.273,-3.2643,0.0,0.0,0.0,0.0,0.0,0.0,0.0,0.0,0.0,0.0,0.0,0.0,0.0,0.0,0.0,-3.5268,-3.5963,-3.6674,-3.7385,-3.748,-3.748,-3.748,-3.748,-3.748,-3.748,-3.748,-3.748,-3.748,-3.748,-3.748,-3.748,-3.748,-3.748,-3.748,-3.748,-3.7654,-3.8017,-3.8017,-3.8191,-3.8523,-3.8523,-3.8523,-3.8555,-3.9202,-3.9329,-3.9029,-3.9029,-3.8839,-3.8523,-3.8523,-3.8523,-3.8523,-3.8523,-3.8523,-3.8523,-3.8523,-3.8523,-3.8523,-3.8523,-3.8302,-3.8017,-3.8017,-3.7765,-3.748,-3.748,-3.748,-3.748,-3.748,-3.748,-3.748,-3.748,-3.748,-3.748,-3.748,-3.748,-3.748,-3.748,-3.748,-3.748,-3.748,-3.748,-3.7421,-3.7165,-3.6646,-3.6321,-3.6321,-3.5864,-3.5544,-3.5544,-3.5285,-3.5037,-3.4787,-3.4787,-3.4668,-3.4414,-3.4138,-3.3964,-3.3964,-3.3674,-3.3354,-3.3021,-3.3325,-3.3514,-3.3514,-3.318,-3.3021,-3.3021,-3.2687,-3.2353,-3.2034,-3.2034,-3.1874,0.0,0.0,0.0,0.0,0.0,0.0,0.0,0.0,0.0,0.0,0.0,0.0,0.0,0.0,0.0,-3.5268,-3.5963,-3.6674,-3.7385,-3.748,-3.748,-3.748,-3.748,-3.748,-3.748,-3.748,-3.748,-3.748,-3.748,-3.748,-3.748,-3.748,-3.748,-3.748,-3.748,-3.748,-3.748,-3.748,-3.748,-3.748,-3.748,-3.748,-3.7512,-3.8634,-3.8855,-3.8333,-3.8333,-3.8002,-3.748,-3.748,-3.748,-3.748,-3.748,-3.748,-3.748,-3.748,-3.748,-3.748,-3.748,-3.748,-3.748,-3.748,-3.748,-3.748,-3.748,-3.748,-3.748,-3.748,-3.748,-3.748,-3.748,-3.748,-3.748,-3.748,-3.748,-3.748,-3.748,-3.748,-3.748,-3.748,-3.748,-3.7361,-3.6907,-3.6445,-3.6305,-3.6769,-3.6383,-3.6054,-3.6054,-3.5991,-3.5691,-3.52,-3.507,-3.483,-3.4214,-3.3667,-3.3311,-3.3311,-3.2817,-3.2469,-3.2353,-3.2338,-3.2295,-3.2179,-3.228,-3.2338,-3.2338,-3.2237,-3.1903,-3.1351,-3.1351,-3.1076,0.0,0.0,0.0,0.0,0.0,0.0,0.0,0.0,0.0,0.0,0.0,0.0,0.0,0.0,0.0,-3.5268,-3.5963,-3.6674,-3.7385,-3.748,-3.748,-3.748,-3.748,-3.748,-3.748,-3.748,-3.748,-3.748,-3.748,-3.748,-3.748,-3.748,-3.748,-3.748,-3.748,-3.748,-3.748,-3.748,-3.748,-3.748,-3.748,-3.748,-3.748,-3.767,-3.7701,-3.7622,-3.7622,-3.7559,-3.748,-3.748,-3.748,-3.748,-3.748,-3.748,-3.748,-3.748,-3.748,-3.748,-3.748,-3.748,-3.748,-3.748,-3.748,-3.748,-3.748,-3.748,-3.748,-3.748,-3.748,-3.748,-3.748,-3.748,-3.748,-3.748,-3.748,-3.748,-3.748,-3.748,-3.748,-3.748,-3.748,-3.748,-3.7421,-3.7345,-3.7285,-3.7345,-3.6907,-3.6585,-3.6585,-3.618,-3.5622,-3.4999,-3.4562,-3.4099,-3.341,-3.2928,-3.2643,-3.2643,-3.2571,-3.2266,-3.1671,-3.1656,-3.1395,-3.0843,-3.1366,-3.1656,-3.1656,-3.1105,-3.0785,-3.0698,-3.0698,-3.0655,0.0,0.0,0.0,0.0,0.0,0.0,0.0,0.0,0.0,0.0,0.0,0.0,0.0,0.0,0.0,-3.5205,-3.5647,-3.6232,-3.7322,-3.748,-3.748,-3.748,-3.748,-3.748,-3.748,-3.748,-3.748,-3.748,-3.748,-3.748,-3.748,-3.7626,-3.7626,-3.748,-3.7626,-3.7626,-3.748,-3.748,-3.748,-3.748,-3.748,-3.748,-3.748,-3.748,-3.748,-3.748,-3.748,-3.748,-3.748,-3.748,-3.748,-3.748,-3.748,-3.748,-3.748,-3.748,-3.748,-3.748,-3.748,-3.748,-3.748,-3.748,-3.748,-3.748,-3.748,-3.748,-3.748,-3.748,-3.748,-3.748,-3.748,-3.748,-3.748,-3.748,-3.748,-3.748,-3.748,-3.748,-3.748,-3.748,-3.748,-3.748,-3.748,-3.748,-3.748,-3.748,-3.6955,-3.651,-3.651,-3.5988,-3.5363,-3.4816,-3.453,-3.4122,-3.3376,-3.2788,-3.2411,-3.2086,-3.1889,-3.1553,-3.1125,-3.1245,-3.1174,-3.0895,-3.0979,-3.0988,-3.0988,-3.0713,-3.0568,-3.0568,-3.0568,-3.0568,0.0,0.0,0.0,0.0,0.0,0.0,0.0,0.0,0.0,0.0,0.0,0.0,0.0,0.0,0.0,-3.5157,-3.5394,-3.5884,-3.7275,-3.748,-3.748,-3.748,-3.748,-3.748,-3.748,-3.748,-3.748,-3.748,-3.748,-3.748,-3.748,-3.7727,-3.7786,-3.7539,-3.7786,-3.7786,-3.748,-3.748,-3.748,-3.748,-3.748,-3.748,-3.748,-3.748,-3.748,-3.748,-3.748,-3.748,-3.748,-3.748,-3.748,-3.748,-3.748,-3.748,-3.748,-3.748,-3.748,-3.748,-3.748,-3.748,-3.748,-3.748,-3.748,-3.748,-3.748,-3.748,-3.748,-3.748,-3.748,-3.748,-3.748,-3.748,-3.748,-3.748,-3.748,-3.748,-3.748,-3.748,-3.748,-3.748,-3.748,-3.7417,-3.7243,-3.7212,-3.7148,-3.6975,-3.65,-3.6169,-3.6169,-3.571,-3.5187,-3.4685,-3.454,-3.4176,-3.3482,-3.2749,-3.2169,-3.1871,-3.1383,-3.1014,-3.0895,-3.1014,-3.1087,-3.1087,-3.0821,-3.0702,-3.0702,-3.0702,-3.0702,-3.0702,-3.0702,-3.0702,0.0,0.0,0.0,0.0,0.0,0.0,0.0,0.0,0.0,0.0,0.0,0.0,0.0,0.0,0.0,0.0,-3.5394,-3.5884,-3.7275,-3.748,-3.748,-3.748,-3.748,-3.748,-3.748,-3.748,-3.748,-3.748,-3.748,-3.748,-3.748,-3.7727,-3.7786,-3.7539,-3.7786,-3.7786,-3.748,-3.748,-3.748,-3.748,-3.748,-3.748,-3.748,-3.748,-3.748,-3.748,-3.748,-3.748,-3.748,-3.748,-3.748,-3.748,-3.748,-3.748,-3.748,-3.748,-3.748,-3.748,-3.748,-3.748,-3.748,-3.748,-3.748,-3.748,-3.748,-3.748,-3.748,-3.748,-3.748,-3.748,-3.748,-3.748,-3.748,-3.748,-3.748,-3.748,-3.748,-3.748,-3.748,-3.748,-3.748,-3.7275,-3.6595,-3.6485,-3.6248,-3.56,-3.5473,-3.5442,-3.5442,-3.541,-3.5237,-3.4771,-3.4352,-3.3904,-3.3446,-3.2508,-3.1936,-3.1879,-3.1409,-3.1087,-3.1087,-3.1087,-3.1087,-3.1087,-3.1087,-3.1087,-3.1087,-3.1087,-3.1087,-3.1087,-3.1087,-3.1087,0.0,0.0,0.0,0.0,0.0,0.0,0.0,0.0,0.0,0.0,0.0,0.0,0.0,0.0,0.0,0.0,-3.5394,-3.5884,-3.7275,-3.7626,-3.7727,-3.7727,-3.7918,-3.8065,-3.8065,-3.8065,-3.8065,-3.8065,-3.786,-3.7727,-3.7727,-3.7828,-3.7828,-3.7727,-3.8238,-3.8502,-3.8407,-3.7985,-3.7727,-3.7727,-3.7583,-3.748,-3.748,-3.748,-3.748,-3.748,-3.748,-3.748,-3.748,-3.748,-3.748,-3.748,-3.748,-3.748,-3.748,-3.748,-3.748,-3.748,-3.748,-3.748,-3.748,-3.748,-3.748,-3.748,-3.748,-3.748,-3.748,-3.748,-3.748,-3.748,-3.748,-3.748,-3.748,-3.748,-3.748,-3.748,-3.748,-3.748,-3.7338,-3.6896,-3.6801,-3.6579,-3.5884,-3.5758,-3.5679,-3.5426,-3.5165,-3.4972,-3.4972,-3.4734,-3.4507,-3.4352,-3.4166,-3.395,-3.3626,-3.323,-3.2949,-3.261,-3.2145,-3.1894,-3.1766,-3.1509,-3.1524,-3.191,-3.1524,-3.1249,-3.1087,-3.1087,-3.1087,-3.1087,-3.1087,-3.1087,0.0,0.0,0.0,0.0,0.0,0.0,0.0,0.0,0.0,0.0,0.0,0.0,0.0,0.0,0.0,0.0,0.0,-3.5884,-3.7275,-3.7626,-3.7786,-3.7886,-3.8075,-3.8319,-3.8567,-3.8567,-3.8567,-3.8567,-3.8367,0.0,-3.7943,-3.8017,-3.8075,-3.8075,-3.8479,-3.8739,-3.8739,-3.8197,-3.7886,-3.7886,-3.7642,-3.748,-3.748,-3.748,-3.748,-3.748,-3.748,-3.748,-3.748,-3.748,-3.748,-3.748,-3.748,-3.748,-3.748,-3.748,-3.748,-3.748,-3.748,-3.748,-3.748,-3.748,-3.748,-3.748,-3.748,-3.748,-3.748,-3.748,-3.748,-3.748,-3.748,-3.748,-3.748,-3.748,-3.748,-3.7417,-3.718,-3.7133,-3.699,-3.6516,-3.6289,-3.5966,-3.5253,-3.5252,-3.5211,-3.4988,-3.4702,-3.4503,-3.4503,-3.4239,-3.4151,-3.425,-3.425,-3.4201,-3.4101,-3.3729,-3.3507,-3.3387,-3.2547,-3.2216,-3.2446,-3.2048,-3.2064,-3.2641,-3.2256,-3.1992,-3.1823,-3.1409,-3.1249,-3.1249,-3.1249,-3.1249,0.0,0.0,0.0,0.0,0.0,0.0,0.0,0.0,0.0,0.0,0.0,0.0,0.0,0.0,0.0,0.0,0.0,-3.5941,-3.7275,-3.7539,-3.7626,-3.7886,-3.7943,-3.8197,-3.887,-3.8908,-3.8908,-3.8908,-3.8908,-3.8596,-3.7985,-3.8262,-3.8448,-3.8448,-3.8448,-3.8448,-3.8448,-3.8075,-3.7943,-3.7886,-3.7626,-3.748,-3.748,-3.748,-3.748,-3.748,-3.748,-3.748,-3.748,-3.748,-3.748,-3.748,-3.748,-3.748,-3.748,-3.748,-3.748,-3.748,-3.748,-3.748,-3.748,-3.748,-3.748,-3.748,-3.748,-3.748,-3.748,-3.748,-3.748,-3.748,-3.748,-3.748,-3.748,-3.748,-3.7464,-3.7259,-3.6564,-3.639,-3.6358,-3.6358,-3.6031,-3.5566,-3.4793,-3.4913,-3.4843,-3.4198,-3.4101,-3.4101,-3.4101,-3.4101,-3.4201,-3.4497,-3.4497,-3.4594,-3.4899,-3.3885,-3.3527,-3.4101,-3.2547,-3.2048,-3.3198,-3.2695,-3.2695,-3.3251,-3.3198,-3.3198,-3.3235,-3.2104,-3.1524,-3.1524,-3.1524,-3.1524,-3.6301,0.0,0.0,0.0,0.0,0.0,0.0,0.0,0.0,0.0,0.0,0.0,0.0,0.0,0.0,0.0,0.0,-3.627,-3.7334,-3.8033,-3.8472,-3.8511,-3.9098,-3.9401,-3.9135,-3.9135,-3.9172,0.0,-3.9032,-3.9016,-3.942,-3.9437,-3.9437,-3.9542,-3.9435,-3.9415,-3.9468,-3.8655,-3.8262,-3.8278,-3.7759,-3.748,-3.748,-3.748,-3.748,-3.748,-3.748,-3.748,-3.748,-3.748,-3.748,-3.748,-3.748,-3.748,-3.748,-3.748,-3.748,-3.748,-3.748,-3.748,-3.748,-3.748,-3.748,-3.748,-3.748,-3.748,-3.748,-3.748,-3.748,-3.748,-3.748,-3.748,-3.748,-3.748,-3.7085,-3.6658,-3.6469,-3.5728,-3.5179,-3.5179,-3.5074,-3.4867,-3.4368,-3.4341,-3.4327,-3.4133,-3.425,-3.4399,-3.4399,-3.4546,-3.4707,-3.4804,-3.4804,-3.4804,-3.4899,-3.4626,-3.4529,-3.4691,-3.3866,-3.3507,-3.3815,-3.3266,-3.3266,-3.3815,-3.3423,-3.3407,-3.3866,-3.3108,-3.2718,-3.2718,-3.2718,-3.2532,0.0,0.0,0.0,0.0,0.0,0.0,-3.5661,-3.5526,-3.5374,0.0,0.0,0.0,0.0,0.0,0.0,0.0,0.0,-3.7049,-3.7735,-3.827,-3.8662,-3.8788,-3.9435,-3.9885,-3.985,-3.985,-3.9885,-4.0003,-3.9817,-3.9766,-4.0003,-3.98,-3.9732,-3.9902,-3.9986,-4.002,-4.0054,-3.9239,-3.8788,-3.8788,-3.8017,-3.7685,-3.7685,-3.7524,-3.748,-3.748,-3.748,-3.748,-3.7449,-3.7164,-3.7212,-3.748,-3.748,-3.748,-3.748,-3.748,-3.748,-3.748,-3.748,-3.748,-3.748,-3.748,-3.748,-3.7539,-3.7626,-3.7685,-3.7685,-3.7685,-3.7583,-3.748,-3.748,-3.748,-3.7401,-3.7101,-3.6722,-3.6263,-3.5776,-3.5179,-3.4697,-3.4697,-3.4667,-3.4535,-3.4315,-3.4349,-3.4448,-3.4448,-3.4546,-3.4643,-3.4643,-3.4804,-3.4899,-3.4899,-3.4899,-3.4899,-3.4899,-3.4691,-3.4643,-3.4899,-3.4168,-3.3917,-3.4399,-3.3901,-3.385,-3.4448,-3.4102,-3.4102,-3.4448,-3.363,-3.3182,-3.3182,-3.3182,-3.3039,0.0,0.0,0.0,0.0,0.0,0.0,-3.5749,-3.5985,-3.6156,-3.5749,0.0,0.0,0.0,0.0,0.0,0.0,0.0,0.0,-3.8193,-3.8398,-3.8574,-3.8898,-3.9401,-3.9986,-4.0583,-4.0631,-4.0662,-4.0707,-4.0802,-4.0659,-4.0203,-3.9834,-3.9749,-3.9935,-4.0252,-4.0385,-4.0288,-3.9765,-3.9489,-3.9437,-3.8535,-3.8042,-3.7927,-3.7669,-3.7583,-3.748,-3.748,-3.7433,-3.7322,-3.669,-3.6801,-3.7354,-3.7275,-3.7291,-3.737,-3.737,-3.746,-3.7524,-3.7524,-3.7583,-3.7599,-3.7599,-3.7599,-3.7642,-3.7902,-3.7943,-3.7886,-3.7886,-3.7685,-3.7539,-3.7539,-3.7524,-3.735,-3.6653,-3.6416,-3.6102,-3.4984,-3.4686,-3.4691,-3.4691,-3.4588,-3.4497,-3.4546,-3.4739,-3.4899,-3.4899,-3.4899,-3.4899,-3.4899,-3.4899,-3.4899,-3.4899,-3.4899,-3.4899,-3.4899,-3.4448,-3.4399,-3.4851,-3.3935,-3.3834,-3.4851,-3.4448,-3.4399,-3.4899,-3.4899,-3.4899,-3.4899,-3.3885,-3.3407,-3.3407,-3.3407,-3.3355,0.0,0.0,0.0,0.0,0.0,0.0,-3.6156,-3.6241,-3.6259,0.0,0.0,0.0,0.0,0.0,0.0,0.0,0.0,0.0,-3.8058,-3.8985,-3.968,-3.9749,-4.0286,-4.05,-4.017,-4.012,-4.022,-4.0285,-4.0913,-4.1272,-4.13,-4.1117,-4.0913,-4.0772,-4.0754,-4.0611,-4.0368,-4.0053,-3.9902,-3.9902,-3.9385,-3.8832,-3.8407,-3.8254,-3.7886,-3.748,-3.748,-3.7148,-3.6611,-3.6485,-3.65,-3.6579,-3.6011,-3.6137,-3.6627,-3.6627,-3.715,-3.7844,-3.7844,-3.8033,-3.8221,-3.8221,-3.8221,-3.8221,-3.8278,-3.8132,-3.7828,-3.7642,-3.7524,-3.7524,-3.7786,-3.7844,-3.7726,-3.7263,-3.669,-3.6029,-3.5191,-3.4767,-3.4561,-3.4561,-3.4497,-3.4546,-3.4787,-3.4851,-3.4899,-3.4899,-3.4899,-3.4899,-3.4899,-3.4899,-3.4899,-3.4899,-3.4899,-3.4899,-3.4899,-3.4787,-3.4804,-3.4899,-3.4675,-3.4675,-3.4899,-3.4804,-3.4787,-3.4899,-3.4899,-3.4899,-3.4899,-3.4691,-3.4578,-3.4578,-3.4578,-3.4333,0.0,0.0,0.0,-3.6301,0.0,0.0,0.0,-3.6301,-3.6301,-3.6301,0.0,0.0,0.0,0.0,0.0,0.0,0.0,0.0,0.0,-3.9661,-4.0086,-4.0003,-4.0597,-4.0871,-4.0483,-4.05,-4.0645,-4.0802,-4.1071,-4.1318,-4.1604,-4.1363,-4.118,-4.118,-4.1209,-4.11,-4.0913,-4.0611,-4.0514,-4.0514,-3.9952,-3.9525,-3.9262,-3.8816,-3.8267,-3.7697,-3.7333,-3.6778,-3.6038,-3.5561,-3.5419,-3.5546,-3.545,-3.5712,-3.6126,-3.6126,-3.6502,-3.7069,-3.7069,-3.7141,-3.7323,-3.7323,-3.7323,-3.7323,-3.7307,-3.7109,-3.683,-3.6692,-3.6651,-3.6788,-3.7294,-3.7488,-3.7576,-3.7332,-3.674,-3.6064,-3.547,-3.4905,-3.4546,-3.4691,-3.4691,-3.4739,-3.4899,-3.4899,-3.4899,-3.4899,-3.4899,-3.4899,-3.4899,-3.4899,-3.4899,-3.4899,-3.4899,-3.4899,-3.4899,-3.4899,-3.4899,-3.4899,-3.4899,-3.4899,-3.4899,-3.4899,-3.4899,-3.4899,-3.4899,-3.4899,-3.4899,-3.4899,-3.4899,-3.4899,-3.4899,-3.4756,0.0,0.0,0.0,0.0,0.0,-3.6301,0.0,0.0,0.0,0.0,0.0,0.0,0.0,0.0,0.0,0.0,0.0,0.0,0.0,-4.0186,0.0,-4.0252,-4.071,-4.1029,-4.0965,-4.1076,-4.1215,-4.138,-4.118,-4.1226,-4.1604,-4.1318,-4.1209,-4.1426,-4.156,-4.156,-4.1426,-4.118,-4.1071,-4.1117,-4.0497,-4.0118,-3.9883,-3.9222,-3.8526,-3.776,-3.721,-3.6567,-3.5803,-3.4942,-3.4638,-3.4695,-3.4966,-3.5338,-3.5668,-3.5668,-3.5894,-3.6291,-3.6291,-3.6344,-3.6344,-3.6344,-3.6344,-3.6291,-3.6206,-3.6029,-3.5883,-3.5883,-3.5899,-3.6059,-3.6676,-3.71,-3.7384,-3.7275,-3.6787,-3.6238,-3.5792,-3.512,-3.4643,-3.4851,-3.4899,-3.4899,-3.4899,-3.4899,-3.4899,-3.4899,-3.4899,-3.4899,-3.4899,-3.4899,-3.4899,-3.4899,-3.4899,-3.4899,-3.4899,-3.4899,-3.4899,-3.4899,-3.4899,-3.4899,-3.4899,-3.4899,-3.4899,-3.4899,-3.4899,-3.4899,-3.4899,-3.4899,-3.4899,-3.4899,-3.4899,-3.4899,0.0,0.0,0.0,0.0,-3.6301,0.0,0.0,0.0,-3.6301,-3.6301,0.0,0.0,0.0,0.0,0.0,0.0,0.0,0.0,-3.9008,-4.0304,-4.1209,-4.11,-4.0995,-4.0965,-4.1163,-4.1163,-4.1272,-4.138,-4.138,-4.1426,-4.1604,-4.156,-4.156,-4.156,-4.1604,-4.1604,-4.156,-4.1426,-4.1408,-4.1515,-4.1209,-4.0486,-3.947,-3.9262,-3.85,-3.7303,-3.7203,-3.6804,-3.609,-3.5695,-3.5185,-3.4562,-3.4092,-3.4422,-3.5178,-3.5178,-3.5776,-3.6558,-3.6558,-3.6763,-3.7001,-3.7001,-3.6847,-3.6571,-3.6312,-3.6189,-3.6136,-3.6168,-3.6131,-3.6254,-3.6568,-3.711,-3.756,-3.7213,-3.7067,-3.6802,-3.6109,-3.5381,-3.4835,-3.4899,-3.4899,-3.4899,-3.4899,-3.4899,-3.4899,-3.4899,-3.4899,-3.4899,-3.4899,-3.4899,-3.4899,-3.4899,-3.4899,-3.4899,-3.4899,-3.4899,-3.4899,-3.4899,-3.4899,-3.4899,-3.4899,-3.4899,-3.4899,-3.4899,-3.4899,-3.4899,-3.4899,-3.4899,-3.4899,-3.4899,-3.4899,-3.4899,0.0,0.0,0.0,0.0,0.0,0.0,-3.6301,0.0,-3.6301,0.0,0.0,0.0,0.0,0.0,0.0,0.0,-3.7585,0.0,0.0,0.0,-4.0279,0.0,0.0,0.0,-4.1318,-4.1318,-4.1363,-4.1515,-4.1515,-4.156,-4.1604,-4.1604,-4.1604,-4.1604,-4.1604,-4.1604,-4.1604,-4.1121,-4.0911,-4.0937,-4.0289,-3.9756,-3.9355,-3.9026,-3.8351,-3.7416,-3.703,-3.6468,-3.5748,-3.5468,-3.5238,-3.5111,-3.483,-3.4855,-3.5054,-3.5054,-3.5398,-3.5906,-3.5906,-3.5891,-3.5827,-3.5827,-3.5613,-3.5414,-3.5247,-3.5078,-3.4975,-3.4991,-3.5094,-3.5344,-3.5855,-3.6664,-3.7411,-3.7663,-3.7417,-3.7036,-3.6721,-3.5727,-3.4899,-3.4899,-3.4899,-3.4899,-3.4899,-3.4899,-3.4899,-3.4899,-3.4899,-3.4899,-3.4899,-3.4899,-3.4899,-3.4899,-3.4899,-3.4899,-3.4899,-3.4899,-3.4899,-3.4899,-3.4899,-3.4899,-3.4899,-3.4899,-3.4899,-3.4899,-3.4899,-3.4899,-3.4899,-3.4899,-3.4899,-3.4899,-3.4899,-3.4899,-3.6301,0.0,0.0,0.0,0.0,0.0,0.0,0.0,0.0,0.0,0.0,0.0,0.0,0.0,0.0,-3.73,0.0,-3.7732,0.0,0.0,0.0,0.0,0.0,0.0,0.0,-4.1426,-4.1515,-4.1604,-4.1604,-4.1516,-4.1306,-4.1306,-4.12,-4.099,-4.0972,-4.0972,-4.0972,-4.0385,-4.0147,-4.0147,-3.9423,-3.9038,-3.8947,-3.8633,-3.8096,-3.7391,-3.693,-3.6429,-3.5873,-3.5593,-3.561,-3.5759,-3.5654,-3.5537,-3.5391,-3.5299,-3.5391,-3.5543,-3.5424,-3.5165,-3.4899,-3.4787,-3.4643,-3.4497,-3.4497,-3.4349,-3.425,-3.43,-3.4448,-3.4709,-3.5251,-3.6092,-3.6986,-3.7731,-3.735,-3.6854,-3.7069,-3.5943,-3.4899,-3.4899,-3.4899,-3.4899,-3.4899,-3.4899,-3.4899,-3.4899,-3.4899,-3.4899,-3.4899,-3.4899,-3.4899,-3.4899,-3.4899,-3.4899,-3.4899,-3.4899,-3.4899,-3.4899,-3.4899,-3.4899,-3.4899,-3.4899,-3.4899,-3.4899,-3.4899,-3.4899,-3.4899,-3.4899,-3.4899,-3.4899,-3.4899,-3.4899,0.0,0.0,0.0,-3.6301,0.0,0.0,0.0,0.0,-3.6301,0.0,0.0,0.0,0.0,-3.6602,-3.6499,-3.5885,-3.7048,0.0,0.0,0.0,0.0,0.0,0.0,0.0,0.0,-4.1515,-4.1604,-4.1604,-4.1604,-4.1288,-4.0551,-4.0516,-4.0165,-3.941,-3.9392,-3.9392,-3.9392,-3.9213,-3.9196,-3.9357,-3.9178,-3.8741,-3.8146,-3.8105,-3.7725,-3.7023,-3.7023,-3.6948,-3.693,-3.6609,-3.6444,-3.6444,-3.6054,-3.6114,-3.6402,-3.6011,-3.5864,-3.5864,-3.5498,-3.5165,-3.4851,-3.4594,-3.4497,-3.4497,-3.4497,-3.4497,-3.4546,-3.4804,-3.4899,-3.4899,-3.4932,-3.5479,-3.6224,-3.697,-3.6572,-3.6241,-3.6953,-3.5943,-3.4899,-3.4899,-3.4899,-3.4899,-3.4899,-3.4899,-3.4899,-3.4899,-3.4899,-3.4899,-3.4899,-3.4899,-3.4899,-3.4899,-3.4899,-3.4899,-3.4899,-3.4899,-3.4899,-3.4899,-3.4899,-3.4899,-3.4899,-3.4899,-3.4899,-3.4899,-3.4899,-3.4899,-3.4899,-3.4899,-3.4899,-3.4899,-3.4899,-3.4899,-3.6301,-3.6301,-3.6301,-3.6301,-3.6301,-3.6301,0.0,0.0,0.0,0.0,0.0,0.0,0.0,-3.6661,-3.6696,-3.6576,-3.7023,-3.7444,0.0,0.0,0.0,0.0,0.0,0.0,0.0,0.0,-4.0095,-4.0095,-4.0095,-3.9972,-3.9726,-3.9708,-3.9585,-3.9322,-3.9305,-3.9305,-3.9305,-3.8737,-3.8456,-3.8515,-3.7883,-3.7498,-3.7356,-3.7276,-3.7136,-3.6987,-3.6987,-3.6987,-3.6987,-3.6869,-3.6829,-3.6829,-3.6673,-3.6713,-3.6788,-3.6426,-3.6301,-3.6216,-3.5605,-3.5165,-3.4899,-3.4787,-3.4739,-3.4739,-3.4739,-3.4739,-3.4787,-3.4899,-3.4899,-3.4899,-3.4899,-3.5446,-3.6191,-3.6936,-3.6539,-3.6208,-3.6953,-3.5943,-3.4899,-3.4899,-3.4899,-3.4899,-3.4899,-3.4899,-3.4899,-3.4899,-3.4899,-3.4899,-3.4899,-3.4899,-3.4899,-3.4899,-3.4899,-3.4899,-3.4899,-3.4899,-3.4899,-3.4899,-3.4899,-3.4899,-3.4899,-3.4899,-3.4899,-3.4899,-3.4899,-3.4899,-3.4899,-3.4899,-3.4899,-3.4899,-3.4899,-3.4899,-3.6301,-3.6301,-3.6301,-3.6301,-3.636,-3.6343,-3.6301,-3.6343,-3.6343,0.0,0.0,0.0,0.0,-3.6742,-3.6783,-3.6987,-3.6987,-3.7163,0.0,-3.8164,0.0,0.0,0.0,0.0,0.0,0.0,-3.9305,-3.9305,-3.9305,-3.9199,-3.8901,-3.8883,-3.876,-3.8497,-3.848,-3.848,-3.848,-3.797,-3.7707,-3.7707,-3.7136,-3.6908,-3.6987,-3.6908,-3.6908,-3.6987,-3.6987,-3.6987,-3.6987,-3.6987,-3.6987,-3.6987,-3.6987,-3.6987,-3.697,-3.6748,-3.6585,-3.6419,-3.5958,-3.547,-3.5071,-3.5071,-3.4994,-3.4899,-3.4899,-3.4899,-3.4899,-3.4899,-3.4899,-3.4899,-3.4899,-3.5247,-3.586,-3.687,-3.6539,-3.6208,-3.6953,-3.6158,-3.5214,-3.4949,-3.4899,-3.4899,-3.4899,-3.4899,-3.4899,-3.4899,-3.4899,-3.4899,-3.4899,-3.4899,-3.4899,-3.4899,-3.4899,-3.4899,-3.4899,-3.4899,-3.4899,-3.4899,-3.4899,-3.4899,-3.4899,-3.4899,-3.4899,-3.4899,-3.4899,-3.4899,-3.4899,-3.4899,-3.4899,-3.4899,-3.4899,-3.4899]},{"header":{"parameterUnit":"m.s-1","parameterCategory":1,"la1":30.6,"la2":29.2853,"lo1":-89.7004,"lo2":-87.6739,"dy":0.0162,"dx":0.0183,"nx":112,"ny":82,"refTime":"2023-09-04T12:00:00:Z","depth":0,"parameterNumber":3,"parameterNumberName":"V-component_of_WINDS"},"data":[0.0,0.0,0.0,0.0,0.0,0.0,0.0,0.0,0.0,0.0,0.0,0.0,0.0,0.0,0.0,0.0,0.0,0.0,0.0,0.0,0.0,0.0,0.0,0.0,0.0,0.0,0.0,0.0,0.0,0.0,0.0,0.0,0.0,0.0,0.0,0.0,0.0,0.0,0.0,0.0,0.0,0.0,0.0,0.0,0.0,0.0,0.0,0.0,0.0,0.0,0.0,0.0,0.0,0.0,0.0,0.0,0.0,0.0,0.0,0.0,0.0,0.0,0.0,0.0,0.0,0.0,0.0,0.0,0.0,0.0,0.0,0.0,0.0,0.0,0.0,0.0,0.0,0.0,0.0,0.0,0.0,0.0,0.0,0.0,0.0,0.0,0.0,0.0,0.0,0.0,-3.0628,-3.0517,-3.0521,-3.0521,-3.0537,-3.0552,-3.0579,-3.0579,0.0,0.0,0.0,0.0,0.0,0.0,0.0,0.0,0.0,0.0,0.0,0.0,0.0,0.0,0.0,0.0,0.0,0.0,0.0,0.0,0.0,0.0,0.0,0.0,0.0,0.0,0.0,0.0,0.0,0.0,0.0,0.0,0.0,0.0,0.0,0.0,0.0,0.0,0.0,0.0,0.0,0.0,0.0,0.0,0.0,0.0,0.0,0.0,0.0,0.0,0.0,0.0,0.0,0.0,0.0,0.0,0.0,0.0,0.0,0.0,0.0,0.0,0.0,0.0,0.0,0.0,0.0,0.0,0.0,0.0,0.0,0.0,0.0,0.0,0.0,0.0,0.0,0.0,0.0,0.0,0.0,0.0,0.0,0.0,0.0,0.0,0.0,0.0,0.0,0.0,0.0,0.0,0.0,0.0,0.0,0.0,0.0,0.0,0.0,0.0,0.0,0.0,0.0,0.0,-3.0356,-3.0113,-3.0088,-3.0138,-3.0243,-3.0356,-3.0442,-3.05,0.0,0.0,0.0,0.0,0.0,0.0,0.0,0.0,0.0,0.0,0.0,0.0,0.0,0.0,0.0,0.0,0.0,0.0,0.0,0.0,0.0,0.0,0.0,0.0,0.0,0.0,0.0,0.0,0.0,0.0,0.0,0.0,0.0,0.0,0.0,0.0,0.0,0.0,0.0,0.0,0.0,0.0,0.0,0.0,0.0,0.0,0.0,0.0,0.0,0.0,0.0,0.0,0.0,0.0,0.0,0.0,0.0,0.0,0.0,0.0,0.0,0.0,0.0,0.0,0.0,0.0,0.0,0.0,0.0,0.0,0.0,0.0,0.0,0.0,0.0,0.0,0.0,0.0,0.0,0.0,0.0,0.0,0.0,0.0,0.0,0.0,0.0,0.0,0.0,0.0,0.0,0.0,0.0,0.0,0.0,0.0,0.0,0.0,0.0,0.0,0.0,0.0,0.0,-3.0164,-3.0079,-2.9969,-2.9954,-2.9984,-3.0037,-3.0092,-3.0132,-3.0171,-3.0196,0.0,0.0,0.0,0.0,0.0,0.0,0.0,0.0,0.0,0.0,0.0,0.0,0.0,0.0,0.0,0.0,0.0,0.0,0.0,0.0,0.0,0.0,0.0,0.0,0.0,0.0,0.0,0.0,0.0,0.0,0.0,0.0,0.0,0.0,0.0,0.0,0.0,0.0,0.0,0.0,0.0,0.0,0.0,0.0,0.0,0.0,0.0,0.0,0.0,0.0,0.0,0.0,0.0,0.0,0.0,0.0,0.0,0.0,0.0,0.0,0.0,0.0,0.0,0.0,0.0,0.0,0.0,0.0,0.0,0.0,0.0,0.0,0.0,0.0,0.0,0.0,0.0,0.0,0.0,0.0,0.0,0.0,0.0,0.0,0.0,0.0,0.0,0.0,0.0,0.0,0.0,0.0,0.0,0.0,0.0,0.0,0.0,0.0,0.0,0.0,0.0,0.0,-2.9832,-2.9769,-2.9769,-2.9769,-2.9769,-2.9801,-2.9784,-2.9784,-2.9799,-2.9834,0.0,0.0,0.0,0.0,0.0,0.0,0.0,0.0,0.0,0.0,0.0,0.0,0.0,0.0,0.0,0.0,0.0,0.0,0.0,0.0,0.0,0.0,0.0,0.0,0.0,0.0,0.0,0.0,0.0,0.0,0.0,0.0,0.0,0.0,0.0,0.0,0.0,0.0,0.0,0.0,0.0,0.0,0.0,0.0,0.0,0.0,0.0,0.0,0.0,0.0,0.0,0.0,0.0,0.0,0.0,0.0,0.0,0.0,0.0,0.0,0.0,0.0,0.0,0.0,0.0,0.0,0.0,0.0,0.0,0.0,0.0,0.0,0.0,0.0,0.0,0.0,0.0,0.0,0.0,0.0,0.0,0.0,0.0,0.0,0.0,0.0,0.0,0.0,0.0,0.0,0.0,0.0,0.0,0.0,0.0,0.0,0.0,0.0,0.0,0.0,0.0,0.0,-2.9512,-2.9448,-2.9448,-2.9368,-2.9392,-2.9514,-2.9457,-2.9476,-2.9514,-2.9642,0.0,0.0,0.0,0.0,0.0,0.0,0.0,0.0,0.0,0.0,0.0,0.0,0.0,0.0,0.0,0.0,0.0,0.0,0.0,0.0,0.0,0.0,0.0,0.0,0.0,0.0,0.0,0.0,0.0,0.0,0.0,0.0,0.0,0.0,0.0,0.0,0.0,0.0,0.0,0.0,0.0,0.0,0.0,0.0,0.0,0.0,0.0,0.0,0.0,0.0,0.0,0.0,0.0,0.0,0.0,0.0,0.0,0.0,0.0,0.0,0.0,0.0,0.0,0.0,0.0,0.0,0.0,0.0,0.0,0.0,0.0,0.0,0.0,0.0,0.0,0.0,0.0,0.0,0.0,0.0,0.0,0.0,0.0,0.0,0.0,0.0,0.0,0.0,0.0,0.0,0.0,0.0,0.0,0.0,0.0,0.0,0.0,0.0,0.0,0.0,0.0,0.0,-2.9185,-2.9283,0.0,-2.9262,-2.9181,-2.9005,-2.9169,-2.9191,-2.9008,0.0,0.0,0.0,0.0,0.0,0.0,0.0,0.0,0.0,0.0,0.0,0.0,0.0,0.0,0.0,0.0,0.0,0.0,0.0,0.0,0.0,0.0,0.0,0.0,0.0,0.0,0.0,0.0,0.0,0.0,0.0,0.0,0.0,0.0,0.0,0.0,0.0,0.0,0.0,0.0,0.0,0.0,0.0,0.0,0.0,0.0,0.0,0.0,0.0,0.0,0.0,0.0,0.0,0.0,0.0,0.0,0.0,0.0,0.0,0.0,0.0,0.0,0.0,0.0,0.0,0.0,0.0,0.0,0.0,0.0,0.0,0.0,0.0,0.0,0.0,0.0,0.0,0.0,0.0,0.0,0.0,0.0,0.0,0.0,0.0,0.0,0.0,0.0,0.0,0.0,0.0,0.0,0.0,0.0,0.0,0.0,0.0,0.0,0.0,0.0,0.0,0.0,-2.856,-2.8785,-2.8897,0.0,-2.8915,-2.8803,-2.8554,-2.8827,-2.885,-2.8478,0.0,0.0,0.0,0.0,0.0,0.0,0.0,0.0,0.0,0.0,0.0,0.0,0.0,0.0,0.0,0.0,0.0,0.0,0.0,0.0,0.0,0.0,0.0,0.0,0.0,0.0,0.0,0.0,0.0,0.0,0.0,0.0,0.0,0.0,0.0,0.0,0.0,0.0,0.0,0.0,0.0,0.0,0.0,0.0,0.0,0.0,0.0,0.0,0.0,0.0,0.0,0.0,0.0,0.0,0.0,0.0,0.0,0.0,0.0,0.0,0.0,0.0,0.0,0.0,0.0,0.0,0.0,0.0,0.0,0.0,0.0,0.0,0.0,0.0,0.0,0.0,0.0,0.0,0.0,0.0,0.0,0.0,0.0,0.0,0.0,0.0,0.0,0.0,0.0,0.0,0.0,0.0,0.0,0.0,0.0,0.0,0.0,0.0,0.0,0.0,0.0,0.0,-2.8316,-2.8316,-2.8316,-2.8316,-2.8255,-2.8219,-2.8219,-2.8448,-2.8396,0.0,0.0,0.0,0.0,0.0,0.0,0.0,0.0,0.0,0.0,0.0,0.0,0.0,0.0,0.0,0.0,0.0,0.0,0.0,0.0,0.0,0.0,0.0,0.0,0.0,0.0,0.0,0.0,0.0,0.0,0.0,0.0,0.0,0.0,0.0,0.0,0.0,0.0,0.0,0.0,0.0,0.0,0.0,0.0,0.0,0.0,0.0,0.0,0.0,0.0,0.0,0.0,0.0,0.0,0.0,0.0,0.0,0.0,0.0,0.0,0.0,0.0,0.0,0.0,0.0,0.0,0.0,0.0,0.0,0.0,0.0,0.0,0.0,0.0,0.0,0.0,0.0,0.0,0.0,0.0,0.0,0.0,0.0,0.0,0.0,0.0,0.0,0.0,0.0,0.0,0.0,0.0,0.0,0.0,0.0,0.0,0.0,0.0,0.0,0.0,0.0,0.0,0.0,-2.9501,-2.9645,-2.979,-2.979,-2.9762,-2.9692,-2.947,-2.924,-2.893,-2.8564,0.0,0.0,0.0,0.0,0.0,0.0,0.0,0.0,0.0,0.0,0.0,0.0,0.0,0.0,0.0,0.0,0.0,0.0,0.0,0.0,0.0,0.0,0.0,0.0,0.0,0.0,0.0,0.0,0.0,0.0,0.0,0.0,0.0,0.0,0.0,0.0,0.0,0.0,0.0,0.0,0.0,0.0,0.0,0.0,0.0,0.0,0.0,0.0,0.0,0.0,0.0,0.0,0.0,0.0,0.0,0.0,0.0,0.0,0.0,0.0,0.0,0.0,0.0,0.0,0.0,0.0,0.0,0.0,0.0,0.0,0.0,0.0,0.0,0.0,0.0,0.0,0.0,0.0,0.0,0.0,0.0,0.0,0.0,0.0,0.0,0.0,0.0,0.0,0.0,0.0,0.0,0.0,0.0,0.0,0.0,0.0,0.0,0.0,0.0,0.0,0.0,0.0,-2.9607,-2.9854,-3.0047,-3.0047,-3.0047,-3.0001,-2.9824,-2.9673,-2.9299,-2.869,0.0,0.0,0.0,0.0,0.0,0.0,0.0,0.0,0.0,0.0,0.0,0.0,0.0,0.0,0.0,0.0,0.0,0.0,0.0,0.0,0.0,0.0,0.0,0.0,0.0,0.0,0.0,0.0,0.0,0.0,0.0,0.0,0.0,0.0,0.0,0.0,0.0,0.0,0.0,0.0,0.0,0.0,0.0,0.0,0.0,0.0,0.0,0.0,0.0,0.0,0.0,0.0,0.0,0.0,0.0,0.0,0.0,0.0,0.0,0.0,0.0,0.0,0.0,0.0,0.0,0.0,0.0,0.0,0.0,0.0,0.0,0.0,0.0,0.0,0.0,0.0,0.0,0.0,0.0,0.0,0.0,0.0,0.0,0.0,0.0,0.0,0.0,0.0,0.0,0.0,0.0,0.0,0.0,0.0,0.0,0.0,0.0,0.0,0.0,0.0,0.0,0.0,-2.9255,-2.9522,-2.9713,-2.9679,-2.9679,-2.9644,-2.9609,-2.9881,-2.9617,-2.8611,0.0,0.0,0.0,0.0,0.0,0.0,0.0,0.0,0.0,0.0,0.0,0.0,0.0,0.0,0.0,0.0,0.0,0.0,0.0,0.0,0.0,0.0,0.0,0.0,0.0,0.0,0.0,0.0,0.0,0.0,0.0,0.0,0.0,0.0,0.0,0.0,0.0,0.0,0.0,0.0,0.0,0.0,0.0,0.0,0.0,0.0,0.0,0.0,0.0,0.0,0.0,0.0,0.0,0.0,0.0,0.0,0.0,0.0,0.0,0.0,-2.2889,-2.2495,0.0,0.0,0.0,0.0,0.0,0.0,0.0,0.0,0.0,0.0,0.0,0.0,0.0,0.0,0.0,0.0,0.0,0.0,0.0,0.0,0.0,0.0,0.0,0.0,0.0,0.0,0.0,0.0,0.0,0.0,0.0,0.0,0.0,0.0,0.0,0.0,0.0,0.0,0.0,0.0,-3.119,-3.1263,-3.1227,-3.0933,-3.0933,-3.0819,-3.0533,-3.0313,-3.0067,-2.9822,-2.9524,0.0,0.0,0.0,0.0,0.0,0.0,0.0,0.0,0.0,0.0,0.0,0.0,0.0,0.0,0.0,0.0,0.0,0.0,0.0,0.0,0.0,0.0,0.0,0.0,0.0,0.0,0.0,0.0,0.0,0.0,0.0,0.0,0.0,0.0,0.0,0.0,0.0,0.0,0.0,0.0,0.0,0.0,0.0,0.0,0.0,0.0,0.0,0.0,0.0,0.0,0.0,0.0,0.0,0.0,0.0,0.0,0.0,0.0,0.0,-2.2936,-2.2434,0.0,0.0,0.0,0.0,0.0,0.0,0.0,0.0,0.0,0.0,0.0,0.0,0.0,0.0,0.0,0.0,0.0,0.0,0.0,0.0,0.0,0.0,0.0,0.0,0.0,0.0,0.0,0.0,0.0,0.0,0.0,0.0,0.0,0.0,0.0,0.0,0.0,0.0,0.0,0.0,-3.1044,-3.1218,-3.1257,-3.1083,-3.1044,-3.1004,-3.0788,-3.0611,-3.0335,-2.9981,-2.9743,0.0,0.0,0.0,0.0,0.0,0.0,0.0,0.0,0.0,0.0,0.0,0.0,0.0,0.0,0.0,0.0,0.0,0.0,0.0,0.0,0.0,0.0,0.0,0.0,0.0,0.0,0.0,0.0,0.0,0.0,0.0,0.0,0.0,0.0,0.0,0.0,0.0,0.0,0.0,0.0,0.0,0.0,0.0,0.0,0.0,0.0,0.0,0.0,0.0,0.0,0.0,0.0,0.0,-2.5096,-2.518,-2.4777,-2.5003,-2.4903,-2.4517,-2.3406,-2.2948,-2.2944,-2.3186,0.0,0.0,0.0,0.0,0.0,0.0,0.0,0.0,0.0,0.0,0.0,0.0,0.0,0.0,0.0,0.0,0.0,0.0,0.0,0.0,0.0,0.0,-2.6063,-2.7286,-2.7565,-2.7411,-2.6811,0.0,0.0,0.0,0.0,0.0,0.0,0.0,0.0,0.0,0.0,0.0,-3.0393,-3.0584,-3.0764,-3.0723,-3.0707,-3.0683,-3.0642,-3.0683,-3.0456,-2.9832,-2.9878,-2.966,0.0,0.0,0.0,0.0,0.0,0.0,0.0,0.0,0.0,0.0,0.0,0.0,0.0,0.0,0.0,0.0,0.0,0.0,0.0,0.0,0.0,0.0,0.0,0.0,0.0,0.0,0.0,0.0,0.0,0.0,0.0,0.0,-2.7915,-2.8201,0.0,0.0,0.0,0.0,0.0,0.0,0.0,0.0,0.0,0.0,0.0,0.0,0.0,-2.5574,-2.6236,-2.6192,-2.5953,-2.55,-2.559,-2.5435,-2.5026,-2.4776,-2.4624,-2.4575,-2.412,0.0,-2.3914,-2.3949,0.0,0.0,0.0,0.0,0.0,0.0,0.0,0.0,0.0,0.0,0.0,0.0,0.0,0.0,0.0,0.0,0.0,0.0,0.0,0.0,0.0,0.0,-2.8005,-2.8209,-2.8273,-2.8242,-2.815,-2.8134,-2.8165,-2.8258,-2.8481,-2.8591,0.0,0.0,0.0,0.0,0.0,0.0,-3.0666,-3.0642,-3.0502,-3.0393,-3.0377,-3.0267,-3.0033,-3.0241,-3.0344,-3.0203,-3.0492,-3.0256,-2.9317,-2.9145,0.0,0.0,0.0,0.0,0.0,0.0,0.0,0.0,0.0,0.0,0.0,0.0,0.0,0.0,0.0,0.0,0.0,0.0,0.0,0.0,0.0,0.0,0.0,0.0,0.0,0.0,0.0,0.0,0.0,-2.7971,-2.7926,-2.7954,-2.7426,-2.7019,0.0,0.0,0.0,0.0,0.0,0.0,0.0,0.0,0.0,-2.7066,-2.6519,-2.6392,-2.6748,-2.6244,-2.5909,-2.571,-2.5848,-2.5879,-2.5843,-2.6049,-2.6265,-2.6406,-2.6256,-2.595,-2.5542,-2.4868,-2.4741,-2.4927,0.0,0.0,0.0,0.0,-2.4204,-2.4327,-2.4919,-2.4973,-2.4799,-2.504,0.0,0.0,0.0,0.0,0.0,0.0,0.0,-2.6457,-2.6707,-2.7034,-2.7497,-2.809,-2.845,-2.8708,-2.9037,-2.9332,-2.9319,-2.855,-2.8801,-2.9049,-2.8965,-2.8997,0.0,0.0,0.0,-2.9733,-3.0312,-2.9992,-2.9677,-2.9633,-2.9633,-2.9633,-2.9665,-2.9782,-2.9897,-3.0087,-3.0215,-3.0152,-2.9865,-2.9321,-2.8944,0.0,0.0,0.0,0.0,0.0,0.0,0.0,0.0,0.0,0.0,0.0,0.0,0.0,0.0,0.0,0.0,0.0,0.0,0.0,0.0,0.0,0.0,0.0,0.0,0.0,0.0,0.0,0.0,-2.7886,-2.7794,-2.7624,-2.71,-2.6742,0.0,0.0,0.0,0.0,0.0,0.0,-2.712,-2.7564,-2.7794,-2.7698,-2.7202,-2.7154,-2.7619,-2.6761,-2.6422,-2.6587,-2.6629,-2.6698,-2.6757,-2.7269,-2.7584,-2.7776,-2.7776,-2.7509,-2.6975,-2.5893,-2.5359,-2.5194,-2.5052,-2.5118,-2.523,-2.5061,-2.5118,-2.5286,-2.5729,-2.5992,-2.6132,-2.6132,-2.6245,-2.6315,-2.5866,0.0,0.0,0.0,0.0,-2.6578,-2.6892,-2.7054,-2.7384,-2.8311,-2.8764,-2.9162,-2.9766,-3.0273,-3.032,-2.915,-2.9319,-2.9673,-2.9673,-2.9425,0.0,-3.0635,0.0,-2.9738,-3.0274,-2.9864,-2.9549,-2.9596,-2.9596,-2.9611,-2.9651,-2.9635,-2.9662,-2.9681,-2.977,-2.9886,-3.0097,-2.9453,-2.9193,-2.9428,0.0,0.0,0.0,0.0,0.0,0.0,0.0,0.0,0.0,0.0,0.0,0.0,0.0,0.0,0.0,0.0,0.0,0.0,0.0,0.0,0.0,0.0,0.0,0.0,0.0,0.0,0.0,0.0,0.0,-2.7135,-2.6825,0.0,0.0,0.0,0.0,-2.6896,-2.7629,-2.7889,-2.7387,-2.7158,-2.7336,-2.7955,-2.7164,-2.7567,-2.9243,-2.8412,-2.8302,-2.8906,-2.8492,-2.8097,-2.7736,-2.7764,-2.7806,-2.7776,-2.7776,-2.7762,-2.7678,-2.7003,-2.6371,-2.5797,-2.5216,-2.5342,-2.5784,-2.523,-2.5342,-2.5839,-2.5893,-2.6287,-2.6764,-2.6764,-2.7186,-2.7692,-2.7678,-2.7678,0.0,0.0,-2.7953,-2.8282,-2.8282,-2.8621,-2.9009,-2.9475,-2.9651,-2.9773,-3.0256,-3.0905,-3.1136,-3.0458,-3.0351,-3.0366,-3.0366,0.0,-3.0713,-3.0791,-3.0729,-3.0798,-3.0998,-3.0848,-3.0782,-3.1,-3.1,-3.0732,-3.0117,-3.0069,-2.9801,-2.9169,-2.9396,-2.9515,-2.956,-2.9738,-2.9853,-2.9853,-2.914,0.0,0.0,0.0,0.0,0.0,0.0,0.0,0.0,0.0,0.0,0.0,0.0,0.0,0.0,0.0,0.0,0.0,0.0,0.0,0.0,0.0,0.0,0.0,0.0,0.0,0.0,0.0,0.0,-2.7038,-2.7216,0.0,-2.6869,-2.7495,-2.7773,-2.7396,-2.807,-2.8294,-2.7815,-2.8537,-2.8967,-2.89,-2.8723,-2.8921,-2.9576,-2.8704,-2.8434,-2.8652,-2.8211,-2.8149,-2.8366,-2.8366,-2.8577,-2.8956,-2.8956,-2.8731,-2.8352,-2.7607,-2.7225,-2.7102,-2.6872,-2.693,-2.7102,-2.6872,-2.693,-2.7102,-2.7102,-2.7242,-2.7425,-2.7425,-2.7593,-2.7776,-2.7776,-2.7776,-2.7776,-2.7776,-2.7893,-2.7995,-2.7995,-2.8111,-2.8426,-2.9289,-2.9717,-3.0171,-3.1051,-3.1656,-3.1967,-3.1736,-3.1336,-3.1043,-3.1043,-3.0741,-3.0861,-3.1712,-3.1109,-3.0706,-3.1213,-3.0866,-3.0552,-3.0654,-3.0654,-3.0647,-3.0532,-3.0566,-3.0317,-2.9769,-3.0003,-2.995,-2.9531,-2.977,-2.9918,-2.9918,-2.9659,-2.9529,0.0,0.0,0.0,0.0,0.0,0.0,0.0,0.0,0.0,0.0,0.0,0.0,0.0,0.0,0.0,0.0,0.0,0.0,0.0,0.0,0.0,0.0,0.0,0.0,0.0,0.0,-2.7182,-2.6944,-2.7528,-2.7707,-2.7163,-2.7833,-2.8135,-2.7753,-2.8602,-2.8968,-2.8513,-2.9432,-2.984,-2.9531,-2.9364,-2.9421,-2.9809,-2.8928,-2.8698,-2.9015,-2.8618,-2.8717,-2.9307,-2.9307,-2.9659,-3.0249,-3.0249,-3.001,-2.9554,-2.8611,-2.8283,-2.8316,-2.7377,-2.7069,-2.7069,-2.7069,-2.7069,-2.7097,-2.7571,-2.7893,-2.8127,-2.8324,-2.8394,-2.8394,-2.8394,-2.8394,-2.8394,-2.8394,-2.8394,-2.8394,-2.8394,-2.8394,-2.8612,-2.9488,-2.9929,-3.0397,-3.1289,-3.1838,-3.2176,-3.2176,-3.1919,-3.172,-3.172,-3.1366,-3.1382,-3.2259,-3.1643,-3.1243,-3.1674,-3.1351,-3.1089,-3.1089,-3.1089,-3.1034,-3.1011,-3.1083,-3.0888,-3.0235,-3.064,-3.0511,-2.9701,-3.0035,-3.0117,-2.9918,-2.9918,-2.9918,-2.9918,0.0,0.0,0.0,0.0,0.0,0.0,0.0,0.0,0.0,0.0,0.0,0.0,0.0,0.0,0.0,0.0,0.0,0.0,0.0,0.0,0.0,0.0,0.0,-2.6619,-2.7138,-2.7428,-2.6891,-2.7717,-2.8099,-2.7515,-2.8227,-2.8549,-2.8129,-2.9297,-2.9875,-2.9443,-2.9591,-2.9741,-2.9741,-2.8878,-2.8972,-3.0,-2.9211,-2.9298,-3.0323,-2.9907,-2.9982,-3.0558,-3.0558,-3.0895,-3.1485,-3.1485,-3.1485,-3.1377,-2.998,-2.9455,-2.9199,-2.6643,-2.566,-2.566,-2.566,-2.566,-2.5863,-2.7225,-2.814,-2.8816,-2.942,-2.9602,-2.9602,-2.9602,-2.9602,-2.9602,-2.9602,-2.9602,-2.9602,-2.9602,-2.9602,-2.9727,-3.0205,-3.0312,-3.0433,-3.0911,-3.1379,-3.1667,-3.1739,-3.2064,-3.2398,-3.2398,-3.2398,-3.2398,-3.2398,-3.2398,0.0,-3.2398,-3.2398,-3.2398,-3.2398,-3.2398,-3.2121,-3.1474,-3.1641,-3.1415,-3.0489,-3.1189,-3.115,-3.018,-3.0667,-3.0619,-2.9951,-2.9918,-2.9918,-2.9918,0.0,0.0,0.0,0.0,0.0,0.0,0.0,0.0,0.0,0.0,0.0,0.0,0.0,0.0,0.0,0.0,0.0,0.0,0.0,0.0,0.0,0.0,-2.7437,-2.6879,-2.7465,-2.7816,-2.7421,-2.7897,-2.8372,-2.8564,-2.9183,-2.9627,-2.9735,-2.9787,-2.9727,-2.9599,-2.9839,-2.9903,-2.9903,-2.9842,-3.0096,-3.0852,-3.031,-3.0397,-3.116,-3.103,-3.1064,-3.1232,-3.1232,-3.1316,-3.1485,-3.0855,-3.0651,-3.0487,-2.9039,-2.8395,-2.8338,-2.7377,-2.7,-2.7,-2.7,-2.7313,-2.784,-2.8754,-2.9163,-2.9378,-2.956,-2.9602,-2.9602,-2.9602,-2.9602,-2.9602,-2.9602,-2.9602,-2.9602,-2.9602,-2.9602,-2.9727,-3.0205,-3.0312,-3.0493,-3.1321,-3.161,-3.1781,-3.212,-3.2342,-3.2398,-3.2398,-3.2398,-3.2398,-3.2398,-3.2398,-3.2398,-3.2398,-3.2398,-3.2398,-3.2398,-3.212,-3.1931,-3.2136,-3.19,-3.157,-3.1166,-3.154,-3.1381,-3.0626,-3.1118,-3.1148,-3.0652,-3.0134,-2.9918,0.0,0.0,0.0,0.0,0.0,0.0,0.0,0.0,0.0,0.0,0.0,0.0,0.0,0.0,0.0,0.0,0.0,0.0,0.0,0.0,0.0,0.0,-2.7068,-2.7682,-2.7173,-2.7669,-2.8065,-2.7957,-2.8503,-2.9029,-2.9381,-2.9816,-3.0052,-3.0121,-3.0129,-3.0063,-2.9844,-3.0,-3.0236,-3.0498,-3.0405,-3.072,-3.1297,-3.1053,-3.112,-3.1485,-3.1485,-3.1478,-3.1349,-3.1349,-3.1351,-3.1223,-3.0717,-3.0575,-3.0419,-2.9001,-2.8411,-2.831,0.0,0.0,0.0,0.0,-2.7194,-2.7657,-2.8143,-2.8675,-2.9121,-2.9121,-2.9338,-2.9602,-2.9602,-2.9602,-2.9602,-2.9602,-2.9602,-2.9602,-2.9602,-2.9602,-2.9665,-2.996,-3.0021,-3.0144,-3.0732,-3.1146,-3.1495,-3.1766,-3.2104,0.0,-3.2398,-3.2398,-3.2398,-3.2398,-3.2398,-3.2398,-3.2398,-3.2398,-3.2398,-3.2398,-3.2176,-3.212,-3.2398,-3.2302,0.0,0.0,0.0,-3.2118,-3.1413,-3.1265,0.0,0.0,0.0,-3.0055,-3.0312,-3.0064,0.0,0.0,-2.9708,-2.9464,0.0,0.0,0.0,0.0,0.0,0.0,0.0,0.0,0.0,0.0,0.0,0.0,0.0,0.0,0.0,0.0,-2.7449,-2.8192,-2.7628,-2.7952,-2.834,-2.8462,-2.9175,-2.977,-2.997,-3.0084,-3.0046,-2.9798,-3.0242,-3.0386,-2.9987,0.0,0.0,0.0,0.0,-3.0937,-3.1597,-3.1597,-3.1626,-3.1548,-3.1548,-3.146,-3.1159,-3.1159,-3.1069,-3.0882,-3.082,-3.0732,-3.0631,-2.9391,-2.8825,-2.8687,-2.7366,-2.6935,-2.6875,-2.6444,-2.6414,-2.6515,-2.6584,0.0,0.0,-2.8492,-2.898,-2.9602,-2.9602,-2.9602,-2.9602,-2.9602,-2.9602,-2.9602,-2.9602,-2.9602,-2.9602,-2.9602,-2.9602,-2.9602,-2.9665,-3.0372,-3.1029,-3.1087,-3.1766,-3.2398,-3.2398,-3.2398,-3.2398,-3.2398,-3.2398,-3.2398,-3.2398,-3.2398,-3.2398,-3.2398,-3.2342,0.0,-3.2398,-3.2594,-3.2664,-3.2398,-3.285,-3.2798,-3.2118,-3.1208,-3.1002,-3.1596,-3.0542,-3.0323,-3.0903,-3.0319,-2.9964,-2.9839,-2.9863,-2.9858,0.0,0.0,0.0,0.0,0.0,0.0,0.0,0.0,0.0,0.0,0.0,0.0,0.0,0.0,0.0,-2.657,-2.7957,-2.895,-2.8444,-2.8912,-2.9197,-2.8905,-2.9334,-2.9717,-3.0,-2.9906,-3.0013,-3.0294,-2.9843,-2.9671,-2.9807,-2.9982,-3.0132,-3.0243,-3.0956,-3.1597,-3.2216,-3.223,-3.2166,-3.1962,-3.1962,0.0,-3.0948,-3.0948,-3.0939,-3.0882,-3.0228,-2.9922,-2.9845,-2.8917,-2.85,-2.8234,-2.7296,-2.6935,-2.6998,-2.7447,-2.7413,-2.715,-2.7695,-2.8186,-2.8492,-2.8492,-2.898,-2.9602,-2.9602,-2.9602,0.0,-2.9602,-2.9602,-2.9602,-2.9602,-2.9602,-2.9602,-2.9602,-2.9602,-2.9727,-3.0083,-3.0613,-3.1087,-3.1495,-3.2007,-3.2398,-3.2398,-3.2398,-3.2398,-3.2398,-3.2398,-3.2398,-3.2398,-3.2398,-3.2398,-3.2398,-3.2064,-3.2007,-3.2398,-3.212,-3.2079,-3.2398,-3.2176,-3.1875,-3.1596,-3.1211,-3.1182,-3.1535,-3.0747,-3.0456,-3.0738,-3.0746,-3.0286,-2.9446,-2.9559,-2.9576,0.0,0.0,0.0,0.0,0.0,0.0,0.0,0.0,0.0,0.0,0.0,-2.5853,0.0,0.0,-2.7433,-2.7595,-2.8348,-2.8891,-2.8621,-2.9171,-2.9466,-2.9292,-2.9433,-2.965,-2.9899,-2.9853,-2.9817,-2.9889,-2.9546,-2.931,-2.9449,-2.9794,-3.0135,-3.0439,-3.1411,-3.1957,-3.1965,-3.2177,-3.2031,-3.1489,-3.1489,-3.1119,-3.0291,-3.0291,-3.0075,-2.9704,-2.925,-2.9106,-2.9028,-2.8578,-2.8259,-2.8131,-2.7687,-2.7406,-2.7244,-2.7688,-2.7483,-2.6932,-2.7284,-2.7645,-2.7868,-2.7868,-2.8662,-2.9522,-2.9522,-2.972,-2.9931,-2.9931,-2.9931,-2.9931,-2.9931,-2.9931,-2.9849,-2.9596,-2.9656,-2.9764,-2.9707,-3.019,-3.0732,-3.097,-3.1537,-3.2064,-3.2064,-3.2231,-3.2398,-3.2398,-3.2398,-3.2398,-3.2398,-3.2398,-3.2398,-3.2398,-3.2176,-3.2176,-3.2398,-3.2176,-3.2176,-3.2398,-3.2176,-3.1992,-3.1905,-3.1688,-3.1631,-3.1805,-3.0953,-3.0685,-3.112,-3.0541,-3.0135,-2.9847,-2.9589,-2.9404,0.0,0.0,0.0,0.0,0.0,0.0,0.0,0.0,-2.5038,-2.5705,-2.6262,-2.6668,-2.6782,-2.732,-2.7949,-2.833,-2.8643,-2.8754,-2.8611,-2.9117,-2.9446,-2.9328,-2.9387,-2.9514,-2.9524,-2.958,-2.9393,-2.9121,-2.898,-2.8986,-2.9073,-2.9635,-3.0253,-3.0856,-3.1888,-3.215,-3.1516,-3.1869,-3.1563,-3.067,-3.067,-3.0228,-2.9484,-2.9484,-2.9106,-2.8431,-2.8431,-2.8431,-2.8431,-2.8259,-2.8179,-2.8087,-2.8099,-2.7838,-2.747,-2.7717,-2.7382,-2.6852,-2.6776,-2.7046,-2.7373,-2.7299,-2.8252,-2.9363,-2.9363,-2.9797,-3.0295,-3.0295,-3.0295,-3.0295,-3.0295,-3.0295,-3.016,-2.9659,-2.9804,-2.9879,-2.9426,-2.994,-3.0425,-3.0425,-3.1218,-3.1927,-3.1985,-3.2281,-3.2496,-3.2413,-3.2398,-3.2398,-3.2398,-3.2398,-3.2398,-3.2398,-3.2398,-3.2398,-3.2398,-3.2342,-3.2231,-3.2104,-3.2104,-3.2104,-3.1992,-3.1853,-3.1853,-3.1921,-3.0983,-3.0824,-3.1443,-3.0485,-3.0152,-3.0452,-2.9954,-2.9565,-2.556,-2.5909,0.0,-2.5691,-2.5868,-2.6189,0.0,0.0,-2.6534,-2.723,-2.741,-2.7455,-2.7505,-2.8023,-2.8345,-2.7788,-2.8679,-2.9204,-2.8598,-2.9073,-2.9282,-2.8693,-2.9108,-2.9247,-2.8712,-2.8661,-2.856,-2.8262,-2.7921,-2.8067,-2.8852,-2.9495,-3.0097,-3.0713,-3.2006,-3.2263,-3.1516,-3.1723,-3.1119,-2.9845,-2.9679,-2.9238,-2.8657,-2.8657,-2.8498,-2.8259,-2.8259,-2.8259,-2.8259,-2.8179,-2.7926,-2.7603,-2.7869,-2.7753,-2.7591,-2.8176,-2.8089,-2.7555,-2.7389,-2.7424,-2.7594,-2.7373,-2.8252,-2.9363,-2.9363,-2.9797,-3.0295,-3.0295,-3.0295,-3.0295,-3.0295,-3.0295,-3.0268,-3.0214,-3.0256,-3.0242,-3.0174,-3.0539,-3.0912,-3.0912,-3.1861,-3.2741,-3.2879,-3.293,-3.2837,-3.2435,-3.2398,-3.2398,-3.2398,-3.2398,-3.2398,-3.2398,-3.2398,-3.2398,-3.2398,-3.2007,-3.161,-3.119,-3.1146,-3.0955,-3.0553,-3.0911,-3.1146,-3.1131,-3.06,-3.0675,-3.1332,-3.127,-3.0998,-3.0599,-3.0828,-3.0578,-2.5769,0.0,0.0,0.0,-2.6509,-2.6585,-2.6188,-2.609,-2.6217,-2.6491,-2.6549,-2.6654,-2.6982,-2.7297,-2.7631,0.0,-2.8627,-2.8852,-2.8539,-2.8738,-2.8661,-2.7973,-2.8157,-2.8208,-2.7973,-2.7908,-2.7855,-2.7736,-2.7904,-2.826,-2.8892,-2.9797,-3.0268,-3.0144,-3.1196,-3.1193,-2.9793,-3.0075,-2.9768,-2.887,-2.8779,-2.8633,-2.851,-2.8339,-2.8259,-2.8179,-2.8111,-2.803,-2.803,-2.7857,-2.7684,-2.751,-2.7615,-2.7696,-2.7788,-2.8042,-2.7888,-2.7608,-2.7528,-2.7455,-2.7423,-2.7723,-2.8482,-2.9314,-2.9625,-3.0228,-3.0692,-3.0692,-3.0692,-3.0692,-3.0692,-3.0692,-3.0612,-3.0268,-3.0317,-3.0378,-3.01,-3.0351,-3.061,-3.061,-3.124,-3.1752,-3.1882,-3.2445,-3.2856,-3.2691,-3.2421,-3.2287,-3.2398,-3.2398,-3.2398,-3.2398,-3.2398,-3.2398,-3.2398,-3.2231,-3.1992,-3.1823,-3.1552,-3.1321,-3.1146,-3.1029,-3.0851,-3.0613,-3.0372,-3.0447,-3.0747,-3.0478,-3.0408,-3.0397,-3.0324,-3.0221,-2.555,0.0,0.0,-2.6512,-2.6564,-2.6457,-2.5839,-2.5781,-2.5783,-2.5783,-2.5783,-2.596,-2.6336,-2.6619,-2.7018,-2.794,-2.8197,-2.8278,-2.8206,-2.8222,-2.8039,-2.759,-2.7523,-2.7523,-2.7523,-2.7523,-2.7523,-2.7523,-2.8059,-2.8589,-2.9021,-2.9847,-3.0163,-2.9776,-3.0462,-3.0075,-2.851,-2.887,-2.8779,-2.8179,-2.8099,-2.8179,-2.8431,-2.8179,-2.8099,-2.8111,-2.7962,-2.7881,-2.7788,-2.7603,-2.7441,-2.7441,-2.7441,-2.7545,-2.7731,-2.7731,-2.7626,-2.7615,-2.7522,-2.7371,-2.7383,-2.7777,-2.8474,-2.916,-2.9639,-3.0355,-3.0986,-3.0986,-3.0986,-3.0986,-3.0986,-3.0986,-3.0882,-3.0464,-3.0506,-3.0606,-3.0183,-3.0304,-3.0502,-3.0502,-3.0964,-3.135,-3.135,-3.2056,-3.2658,-3.2771,-3.2541,-3.2379,-3.2578,-3.2505,-3.2398,-3.2398,-3.2398,-3.2398,-3.2398,-3.2287,-3.2231,-3.2231,-3.1894,-3.1625,-3.1495,-3.1321,-3.0911,-3.0312,-3.0312,-3.0312,-3.0312,-2.996,-3.0021,-3.0493,-3.0021,-3.0021,0.0,0.0,-2.516,-2.5714,-2.5823,-2.5837,-2.5823,-2.5769,-2.5783,-2.5783,-2.5783,-2.5783,-2.5837,-2.6343,-2.6804,-2.6734,-2.7271,-2.7678,-2.7577,-2.7523,-2.7523,-2.7523,-2.7523,-2.7523,0.0,-2.7523,-2.7523,-2.7523,-2.8059,-2.8634,-2.9293,-2.9275,-2.9453,-2.9999,-2.9858,-2.9328,-2.851,-2.887,-2.8779,-2.8179,-2.8042,-2.8042,-2.8179,-2.8042,-2.7893,-2.7893,-2.7893,-2.7788,-2.751,-2.7522,-2.7371,-2.7231,-2.7231,-2.7231,-2.7231,-2.7231,-2.7476,-2.7881,-2.7603,-2.7522,-2.7441,-2.7301,-2.8075,-2.9081,-2.916,-3.0037,-3.0986,-3.0986,-3.0986,-3.0986,-3.0986,-3.0986,-3.0986,-3.096,-3.096,-3.0947,-3.0934,-3.1009,-3.1009,-3.1009,-3.1549,-3.2092,-3.2307,-3.225,-3.2326,-3.2649,-3.263,-3.2712,-3.313,-3.2701,-3.2398,-3.2398,-3.2398,-3.2398,-3.2398,-3.1951,-3.1724,-3.1724,-3.1739,-3.1495,-3.1029,-3.1437,-3.1263,-3.0312,-3.0312,-3.0312,-3.0312,-3.0266,-3.0493,-3.097,-3.0493,-3.0553,-2.4921,0.0,-2.5245,-2.5823,-2.5918,-2.5823,-2.537,-2.5272,-2.516,-2.4765,-2.4958,-2.5401,-2.572,-2.6302,-2.6875,-2.7263,-2.7424,-2.7551,-2.7497,-2.7523,-2.7523,-2.7523,-2.7523,0.0,0.0,0.0,0.0,-2.8072,-2.8273,-2.8638,-2.9202,-2.9139,-2.9065,-2.8791,-2.8712,-2.8395,-2.7846,-2.7846,-2.7857,-2.8042,-2.7962,-2.7962,-2.795,-2.7777,-2.7708,-2.7881,-2.7557,-2.7464,-2.7522,-2.7371,-2.7219,-2.7231,-2.7231,-2.7231,-2.7231,-2.7231,-2.7313,-2.7394,-2.7301,-2.7301,-2.7383,-2.7777,-2.8395,-2.916,-2.9561,-3.0279,-3.0986,-3.0986,-3.0986,-3.0986,-3.0986,-3.0986,-3.0986,-3.0986,-3.0986,-3.0986,-3.0986,-3.0986,-3.0986,-3.0986,-3.1185,-3.1394,-3.1468,-3.1852,-3.2206,-3.2492,-3.2391,-3.2511,-3.3099,-3.2716,-3.2398,-3.2398,-3.2398,-3.2287,-3.1951,-3.1781,-3.1552,-3.1263,-3.097,-3.0732,-3.0553,-3.0372,-3.0144,-2.9837,-2.9851,-2.9851,-2.9851,-2.9851,-2.9898,-3.0083,-2.9898,-2.9898,-2.5077,-2.5021,-2.4964,-2.5494,-2.5494,-2.5231,-2.4778,-2.4677,-2.4616,-2.4433,-2.4713,-2.5135,-2.5681,-2.61,-2.6553,-2.7197,-2.7235,-2.7301,-2.7497,-2.7523,-2.7523,-2.7523,-2.7523,-2.7523,0.0,0.0,0.0,-2.8084,-2.8214,-2.847,-2.8787,-2.8799,-2.8633,-2.8179,-2.7938,-2.7696,-2.7371,-2.7371,-2.7464,-2.7788,-2.7788,-2.7719,-2.7638,-2.7534,-2.7534,-2.7638,-2.7383,-2.7371,-2.7371,-2.7219,-2.7231,-2.7231,-2.7231,-2.7231,-2.7231,-2.7231,-2.7231,-2.7231,-2.7231,-2.7231,-2.7301,-2.8018,-2.8633,-2.9238,-2.9793,-3.0432,-3.0986,-3.0986,-3.0986,-3.0986,-3.0986,-3.0986,-3.0986,-3.0986,-3.0986,-3.0986,-3.0986,-3.0986,-3.0986,-3.0986,-3.0986,-3.0986,-3.0986,-3.1394,-3.182,-3.2263,-3.207,-3.1995,-3.2512,-3.2043,-3.1751,-3.1879,-3.1879,-3.1766,-3.1495,-3.1437,-3.1321,-3.1029,-3.0732,-3.0493,-3.0312,-3.0144,-2.996,-2.9602,-2.9789,-2.9789,-2.9602,-2.9602,-2.9602,-2.9602,-2.9602,-2.9602,-2.5133,-2.4708,-2.4229,-2.4778,-2.4505,-2.4112,-2.4112,-2.4138,-2.4321,-2.4857,-2.5074,-2.5223,0.0,0.0,-2.6086,-2.6634,-2.6713,-2.6909,-2.7458,-2.7523,-2.7523,0.0,0.0,0.0,0.0,0.0,0.0,-2.7485,0.0,-2.8213,-2.8218,-2.821,-2.8179,-2.8179,-2.7545,-2.7231,-2.7231,-2.7371,-2.7522,-2.7522,-2.7522,-2.7371,-2.7231,-2.7371,-2.7371,-2.7231,-2.7452,-2.7371,-2.7231,-2.7231,-2.7231,-2.7231,-2.7231,-2.7231,-2.7231,-2.7231,-2.7231,-2.7231,-2.7231,-2.7231,-2.7313,-2.7938,-2.8554,-2.9238,-2.9793,-3.0432,-3.0986,-3.0986,-3.0986,-3.0986,-3.0986,-3.0986,-3.0986,-3.0986,-3.0986,-3.0986,-3.0986,-3.0986,-3.0986,-3.0986,-3.0986,-3.0986,-3.0986,-3.0986,-3.1259,-3.1942,-3.1544,-3.1295,-3.1449,-3.0913,-3.0687,-3.1014,-3.1043,-3.097,-3.097,-3.097,-3.097,-3.0911,-3.0911,-3.0732,-3.0251,-3.0673,-3.0493,-2.9602,-3.0021,-3.0021,-2.9602,-2.9602,-2.9602,-2.9602,-2.9602,-2.9602,-2.4434,-2.4274,-2.4112,-2.4287,-2.4229,-2.4112,-2.4112,-2.4452,-2.4792,-2.4996,-2.5703,-2.6282,0.0,0.0,0.0,-2.7288,-2.7314,0.0,-2.751,-2.7523,0.0,-2.7523,0.0,-2.7491,-2.7506,-2.788,0.0,0.0,-2.7468,-2.7924,-2.8848,-2.7936,-2.7464,-2.7464,-2.7313,-2.7301,-2.7441,-2.7441,-2.7441,-2.7301,-2.7301,-2.729,-2.7441,-2.7301,-2.729,-2.7441,-2.7301,-2.7219,-2.7231,-2.7231,-2.7231,-2.7231,-2.7231,-2.7231,-2.7231,-2.7231,-2.7231,-2.7231,-2.7231,-2.7231,-2.7231,-2.7383,-2.8235,-2.916,-2.9238,-3.0114,-3.0986,-3.0986,-3.0986,-3.0986,-3.0986,-3.0986,-3.0986,-3.0986,-3.0986,-3.0986,-3.0986,-3.0986,-3.0986,-3.0986,-3.0986,-3.0986,-3.0986,-3.0986,-3.1048,-3.1259,-3.0758,-3.0956,-3.2382,-3.1777,-3.1297,-3.1615,-3.1249,-3.0851,-3.0493,-3.0493,-3.0312,-2.996,-2.996,-2.9898,-2.9789,-2.9898,-2.9837,-2.9602,-2.9727,-2.9727,-2.9602,-2.9602,-2.9602,-2.9602,-2.9602,-2.9602,-2.4319,-2.4157,-2.4112,-2.4112,-2.4112,-2.4178,-2.4426,-2.4739,-2.5045,-2.5277,-2.6089,0.0,0.0,0.0,0.0,0.0,0.0,0.0,-2.7523,-2.7523,-2.7523,0.0,-2.7745,0.0,-2.7525,-2.7982,-2.8136,0.0,-2.7669,-2.7831,-2.8291,-2.7615,-2.7231,-2.7231,-2.7231,-2.7219,-2.7371,-2.7371,-2.7301,-2.7231,-2.7231,-2.7219,-2.7371,-2.7219,-2.7219,-2.7371,-2.7219,-2.7231,-2.7231,-2.7231,-2.7231,-2.7231,-2.7231,-2.7231,-2.7231,-2.7231,-2.7231,-2.7231,-2.7231,-2.7231,-2.7301,-2.7846,-2.8315,-2.8858,-2.9639,-3.019,-3.0583,-3.0911,-3.0986,-3.0986,-3.0986,-3.0986,-3.0986,-3.0986,-3.0986,-3.0986,-3.0986,-3.0986,-3.0986,-3.0986,-3.0986,-3.0986,-3.0986,-3.0986,-3.0986,-3.0986,-3.0712,-3.0917,-3.2207,-3.1559,-3.1075,-3.1397,-3.1042,-3.0668,-3.0435,-3.0178,-2.9898,-2.9602,-2.9602,-2.9602,-2.9602,-2.9602,-2.9602,-2.9602,-2.9602,-2.9602,-2.9602,-2.9602,-2.9602,-2.9602,-2.9602,-2.9602,-2.4465,-2.4261,-2.4112,-2.4112,-2.4178,-2.436,-2.4857,-2.5079,-2.5211,-2.5714,0.0,-2.6607,-2.6625,-2.6985,-2.7323,-2.739,0.0,-2.739,-2.7456,-2.7523,-2.7523,-2.7523,-2.7965,-2.8066,-2.7511,-2.7928,-2.8166,-2.8086,-2.8163,-2.7915,-2.736,-2.7231,-2.7231,-2.7231,-2.7231,-2.7231,-2.7231,-2.7231,-2.7231,-2.7231,-2.7231,-2.7231,-2.7231,-2.7231,-2.7231,-2.7231,-2.73,-2.7288,-2.7242,-2.73,-2.7288,-2.7231,-2.7231,-2.7231,-2.7231,-2.7231,-2.7231,-2.7231,-2.7231,-2.7231,-2.7383,-2.8462,-2.8633,-2.8633,-3.0279,-3.0432,-3.0279,-3.0823,-3.0986,-3.0986,-3.0986,-3.0986,-3.0986,-3.0986,-3.0986,-3.0986,-3.0986,-3.0986,-3.0986,-3.0986,-3.0986,-3.0986,-3.0986,-3.0986,-3.0986,-3.0986,-3.0986,-3.1123,-3.1482,-3.0882,-3.0541,-3.0951,-3.0745,-3.0549,-3.053,-3.0038,-2.9701,-2.9617,-2.9602,-2.9602,-2.9602,-2.9602,-2.9602,-2.9602,-2.9602,-2.9602,-2.9602,-2.9602,-2.9602,-2.9602,-2.9602,-2.9602,-2.4216,-2.4112,-2.4112,-2.4112,-2.4465,-2.4844,-2.5009,-2.5355,0.0,0.0,0.0,-2.6027,-2.6057,-2.6139,0.0,-2.6782,0.0,0.0,0.0,0.0,-2.7523,0.0,0.0,0.0,0.0,0.0,0.0,0.0,-2.7877,-2.8152,-2.8007,-2.7464,-2.7231,-2.7231,-2.7231,-2.7231,-2.7231,-2.7231,-2.7231,-2.7231,-2.7231,-2.7231,-2.7231,-2.7231,-2.7231,-2.7254,-2.7667,-2.761,-2.7254,-2.7679,-2.761,-2.7231,-2.7231,-2.7231,-2.7231,-2.7231,-2.7231,-2.7231,-2.7231,-2.7231,-2.7231,-2.7464,-2.8155,-2.9003,-2.9316,-3.0114,-3.0823,-3.0986,-3.0986,-3.0986,-3.0986,-3.0986,-3.0986,-3.0986,-3.0986,-3.0986,-3.0986,-3.0986,-3.0986,-3.0986,-3.0986,-3.0986,-3.0986,-3.0986,-3.0986,-3.0986,-3.0986,-3.1061,-3.1136,-3.0824,-3.0815,-3.1571,-3.1169,-3.0735,-3.0507,-3.0417,-3.015,-2.9645,-2.9602,-2.9602,-2.9602,-2.9602,-2.9602,-2.9602,-2.9602,-2.9602,-2.9602,-2.9602,-2.9602,-2.9602,-2.9602,-2.9602,-2.4157,-2.4112,-2.4119,-2.4107,-2.4572,-2.4997,-2.5001,0.0,0.0,0.0,-2.5677,-2.5779,-2.5499,0.0,0.0,0.0,0.0,0.0,0.0,0.0,0.0,0.0,0.0,0.0,0.0,0.0,0.0,0.0,-2.7464,-2.7708,-2.7708,-2.7383,-2.7231,-2.7231,-2.7231,-2.7231,-2.7231,-2.7231,-2.7231,-2.7231,-2.7495,-2.7621,-2.7621,-2.7885,-2.7989,-2.8012,-2.8253,-2.8218,-2.8012,-2.8253,-2.8207,-2.7989,-2.7989,-2.7839,-2.7621,-2.7621,-2.7461,-2.7231,-2.7231,-2.7231,-2.7231,-2.7231,-2.7615,-2.8315,-2.925,-2.9793,-3.0114,-3.0823,-3.0986,-3.0986,-3.0986,-3.0986,-3.0986,-3.0986,-3.0986,-3.0986,-3.0986,-3.0986,-3.0986,-3.0986,-3.0986,-3.0986,-3.0986,-3.0986,-3.0986,-3.0986,-3.0986,-3.0986,-3.0986,-3.0887,-3.107,-3.1636,-3.1305,-3.1117,-3.1165,-3.0912,-3.0546,-3.0122,-3.008,-2.994,-2.9617,-2.9602,-2.9602,-2.9602,-2.9602,-2.9602,-2.9602,-2.9602,-2.9602,-2.9602,-2.9602,-2.9602,-2.4197,-2.4112,-2.4125,-2.4124,-2.4612,-2.5159,-2.5041,-2.5406,0.0,0.0,-2.53,-2.537,-2.4945,0.0,0.0,0.0,0.0,0.0,0.0,0.0,0.0,0.0,0.0,0.0,0.0,0.0,0.0,0.0,-2.7334,-2.7392,-2.7392,-2.7495,-2.7541,-2.7541,-2.7541,-2.7541,-2.7541,-2.7541,-2.7541,-2.7552,-2.7943,-2.8138,-2.8149,-2.8528,-2.87,-2.8712,-2.8827,-2.8804,-2.8712,-2.8827,-2.8804,-2.87,-2.87,-2.8471,-2.8138,-2.8138,-2.7816,-2.7392,-2.7392,-2.7323,-2.7231,-2.7231,-2.7313,-2.7696,-2.9328,-2.9561,-2.9561,-3.0672,-3.0986,-3.0986,-3.0986,-3.0986,-3.0986,-3.0986,-3.0986,-3.0986,-3.0986,-3.0986,-3.0986,-3.0986,-3.0986,-3.0986,-3.0986,-3.0986,-3.0986,-3.0986,-3.0986,-3.0986,-3.0986,-3.0986,-3.1123,-3.1408,-3.1361,-3.1452,-3.1736,-3.1364,-3.0973,-3.0704,-3.06,-3.0305,-2.9827,-2.9673,-2.9602,-2.9602,-2.9602,-2.9602,-2.9602,-2.9602,-2.9602,-2.9602,-2.9602,-2.9602,-2.4315,-2.4112,-2.4125,-2.4124,-2.4895,-2.5587,-2.5128,0.0,0.0,-2.5134,-2.4671,-2.4334,-2.4261,-2.4334,0.0,0.0,0.0,-2.5511,0.0,0.0,0.0,0.0,0.0,0.0,0.0,0.0,0.0,0.0,-2.7656,-2.792,-2.792,-2.8333,-2.8563,-2.8563,-2.8563,-2.8563,-2.8563,-2.8563,-2.8563,-2.8563,-2.8609,-2.8632,-2.8632,-2.8677,-2.87,-2.8723,-2.9217,-2.9148,-2.8735,-2.9228,-2.9137,-2.87,-2.87,-2.8666,-2.8632,-2.8632,-2.8322,-2.792,-2.792,-2.761,-2.7231,-2.7231,-2.7626,-2.8247,-2.8937,-2.9561,-3.0037,-3.0823,-3.0986,-3.0986,-3.0986,-3.0986,-3.0986,-3.0986,-3.0986,-3.0986,-3.0986,-3.0986,-3.0986,-3.0986,-3.0986,-3.0986,-3.0986,-3.0986,-3.0986,-3.0986,-3.0986,-3.0986,-3.0986,-3.0986,-3.0986,-3.1061,-3.1368,-3.1613,-3.1778,-3.1751,-3.1611,-3.1443,-3.0853,-3.0502,-3.0445,-2.9897,-2.9602,-2.9602,-2.9602,-2.9602,-2.9602,-2.9602,-2.9602,-2.9602,-2.9602,-2.9602,-2.5013,-2.4628,-2.4179,-2.4536,-2.4978,-2.5157,-2.467,0.0,0.0,-2.4599,-2.4334,-2.42,-2.42,-2.42,-2.4261,-2.4467,0.0,0.0,0.0,0.0,0.0,0.0,0.0,0.0,0.0,0.0,0.0,-2.7656,-2.8138,-2.8551,-2.8884,-2.8769,-2.87,-2.87,-2.87,-2.87,-2.87,-2.87,-2.87,-2.87,-2.9022,-2.9183,-2.9194,-2.9481,-2.9607,-2.9619,-2.9837,-2.9814,-2.963,-2.9837,-2.9802,-2.9607,-2.9607,-2.9435,-2.9183,-2.9183,-2.8677,-2.7977,-2.7977,-2.7656,-2.7231,-2.7231,-2.7394,-2.7777,-2.8779,-2.9238,-2.9639,-3.0748,-3.0986,-3.0986,-3.0986,-3.0986,-3.0986,-3.0986,-3.0986,-3.0986,-3.0986,-3.0986,-3.0986,-3.0986,-3.0986,-3.0986,-3.0986,-3.0986,-3.0986,-3.0986,-3.0986,-3.0986,-3.0986,-3.0986,-3.0986,-3.0986,-3.1123,-3.1402,-3.1658,-3.1847,-3.1885,-3.1708,-3.166,-3.1485,-3.112,-3.0488,-3.015,-3.015,-2.9799,-2.9602,-2.9602,-2.9602,-2.9602,-2.9602,-2.9602,-2.9602,-2.5129,-2.468,-2.4218,-2.4657,-2.4859,-2.4869,0.0,0.0,-2.4874,-2.4334,-2.42,-2.42,-2.42,-2.42,-2.4246,-2.4384,0.0,-2.5663,0.0,0.0,0.0,0.0,0.0,0.0,0.0,0.0,0.0,-2.8161,-2.8654,-2.916,-2.9688,-2.9355,-2.9148,-2.9148,-2.9148,-2.9148,-2.9148,-2.9148,-2.9148,-2.916,-2.9527,-2.9711,-2.9722,-3.0055,-3.0216,-3.0216,-3.0216,-3.0216,-3.0216,-3.0216,-3.0216,-3.0216,-3.0216,-3.0009,-2.9711,-2.9711,-2.9171,-2.8402,-2.8253,-2.7874,-2.7426,-2.7277,-2.7231,-2.7383,-2.8462,-2.8937,-2.9406,-3.0659,-3.0986,-3.0986,-3.0986,-3.0986,-3.0986,-3.0986,-3.0986,-3.0986,-3.0986,-3.0986,-3.0986,-3.0986,-3.0986,-3.0986,-3.0986,-3.0986,-3.0986,-3.0986,-3.0986,-3.0986,-3.0986,-3.0986,-3.0986,-3.0986,-3.0986,-3.1123,-3.1556,-3.185,-3.1951,-3.1885,-3.2125,-3.2066,-3.1632,-3.1082,-3.0811,-3.0811,-3.0389,-3.0066,-2.9883,-2.9883,-2.9785,-2.9602,-2.9602,-2.9602,-2.4362,-2.4083,-2.4098,-2.4205,-2.4599,-2.4869,0.0,0.0,-2.4874,-2.4334,-2.42,-2.42,-2.42,-2.42,-2.4349,-2.4832,-2.4912,0.0,0.0,0.0,0.0,0.0,0.0,0.0,0.0,0.0,0.0,-2.8654,-2.9183,0.0,-3.0181,-3.0204,-3.0204,-3.0204,-3.0204,-3.0204,-3.0204,-3.0204,-3.0204,-3.0204,-3.0204,-3.0204,-3.0204,-3.0216,-3.0216,-3.0216,-3.0216,-3.0216,-3.0216,-3.0216,-3.0216,-3.0216,-3.0216,-3.0216,-3.0204,-3.0204,-2.9894,-2.9401,-2.8873,-2.8379,-2.7885,-2.7392,-2.7231,-2.7313,-2.8018,-2.8633,-2.9406,-3.0659,-3.0986,-3.0986,-3.0986,-3.0986,-3.0986,-3.0986,-3.0986,-3.0986,-3.0986,-3.0986,-3.0986,-3.0986,-3.0986,-3.0986,-3.0986,-3.0986,-3.0986,-3.0986,-3.0986,-3.0986,-3.0986,-3.0986,-3.0986,-3.0986,-3.0986,-3.1123,-3.1556,-3.1629,-3.1776,-3.2055,-3.1926,-3.1792,-3.1792,-3.1593,-3.1485,-3.1485,-3.1471,-3.1148,-3.0516,-3.0516,-3.0193,-2.9602,-2.9602,-2.9602,-2.5176,-2.4725,-2.4296,-2.4672,-2.4567,-2.4412,-2.4227,-2.4334,-2.4406,-2.4273,-2.42,-2.42,-2.42,-2.4464,-2.474,-2.4889,-2.5509,0.0,0.0,0.0,0.0,0.0,0.0,0.0,0.0,0.0,0.0,-2.8666,-2.9194,-2.9711,-3.0181,-3.0216,-3.0216,-3.0216,-3.0216,-3.0216,-3.0216,-3.0216,-3.0216,-3.0216,-3.0216,-3.0216,-3.0216,-3.0216,-3.0216,-3.0216,-3.0216,-3.0216,-3.0216,-3.0216,-3.0216,-3.0216,-3.0216,-3.0216,-3.0216,-3.0216,-2.9917,-2.9481,-2.9309,-2.8689,-2.7954,-2.7793,-2.7506,-2.7313,-2.8018,-2.8633,-2.9406,-3.0659,-3.0986,-3.0986,-3.0986,-3.0986,-3.0986,-3.0986,-3.0986,-3.0986,-3.0986,-3.0986,-3.0986,-3.0986,-3.0986,-3.0986,-3.0986,-3.0986,-3.0986,-3.0986,-3.0986,-3.0986,-3.0986,-3.0986,-3.0986,-3.0986,-3.0986,-3.1061,-3.1198,-3.1408,-3.1629,-3.1776,-3.1879,-3.2129,-3.2414,-3.1986,-3.1818,-3.2117,-3.171,-3.1387,-3.119,-3.119,-3.1092,-3.0895,-3.0895,-3.0895,0.0,-2.4754,-2.4261,-2.4599,-2.4467,0.0,0.0,-2.42,-2.42,-2.42,-2.42,-2.42,-2.42,-2.459,-2.4981,-2.5187,-2.5911,0.0,0.0,0.0,0.0,0.0,0.0,0.0,0.0,0.0,-2.8379,-2.8677,-2.9366,-2.9894,-3.0204,-3.0216,-3.0216,-3.0216,-3.0216,-3.0216,-3.0216,-3.0216,-3.0216,-3.0216,-3.0216,-3.0216,-3.0216,-3.0216,-3.0216,-3.0216,-3.0216,-3.0216,0.0,-3.0216,-3.0216,-3.0216,-3.0216,-3.0216,-3.0216,-3.0216,-3.0032,-2.9745,-2.9561,-2.8953,-2.8218,-2.8046,-2.7644,-2.7313,-2.8018,-2.8791,-2.9639,-3.0432,-3.0823,-3.0986,-3.0986,-3.0986,-3.0986,-3.0986,-3.0986,-3.0986,-3.0986,-3.0986,-3.0986,-3.0986,-3.0986,-3.0986,-3.0986,-3.0986,-3.0986,-3.0986,-3.0986,-3.0986,-3.0986,-3.0986,-3.0986,-3.0986,-3.0986,-3.0986,-3.0986,-3.1198,-3.1347,-3.1347,-3.1703,-3.1982,-3.2273,-3.2061,-3.2011,-3.2305,-3.1944,-3.1708,-3.1607,-3.1531,-3.1485,-3.1485,-3.1485,-3.1485,0.0,0.0,0.0,0.0,0.0,0.0,0.0,-2.42,0.0,-2.42,-2.42,-2.42,-2.42,-2.4613,-2.513,-2.5635,0.0,0.0,0.0,0.0,0.0,0.0,0.0,0.0,0.0,0.0,-2.87,-2.87,-2.9642,-3.0216,-3.0216,-3.0216,-3.0216,-3.0216,-3.0216,-3.0216,-3.0216,-3.0216,-3.0216,-3.0216,-3.0216,-3.0216,-3.0216,-3.0216,-3.0216,-3.0216,-3.0216,-3.0216,-3.0216,-3.0216,-3.0216,-3.0216,-3.0216,-3.0216,-3.0216,-3.0216,-3.0216,-3.0147,-2.9711,-2.9194,-2.8666,-2.8149,-2.7644,-2.7313,-2.7938,-2.8949,-2.996,-2.996,-3.0508,-3.0986,-3.0986,-3.0986,-3.0986,-3.0986,-3.0986,-3.0986,-3.0986,-3.0986,-3.0986,-3.0986,-3.0986,-3.0986,-3.0986,-3.0986,-3.0986,-3.0986,-3.0986,-3.0986,-3.0986,-3.0986,-3.0986,-3.0986,-3.0986,-3.0986,-3.0986,-3.0986,-3.0986,-3.0986,-3.1347,-3.1556,-3.1629,-3.1909,-3.2055,-3.2128,-3.2128,-3.2072,-3.1944,-3.1744,-3.1626,-3.1626,-3.1626,-3.1626,-2.42,0.0,-2.42,-2.42,-2.42,-2.42,0.0,0.0,0.0,0.0,0.0,0.0,0.0,0.0,0.0,0.0,0.0,0.0,0.0,0.0,0.0,0.0,0.0,0.0,0.0,0.0,-2.87,-2.87,-2.9642,-3.0216,-3.0216,-3.0216,-3.0216,-3.0216,-3.0216,-3.0216,-3.0216,-3.0216,-3.0216,-3.0216,-3.0216,-3.0216,-3.0216,-3.0216,-3.0216,-3.0216,-3.0216,-3.0216,-3.0216,-3.0216,-3.0216,-3.0216,-3.0216,-3.0216,-3.0216,-3.0216,-3.0216,-3.0204,-3.0089,-2.9722,-2.9171,-2.8276,-2.7644,-2.7231,-2.7383,-2.8315,-2.9406,-2.9883,-3.0508,-3.0986,-3.0986,-3.0986,-3.0986,-3.0986,-3.0986,-3.0986,-3.0986,-3.0986,-3.0986,-3.0986,-3.0986,-3.0986,-3.0986,-3.0986,-3.0986,-3.0986,-3.0986,-3.0986,-3.0986,-3.0986,-3.0986,-3.0986,-3.0986,-3.0986,-3.0986,-3.0986,-3.0986,-3.0986,-3.1061,-3.1272,-3.1556,-3.1703,-3.185,-3.2055,-3.2417,-3.272,-3.2961,-3.2891,-3.289,-3.289,-3.289,-3.289,-2.42,-2.42,-2.42,-2.42,-2.42,-2.42,0.0,0.0,0.0,0.0,0.0,0.0,0.0,0.0,0.0,0.0,0.0,0.0,0.0,0.0,0.0,0.0,0.0,0.0,0.0,-2.8115,-2.87,-2.87,-2.9642,-3.0216,-3.0216,-3.0216,-3.0216,-3.0216,-3.0216,-3.0216,-3.0216,-3.0216,-3.0216,-3.0216,-3.0216,-3.0216,-3.0216,-3.0216,-3.0216,-3.0216,-3.0216,-3.0216,-3.0216,-3.0216,-3.0216,-3.0216,-3.0216,-3.0216,-3.0216,-3.0216,-3.0216,-3.0216,-3.0216,-2.9894,-2.9332,-2.831,-2.7793,-2.7529,-2.73,-2.7926,-2.8779,-2.9406,-3.0037,-3.0583,-3.0898,-3.0986,-3.0986,-3.0986,-3.0986,-3.0986,-3.0986,-3.0986,-3.0986,-3.0986,-3.0986,-3.0986,-3.0986,-3.0986,-3.0986,-3.0986,-3.0986,-3.0986,-3.0986,-3.0986,-3.0986,-3.0986,-3.0986,-3.0986,-3.0986,-3.0986,-3.0986,-3.0986,-3.0986,-3.1136,-3.1347,-3.1347,-3.1482,-3.185,-3.2055,-3.2359,-3.2731,-3.2731,-3.2731,-3.2731,-3.2731,-3.2731,-2.42,-2.42,-2.42,-2.42,-2.42,-2.42,0.0,0.0,0.0,0.0,0.0,0.0,0.0,0.0,0.0,0.0,0.0,0.0,0.0,0.0,0.0,0.0,0.0,0.0,-2.7231,-2.8115,-2.87,-2.87,-2.9642,-3.0216,-3.0216,-3.0216,-3.0216,-3.0216,-3.0216,-3.0216,-3.0216,-3.0216,-3.0216,-3.0216,-3.0216,-3.0216,-3.0216,-3.0216,-3.0216,-3.0216,-3.0216,-3.0216,-3.0216,-3.0216,-3.0216,-3.0216,-3.0216,-3.0216,-3.0216,-3.0216,-3.0216,-3.0216,-3.0216,-2.9894,-2.9343,-2.8402,-2.8046,-2.7885,-2.738,-2.7626,-2.8167,-2.8779,-2.9484,-3.0114,-3.0672,-3.0898,-3.0986,-3.0986,-3.0986,-3.0986,-3.0986,-3.0986,-3.0986,-3.0986,-3.0986,-3.0986,-3.0986,-3.0986,-3.0986,-3.0986,-3.0986,-3.0986,-3.0986,-3.0986,-3.0986,-3.0986,-3.0986,-3.0986,-3.0986,-3.0986,-3.0986,-3.0986,-3.0986,-3.0986,-3.0986,-3.0986,-3.1198,-3.1556,-3.1629,-3.1776,-3.2128,-3.2128,-3.2128,-3.2128,-3.2128,-3.2128,-2.42,-2.42,-2.42,-2.42,-2.42,-2.42,0.0,0.0,0.0,0.0,0.0,0.0,0.0,0.0,0.0,0.0,0.0,0.0,0.0,0.0,0.0,0.0,0.0,0.0,-2.7231,-2.8115,-2.87,-2.87,-2.9642,-3.0216,-3.0216,-3.0216,-3.0216,-3.0216,-3.0216,-3.0216,-3.0216,-3.0216,-3.0216,-3.0216,-3.0216,-3.0216,-3.0216,-3.0216,-3.0216,-3.0216,-3.0216,-3.0216,-3.0216,-3.0216,-3.0216,-3.0216,-3.0216,-3.0216,-3.0216,-3.0216,-3.0216,-3.0216,-3.0216,-2.9894,-2.9401,-2.8792,-2.831,-2.7885,-2.738,-2.7313,-2.7464,-2.8167,-2.9106,-3.0037,-3.0114,-3.0583,-3.0986,-3.0986,-3.0986,-3.0986,-3.0986,-3.0986,-3.0986,-3.0986,-3.0986,-3.0986,-3.0986,-3.0986,-3.0986,-3.0986,-3.0986,-3.0986,-3.0986,-3.0986,-3.0986,-3.0986,-3.0986,-3.0986,-3.0986,-3.0986,-3.0986,-3.0986,-3.0986,-3.0986,-3.0986,-3.0986,-3.1198,-3.1556,-3.1629,-3.1776,-3.2128,-3.2128,-3.2128,-3.2128,-3.2128,-3.2128,-2.42,-2.42,-2.42,-2.42,-2.42,-2.42,-2.42,0.0,0.0,0.0,0.0,0.0,0.0,0.0,0.0,0.0,0.0,0.0,0.0,0.0,0.0,0.0,0.0,-2.7231,-2.7231,-2.7885,-2.8425,-2.8677,-2.9401,-2.994,-3.0204,-3.0216,-3.0216,-3.0216,-3.0216,-3.0216,-3.0216,-3.0216,-3.0216,-3.0216,-3.0216,-3.0216,-3.0216,-3.0216,-3.0216,-3.0216,-3.0216,-3.0216,-3.0216,-3.0216,-3.0216,-3.0216,-3.0216,-3.0216,-3.0216,-3.0216,-3.0216,-3.0216,-3.0216,-3.0078,-2.9757,-2.8964,-2.8551,-2.823,-2.7461,-2.7231,-2.7231,-2.7545,-2.8327,-2.9106,-2.9406,-2.996,-3.0432,-3.0432,-3.0748,-3.0986,-3.0986,-3.0986,-3.0986,-3.0986,-3.0986,-3.0986,-3.0986,-3.0986,-3.0986,-3.0986,-3.0986,-3.0986,-3.0986,-3.0986,-3.0986,-3.0986,-3.0986,-3.0986,-3.0986,-3.0986,-3.0986,-3.0986,-3.0986,-3.0986,-3.0986,-3.0986,-3.1198,-3.1556,-3.1421,-3.1482,-3.185,-3.1629,-3.1482,-3.1482,-3.1482,-3.1482,-2.374,-2.3886,-2.4116,-2.397,0.0,-2.42,-2.42,0.0,0.0,0.0,0.0,0.0,0.0,0.0,0.0,0.0,0.0,0.0,0.0,0.0,0.0,0.0,-2.7231,-2.7231,-2.7231,-2.769,-2.8184,-2.8666,-2.9194,-2.9711,-3.0181,-3.0216,-3.0216,-3.0216,-3.0216,-3.0216,-3.0216,-3.0216,-3.0216,-3.0216,-3.0216,-3.0216,-3.0216,-3.0216,-3.0216,-3.0216,-3.0216,-3.0216,-3.0216,-3.0216,-3.0216,-3.0216,-3.0216,-3.0216,-3.0216,-3.0216,-3.0216,-3.0216,-3.0216,-3.0216,-3.0067,-2.9171,-2.8804,-2.854,-2.7667,-2.7323,-2.7231,-2.7231,-2.7545,-2.8087,-2.87,-2.9328,-2.9793,-2.9793,-3.0279,-3.0748,-3.0748,-3.0911,-3.0986,-3.0986,-3.0986,-3.0986,-3.0986,-3.0986,-3.0986,-3.0986,-3.0986,-3.0986,-3.0986,-3.0986,-3.0986,-3.0986,-3.0986,-3.0986,-3.0986,-3.0986,-3.0986,-3.0986,-3.0986,-3.0986,-3.0986,-3.0986,-3.1123,-3.1408,-3.1123,-3.1123,-3.1482,-3.1123,-3.0986,-3.0986,-3.0986,-3.0986,-2.2371,-2.3054,-2.4043,-2.3298,0.0,0.0,-2.42,0.0,0.0,0.0,0.0,0.0,0.0,0.0,0.0,0.0,0.0,0.0,0.0,0.0,0.0,-2.7231,-2.7231,-2.7231,-2.7231,-2.769,-2.8184,-2.8666,-2.9194,-2.9711,-3.0181,-3.0216,-3.0216,-3.0216,-3.0216,-3.0216,-3.0216,-3.0216,-3.0216,-3.0216,-3.0216,-3.0216,-3.0216,-3.0216,-3.0216,-3.0216,-3.0216,-3.0216,-3.0216,-3.0216,-3.0216,-3.0216,-3.0216,-3.0216,-3.0216,-3.0216,-3.0216,-3.0216,-3.0216,-3.0216,-3.0135,-2.9607,-2.9102,-2.8609,-2.8092,-2.7598,-2.7231,-2.7231,-2.7231,-2.7464,-2.8099,-2.8712,-2.916,-2.916,-2.9639,-3.0037,-3.0037,-3.0583,-3.0986,-3.0986,-3.0986,-3.0986,-3.0986,-3.0986,-3.0986,-3.0986,-3.0986,-3.0986,-3.0986,-3.0986,-3.0986,-3.0986,-3.0986,-3.0986,-3.0986,-3.0986,-3.0986,-3.0986,-3.0986,-3.0986,-3.0986,-3.0986,-3.0986,-3.1061,-3.0986,-3.0986,-3.1061,-3.0986,-3.0986,-3.0986,-3.0986,-3.0986,-2.2606,-2.299,-2.3519,-2.3677,0.0,0.0,0.0,0.0,0.0,0.0,0.0,0.0,0.0,0.0,0.0,0.0,0.0,0.0,0.0,0.0,-2.7231,-2.7231,-2.7231,-2.7231,-2.7231,-2.7403,-2.7725,-2.8218,-2.8712,-2.9228,-2.9745,-3.0055,-3.0216,-3.0216,-3.0216,-3.0216,-3.0216,-3.0216,-3.0216,-3.0216,-3.0216,-3.0216,-3.0216,-3.0216,-3.0216,-3.0216,-3.0216,-3.0216,-3.0216,-3.0216,-3.0216,-3.0216,-3.0216,-3.0216,-3.0216,-3.0216,-3.0216,-3.0216,-3.0216,-3.0216,-3.0078,-2.9263,-2.8873,-2.8551,-2.7759,-2.738,-2.7231,-2.7231,-2.7231,-2.7231,-2.7545,-2.8315,-2.9081,-2.9081,-2.9561,-3.0037,-3.0037,-3.019,-3.0355,-3.0355,-3.0748,-3.0986,-3.0986,-3.0986,-3.0986,-3.0986,-3.0986,-3.0986,-3.0986,-3.0986,-3.0986,-3.0986,-3.0986,-3.0986,-3.0986,-3.0986,-3.0986,-3.0986,-3.0986,-3.0986,-3.0986,-3.0986,-3.0986,-3.0986,-3.0986,-3.0986,-3.0986,-3.0986,-3.0986,-3.0986,-3.0986,-3.0986,-2.2231,-2.2767,0.0,0.0,0.0,0.0,0.0,0.0,0.0,0.0,0.0,0.0,0.0,0.0,0.0,0.0,0.0,0.0,0.0,0.0,-2.7231,-2.7231,-2.7231,-2.7231,-2.7231,-2.7231,-2.7438,-2.7943,-2.8287,-2.87,-2.9217,-2.9561,-2.9814,-2.9986,-2.9986,-3.0067,-3.0216,-3.0216,-3.0216,-3.0216,-3.0216,-3.0216,-3.0216,-3.0216,-3.0216,-3.0216,-3.0216,-3.0216,-3.0216,-3.0216,-3.0216,-3.0216,-3.0216,-3.0216,-3.0216,-3.0216,-3.0216,-3.0216,-3.0216,-3.0216,-3.0078,-2.9228,-2.8838,-2.854,-2.7725,-2.7357,-2.7231,-2.7231,-2.7231,-2.7231,-2.7231,-2.7846,-2.8462,-2.8462,-2.8937,-2.9419,-2.9419,-2.9561,-2.9716,-2.9716,-3.0266,-3.0672,-3.0672,-3.0823,-3.0986,-3.0986,-3.0986,-3.0986,-3.0986,-3.0986,-3.0986,-3.0986,-3.0986,-3.0986,-3.0986,-3.0986,-3.0986,-3.0986,-3.0986,-3.0986,-3.0986,-3.0986,-3.0986,-3.0986,-3.0986,-3.0986,-3.0986,-3.0986,-3.0986,-3.0986,-3.0986,-3.0986,-2.0924,-2.2295,0.0,0.0,0.0,0.0,0.0,0.0,0.0,0.0,0.0,0.0,0.0,0.0,0.0,0.0,0.0,0.0,0.0,-2.7231,-2.7231,-2.7231,-2.7231,-2.7231,-2.7231,-2.7231,-2.7438,-2.7931,-2.7977,-2.8184,-2.8666,-2.87,-2.8941,-2.9481,-2.9493,-2.9722,-3.0204,-3.0204,-3.0216,-3.0216,-3.0216,-3.0216,-3.0216,-3.0216,-3.0216,-3.0216,-3.0216,-3.0216,-3.0216,-3.0216,-3.0216,-3.0216,-3.0216,-3.0216,-3.0216,-3.0216,-3.0216,-3.0216,-3.0216,-3.0216,-3.0135,-2.9653,-2.9125,-2.8609,-2.8115,-2.7621,-2.7231,-2.7231,-2.7231,-2.7231,-2.7231,-2.7231,-2.7231,-2.7231,-2.7708,-2.8179,-2.8179,-2.8712,-2.9081,-2.9081,-2.9561,-2.996,-2.996,-3.0508,-3.0986,-3.0986,-3.0986,-3.0986,-3.0986,-3.0986,-3.0986,-3.0986,-3.0986,-3.0986,-3.0986,-3.0986,-3.0986,-3.0986,-3.0986,-3.0986,-3.0986,-3.0986,-3.0986,-3.0986,-3.0986,-3.0986,-3.0986,-3.0986,-3.0986,-3.0986,-3.0986,-3.0986,-2.1221,0.0,0.0,0.0,0.0,0.0,0.0,0.0,0.0,0.0,0.0,0.0,0.0,0.0,0.0,-2.5566,-2.5842,-2.6244,-2.7105,-2.7231,-2.7231,-2.7231,-2.7231,-2.7231,-2.7231,-2.7231,-2.7288,-2.7438,-2.7782,-2.8046,-2.8184,-2.8517,-2.8769,-2.893,-2.8941,-2.9183,-2.9711,-2.9711,-2.9883,-3.0216,-3.0216,-3.0216,-3.0216,-3.0216,-3.0216,-3.0216,-3.0216,-3.0216,-3.0216,-3.0216,-3.0216,-3.0216,-3.0216,-3.0216,-3.0216,-3.0216,-3.0216,-3.0216,-3.0216,-2.9998,-2.963,-2.9102,-2.8597,-2.8103,-2.7598,-2.7346,-2.7231,-2.7231,-2.7231,-2.7231,-2.7231,-2.7231,-2.7301,-2.7777,-2.8018,-2.8179,-2.8179,-2.8327,-2.8474,-2.8474,-2.8937,-2.9406,-2.9406,-2.9883,-3.0279,-3.0279,-3.0672,-3.0986,-3.0986,-3.0986,-3.0986,-3.0986,-3.0986,-3.0986,-3.0986,-3.0986,-3.0986,-3.0986,-3.0986,-3.0986,-3.0986,-3.0986,-3.0986,-3.0986,-3.0986,-3.0986,-3.0986,-3.0986,-3.0986,-3.0986,-3.0986,-3.0986,-2.1918,0.0,0.0,0.0,0.0,0.0,0.0,0.0,0.0,0.0,0.0,0.0,0.0,0.0,0.0,-2.5578,-2.5876,-2.6301,-2.7116,-2.7231,-2.7231,-2.7231,-2.7231,-2.7231,-2.7231,-2.7231,-2.7231,-2.7231,-2.7506,-2.7679,-2.7679,-2.7954,-2.8207,-2.8402,-2.8413,-2.8654,-2.9183,-2.9183,-2.9332,-2.9619,-2.9619,-2.9619,-2.963,-3.0032,-3.0216,-3.0204,-3.0009,-2.9814,-2.9619,-2.9619,-2.9619,-2.9619,-2.9619,-2.9619,-2.9619,-2.9619,-2.9619,-2.9619,-2.9619,-2.9424,-2.9102,-2.8586,-2.8218,-2.7885,-2.738,-2.7231,-2.7231,-2.7231,-2.7231,-2.7231,-2.7231,-2.7231,-2.7313,-2.7696,-2.7777,-2.7777,-2.7777,-2.7777,-2.7777,-2.7777,-2.8315,-2.8858,-2.9081,-2.9406,-2.9793,-3.0355,-3.0748,-3.0986,-3.0986,-3.0986,-3.0986,-3.0986,-3.0986,-3.0986,-3.0986,-3.0986,-3.0986,-3.0986,-3.0986,-3.0986,-3.0986,-3.0986,-3.0986,-3.0986,-3.0986,-3.0986,-3.0986,-3.0986,-3.0869,-3.0647,-3.0647,-3.0529,0.0,0.0,0.0,0.0,0.0,0.0,0.0,0.0,0.0,0.0,0.0,0.0,0.0,0.0,0.0,-2.5624,-2.6129,-2.6645,-2.7162,-2.7231,-2.7231,-2.7231,-2.7231,-2.7231,-2.7231,-2.7231,-2.7231,-2.7231,-2.7231,-2.7231,-2.7231,-2.7231,-2.7438,-2.7897,-2.792,-2.8149,-2.8632,-2.8632,-2.8654,-2.87,-2.87,-2.87,-2.8723,-2.9665,-3.0078,-3.0055,-2.9607,-2.9148,-2.87,-2.87,-2.87,-2.87,-2.87,-2.87,-2.87,-2.87,-2.87,-2.87,-2.87,-2.8666,-2.8563,-2.8126,-2.7954,-2.7828,-2.7369,-2.7231,-2.7231,-2.7231,-2.7231,-2.7231,-2.7231,-2.7231,-2.7231,-2.7231,-2.7231,-2.7231,-2.7231,-2.7231,-2.7231,-2.7231,-2.7708,-2.8247,-2.8858,-2.9015,-2.9406,-3.0659,-3.0898,-3.0911,-3.0911,-3.0986,-3.0986,-3.0986,-3.0986,-3.0986,-3.0986,-3.0986,-3.0986,-3.0986,-3.0986,-3.096,-3.0908,-3.096,-3.0986,-3.0986,-3.0934,-3.0908,-3.0908,-3.0856,-3.0568,-3.0059,-3.0059,-2.9784,0.0,0.0,0.0,0.0,0.0,0.0,0.0,0.0,0.0,0.0,0.0,0.0,0.0,0.0,0.0,-2.5624,-2.6129,-2.6645,-2.7162,-2.7231,-2.7231,-2.7231,-2.7231,-2.7231,-2.7231,-2.7231,-2.7231,-2.7231,-2.7231,-2.7231,-2.7231,-2.7231,-2.7277,-2.7392,-2.7392,-2.7633,-2.8138,-2.8138,-2.8322,-2.87,-2.87,-2.87,-2.8712,-2.8919,-2.9022,-2.9022,-2.8919,-2.8804,-2.87,-2.87,-2.87,-2.87,-2.87,-2.87,-2.87,-2.87,-2.87,-2.87,-2.87,-2.8459,-2.8115,-2.8012,-2.7713,-2.7369,-2.7254,-2.7231,-2.7231,-2.7231,-2.7231,-2.7231,-2.7231,-2.7231,-2.7231,-2.7231,-2.7231,-2.7231,-2.7231,-2.7231,-2.7231,-2.7231,-2.7313,-2.7464,-2.7615,-2.8018,-2.8633,-2.9406,-2.9871,-3.0203,-3.0203,-3.0672,-3.0986,-3.0986,-3.0986,-3.0986,-3.0986,-3.0986,-3.0986,-3.0986,-3.0986,-3.079,-3.0333,-3.0751,-3.0986,-3.0986,-3.0542,-3.032,-3.032,-2.9862,-2.9588,-2.947,-2.947,-2.9392,0.0,0.0,0.0,0.0,0.0,0.0,0.0,0.0,0.0,0.0,0.0,0.0,0.0,0.0,0.0,-2.5624,-2.6129,-2.6645,-2.7162,-2.7231,-2.7231,-2.7231,-2.7231,-2.7231,-2.7231,-2.7231,-2.7231,-2.7231,-2.7231,-2.7231,-2.7231,-2.7231,-2.7231,-2.7231,-2.7231,-2.7357,-2.7621,-2.7621,-2.7748,-2.7989,-2.7989,-2.7989,-2.8012,-2.8482,-2.8574,-2.8356,-2.8356,-2.8218,-2.7989,-2.7989,-2.7989,-2.7989,-2.7989,-2.7989,-2.7989,-2.7989,-2.7989,-2.7989,-2.7989,-2.7828,-2.7621,-2.7621,-2.7438,-2.7231,-2.7231,-2.7231,-2.7231,-2.7231,-2.7231,-2.7231,-2.7231,-2.7231,-2.7231,-2.7231,-2.7231,-2.7231,-2.7231,-2.7231,-2.7231,-2.7231,-2.7231,-2.7313,-2.7626,-2.8247,-2.8633,-2.8633,-2.9172,-2.9561,-2.9561,-2.9871,-3.019,-3.0508,-3.0508,-3.0672,-3.0986,-3.0738,-3.0581,-3.0581,-3.032,-3.0032,-2.9732,-3.0006,-3.0176,-3.0176,-2.9876,-2.9732,-2.9732,-2.9431,-2.9131,-2.8843,-2.8843,-2.8699,0.0,0.0,0.0,0.0,0.0,0.0,0.0,0.0,0.0,0.0,0.0,0.0,0.0,0.0,0.0,-2.5624,-2.6129,-2.6645,-2.7162,-2.7231,-2.7231,-2.7231,-2.7231,-2.7231,-2.7231,-2.7231,-2.7231,-2.7231,-2.7231,-2.7231,-2.7231,-2.7231,-2.7231,-2.7231,-2.7231,-2.7231,-2.7231,-2.7231,-2.7231,-2.7231,-2.7231,-2.7231,-2.7254,-2.8069,-2.823,-2.7851,-2.7851,-2.761,-2.7231,-2.7231,-2.7231,-2.7231,-2.7231,-2.7231,-2.7231,-2.7231,-2.7231,-2.7231,-2.7231,-2.7231,-2.7231,-2.7231,-2.7231,-2.7231,-2.7231,-2.7231,-2.7231,-2.7231,-2.7231,-2.7231,-2.7231,-2.7231,-2.7231,-2.7231,-2.7231,-2.7231,-2.7231,-2.7231,-2.7231,-2.7231,-2.7231,-2.7394,-2.7938,-2.8474,-2.8621,-2.8087,-2.8554,-2.8937,-2.8937,-2.9015,-2.9291,-2.9668,-2.9821,-3.0012,-3.0537,-3.0181,-2.9993,-2.9993,-2.9549,-2.9235,-2.9131,-2.9118,-2.9078,-2.8974,-2.9065,-2.9118,-2.9118,-2.9026,-2.8726,-2.8229,-2.8229,-2.7981,0.0,0.0,0.0,0.0,0.0,0.0,0.0,0.0,0.0,0.0,0.0,0.0,0.0,0.0,0.0,-2.5624,-2.6129,-2.6645,-2.7162,-2.7231,-2.7231,-2.7231,-2.7231,-2.7231,-2.7231,-2.7231,-2.7231,-2.7231,-2.7231,-2.7231,-2.7231,-2.7231,-2.7231,-2.7231,-2.7231,-2.7231,-2.7231,-2.7231,-2.7231,-2.7231,-2.7231,-2.7231,-2.7231,-2.7369,-2.7392,-2.7334,-2.7334,-2.7288,-2.7231,-2.7231,-2.7231,-2.7231,-2.7231,-2.7231,-2.7231,-2.7231,-2.7231,-2.7231,-2.7231,-2.7231,-2.7231,-2.7231,-2.7231,-2.7231,-2.7231,-2.7231,-2.7231,-2.7231,-2.7231,-2.7231,-2.7231,-2.7231,-2.7231,-2.7231,-2.7231,-2.7231,-2.7231,-2.7231,-2.7231,-2.7231,-2.7231,-2.7231,-2.7313,-2.7383,-2.7464,-2.7383,-2.7938,-2.8327,-2.8327,-2.8779,-2.8975,-2.8595,-2.9001,-2.9124,-2.8788,-2.9132,-2.9392,-2.9392,-2.9327,-2.9052,-2.8516,-2.8503,-2.8268,-2.7771,-2.8242,-2.8503,-2.8503,-2.8007,-2.7719,-2.7641,-2.7641,-2.7602,0.0,0.0,0.0,0.0,0.0,0.0,0.0,0.0,0.0,0.0,0.0,0.0,0.0,0.0,0.0,-2.5578,-2.5899,-2.6324,-2.7116,-2.7231,-2.7231,-2.7231,-2.7231,-2.7231,-2.7231,-2.7231,-2.7231,-2.7231,-2.7231,-2.7231,-2.7231,-2.6962,-2.6962,-2.7231,-2.6962,-2.6962,-2.7231,-2.7231,-2.7231,-2.7231,-2.7231,-2.7231,-2.7231,-2.7231,-2.7231,-2.7231,-2.7231,-2.7231,-2.7231,-2.7231,-2.7231,-2.7231,-2.7231,-2.7231,-2.7231,-2.7231,-2.7231,-2.7231,-2.7231,-2.7231,-2.7231,-2.7231,-2.7231,-2.7231,-2.7231,-2.7231,-2.7231,-2.7231,-2.7231,-2.7231,-2.7231,-2.7231,-2.7231,-2.7231,-2.7231,-2.7231,-2.7231,-2.7231,-2.7231,-2.7231,-2.7231,-2.7231,-2.7231,-2.7231,-2.7231,-2.7231,-2.7221,-2.7263,-2.7263,-2.7242,-2.7257,-2.7324,-2.759,-2.7879,-2.8255,-2.8252,-2.8299,-2.8638,-2.8213,-2.7915,-2.778,-2.7644,-2.7459,-2.7214,-2.765,-2.7902,-2.7902,-2.7654,-2.7523,-2.7523,-2.7523,-2.7523,0.0,0.0,0.0,0.0,0.0,0.0,0.0,0.0,0.0,0.0,0.0,0.0,0.0,0.0,0.0,-2.5543,-2.5716,-2.6071,-2.7082,-2.7231,-2.7231,-2.7231,-2.7231,-2.7231,-2.7231,-2.7231,-2.7231,-2.7231,-2.7231,-2.7231,-2.7231,-2.6787,-2.6704,-2.7149,-2.6704,-2.6704,-2.7231,-2.7231,-2.7231,-2.7231,-2.7231,-2.7231,-2.7231,-2.7231,-2.7231,-2.7231,-2.7231,-2.7231,-2.7231,-2.7231,-2.7231,-2.7231,-2.7231,-2.7231,-2.7231,-2.7231,-2.7231,-2.7231,-2.7231,-2.7231,-2.7231,-2.7231,-2.7231,-2.7231,-2.7231,-2.7231,-2.7231,-2.7231,-2.7231,-2.7231,-2.7231,-2.7231,-2.7231,-2.7231,-2.7231,-2.7231,-2.7231,-2.7231,-2.7231,-2.7231,-2.7231,-2.7185,-2.7059,-2.7036,-2.699,-2.6864,-2.6519,-2.6278,-2.6278,-2.5945,-2.58,-2.6019,-2.6146,-2.6462,-2.6993,-2.6996,-2.7112,-2.7462,-2.7161,-2.7079,-2.7214,-2.7079,-2.7024,-2.7024,-2.7268,-2.7403,-2.7403,-2.7403,-2.7403,-2.7403,-2.7403,-2.7403,0.0,0.0,0.0,0.0,0.0,0.0,0.0,0.0,0.0,0.0,0.0,0.0,0.0,0.0,0.0,0.0,-2.5716,-2.6071,-2.7082,-2.7231,-2.7231,-2.7231,-2.7231,-2.7231,-2.7231,-2.7231,-2.7231,-2.7231,-2.7231,-2.7231,-2.7231,-2.6787,-2.6704,-2.7149,-2.6704,-2.6704,-2.7231,-2.7231,-2.7231,-2.7231,-2.7231,-2.7231,-2.7231,-2.7231,-2.7231,-2.7231,-2.7231,-2.7231,-2.7231,-2.7231,-2.7231,-2.7231,-2.7231,-2.7231,-2.7231,-2.7231,-2.7231,-2.7231,-2.7231,-2.7231,-2.7231,-2.7231,-2.7231,-2.7231,-2.7231,-2.7231,-2.7231,-2.7231,-2.7231,-2.7231,-2.7231,-2.7231,-2.7231,-2.7231,-2.7231,-2.7231,-2.7231,-2.7231,-2.7231,-2.7231,-2.7231,-2.7082,-2.6588,-2.6508,-2.6335,-2.5865,-2.5773,-2.575,-2.575,-2.5727,-2.5367,-2.4574,-2.4958,-2.4974,-2.4077,-2.517,-2.5861,-2.5931,-2.6589,-2.7024,-2.7024,-2.7024,-2.7024,-2.7024,-2.7024,-2.7024,-2.7024,-2.7024,-2.7024,-2.7024,-2.7024,-2.7024,0.0,0.0,0.0,0.0,0.0,0.0,0.0,0.0,0.0,0.0,0.0,0.0,0.0,0.0,0.0,0.0,-2.5716,-2.6071,-2.7082,-2.6962,-2.6787,-2.6787,-2.655,-2.6407,-2.6407,-2.6407,-2.6407,-2.6407,-2.6633,-2.6787,-2.6787,-2.661,-2.661,-2.6787,-2.5913,-2.5484,-2.5663,-2.6351,-2.6787,-2.6787,-2.7056,-2.7231,-2.7231,-2.7231,-2.7231,-2.7231,-2.7231,-2.7231,-2.7231,-2.7231,-2.7231,-2.7231,-2.7231,-2.7231,-2.7231,-2.7231,-2.7231,-2.7231,-2.7231,-2.7231,-2.7231,-2.7231,-2.7231,-2.7231,-2.7231,-2.7231,-2.7231,-2.7231,-2.7231,-2.7231,-2.7231,-2.7231,-2.7231,-2.7231,-2.7231,-2.7231,-2.7231,-2.7231,-2.7128,-2.6806,-2.6737,-2.6577,-2.6071,-2.598,-2.5922,-2.5739,-2.5199,-2.483,-2.483,-2.4321,-2.3827,-2.35,-2.3702,-2.3772,-2.3655,-2.4143,-2.4492,-2.4909,-2.5569,-2.5943,-2.607,-2.644,-2.6452,-2.5955,-2.6452,-2.6807,-2.7024,-2.7024,-2.7024,-2.7024,-2.7024,-2.7024,0.0,0.0,0.0,0.0,0.0,0.0,0.0,0.0,0.0,0.0,0.0,0.0,0.0,0.0,0.0,0.0,0.0,-2.6071,-2.7082,-2.6962,-2.6704,-2.6528,-2.629,-2.5968,-2.5527,-2.5527,-2.5527,-2.5527,-2.5757,0.0,-2.6445,-2.6373,-2.629,-2.629,-2.5589,-2.5158,-2.5158,-2.6008,-2.6528,-2.6528,-2.6974,-2.7231,-2.7231,-2.7231,-2.7231,-2.7231,-2.7231,-2.7231,-2.7231,-2.7231,-2.7231,-2.7231,-2.7231,-2.7231,-2.7231,-2.7231,-2.7231,-2.7231,-2.7231,-2.7231,-2.7231,-2.7231,-2.7231,-2.7231,-2.7231,-2.7231,-2.7231,-2.7231,-2.7231,-2.7231,-2.7231,-2.7231,-2.7231,-2.7231,-2.7231,-2.7185,-2.7013,-2.6978,-2.6875,-2.6531,-2.6245,-2.5892,-2.5378,-2.5145,-2.5,-2.4842,-2.4299,-2.3935,-2.3935,-2.3422,-2.2927,-2.2777,-2.2777,-2.2852,-2.3001,-2.3508,-2.379,-2.3925,-2.5087,-2.5511,-2.5122,-2.5721,-2.5734,-2.4933,-2.5429,-2.5791,-2.6,-2.6589,-2.6807,-2.6807,-2.6807,-2.6807,0.0,0.0,0.0,0.0,0.0,0.0,0.0,0.0,0.0,0.0,0.0,0.0,0.0,0.0,0.0,0.0,0.0,-2.5993,-2.7082,-2.7149,-2.6962,-2.6528,-2.6445,-2.6008,-2.4882,-2.4787,-2.4787,-2.4787,-2.4787,-2.5305,-2.6351,-2.6052,-2.5812,-2.5812,-2.5812,-2.5812,-2.5812,-2.629,-2.6445,-2.6528,-2.6962,-2.7231,-2.7231,-2.7231,-2.7231,-2.7231,-2.7231,-2.7231,-2.7231,-2.7231,-2.7231,-2.7231,-2.7231,-2.7231,-2.7231,-2.7231,-2.7231,-2.7231,-2.7231,-2.7231,-2.7231,-2.7231,-2.7231,-2.7231,-2.7231,-2.7231,-2.7231,-2.7231,-2.7231,-2.7231,-2.7231,-2.7231,-2.7231,-2.7231,-2.7219,-2.707,-2.6565,-2.6439,-2.6416,-2.6416,-2.5701,-2.4903,-2.4475,-2.3995,-2.3612,-2.3067,-2.3001,-2.3001,-2.3001,-2.3001,-2.2852,-2.2402,-2.2402,-2.2252,-2.1807,-2.318,-2.3694,-2.3001,-2.5087,-2.5721,-2.412,-2.4862,-2.4862,-2.4047,-2.412,-2.412,-2.4036,-2.5652,-2.6452,-2.6452,-2.6452,-2.6452,-1.9301,0.0,0.0,0.0,0.0,0.0,0.0,0.0,0.0,0.0,0.0,0.0,0.0,0.0,0.0,0.0,0.0,-2.5396,-2.7,-2.6385,-2.5706,-2.5611,-2.4669,-2.4145,-2.4573,-2.4573,-2.4478,0.0,-2.4628,-2.4617,-2.4039,-2.4049,-2.4049,-2.3877,-2.4166,-2.4272,-2.4186,-2.5464,-2.6052,-2.6063,-2.6809,-2.7231,-2.7231,-2.7231,-2.7231,-2.7231,-2.7231,-2.7231,-2.7231,-2.7231,-2.7231,-2.7231,-2.7231,-2.7231,-2.7231,-2.7231,-2.7231,-2.7231,-2.7231,-2.7231,-2.7231,-2.7231,-2.7231,-2.7231,-2.7231,-2.7231,-2.7231,-2.7231,-2.7231,-2.7231,-2.7231,-2.7231,-2.7231,-2.7231,-2.6944,-2.6634,-2.6496,-2.5721,-2.4977,-2.4977,-2.4788,-2.4301,-2.3511,-2.3273,-2.3154,-2.3023,-2.2777,-2.2553,-2.2553,-2.2327,-2.2111,-2.1959,-2.1959,-2.1959,-2.1807,-2.2166,-2.2317,-2.2101,-2.3276,-2.379,-2.335,-2.4059,-2.4059,-2.335,-2.3841,-2.3829,-2.3276,-2.4276,-2.4767,-2.4767,-2.4767,-2.5075,0.0,0.0,0.0,0.0,0.0,0.0,-2.0382,-2.0615,-2.0837,0.0,0.0,0.0,0.0,0.0,0.0,0.0,0.0,-2.4175,-2.63,-2.5935,-2.5348,-2.5189,-2.4166,-2.3377,-2.3474,-2.3474,-2.3377,-2.3096,-2.3337,-2.3424,-2.3096,-2.3444,-2.3521,-2.327,-2.3202,-2.3222,-2.3242,-2.4519,-2.5189,-2.5189,-2.6373,-2.688,-2.688,-2.7138,-2.7231,-2.7231,-2.7231,-2.7231,-2.7208,-2.7001,-2.7036,-2.7231,-2.7231,-2.7231,-2.7231,-2.7231,-2.7231,-2.7231,-2.7231,-2.7231,-2.7231,-2.7231,-2.7231,-2.7149,-2.6962,-2.688,-2.688,-2.688,-2.7056,-2.7231,-2.7231,-2.7231,-2.7174,-2.6955,-2.668,-2.6347,-2.5755,-2.4977,-2.4408,-2.4408,-2.3938,-2.3404,-2.2821,-2.2628,-2.2478,-2.2478,-2.2327,-2.2176,-2.2176,-2.1959,-2.1807,-2.1807,-2.1807,-2.1807,-2.1807,-2.2101,-2.2176,-2.1807,-2.283,-2.3202,-2.2553,-2.3191,-2.3265,-2.2478,-2.2894,-2.2894,-2.2478,-2.3548,-2.4108,-2.4108,-2.4108,-2.4337,0.0,0.0,0.0,0.0,0.0,0.0,-2.0226,-1.9844,-1.9529,-2.0226,0.0,0.0,0.0,0.0,0.0,0.0,0.0,0.0,-2.5279,-2.5535,-2.5411,-2.502,-2.4145,-2.3202,-2.2264,-2.2176,-2.2078,-2.1872,-2.1695,-2.1961,-2.2746,-2.3347,-2.3531,-2.3173,-2.2658,-2.2501,-2.2794,-2.3541,-2.3963,-2.4049,-2.5505,-2.6268,-2.6434,-2.6869,-2.7056,-2.7231,-2.7231,-2.7196,-2.7116,-2.6657,-2.6737,-2.7139,-2.7082,-2.7093,-2.7151,-2.7151,-2.7092,-2.7138,-2.7138,-2.7056,-2.7067,-2.7067,-2.7067,-2.6974,-2.6539,-2.6445,-2.6528,-2.6528,-2.688,-2.7149,-2.7149,-2.7138,-2.7012,-2.6508,-2.6336,-2.587,-2.461,-2.4287,-2.4178,-2.4178,-2.3221,-2.2402,-2.2327,-2.2025,-2.1807,-2.1807,-2.1807,-2.1807,-2.1807,-2.1807,-2.1807,-2.1807,-2.1807,-2.1807,-2.1807,-2.2478,-2.2553,-2.1883,-2.3106,-2.3254,-2.1883,-2.2478,-2.2553,-2.1807,-2.1807,-2.1807,-2.1807,-2.318,-2.3829,-2.3829,-2.3829,-2.3902,0.0,0.0,0.0,0.0,0.0,0.0,-1.9529,-1.9371,-1.9381,0.0,0.0,0.0,0.0,0.0,0.0,0.0,0.0,0.0,-2.4013,-2.389,-2.3607,-2.3531,-2.2677,-2.2334,-2.2843,-2.2931,-2.2755,-2.2561,-2.1526,-2.0916,-2.0817,-2.1177,-2.1526,-2.1793,-2.1784,-2.205,-2.2492,-2.3008,-2.327,-2.327,-2.4135,-2.4978,-2.5663,-2.5924,-2.6528,-2.7231,-2.7231,-2.699,-2.66,-2.6508,-2.6519,-2.6577,-2.6163,-2.6255,-2.6611,-2.6611,-2.6621,-2.6622,-2.6622,-2.6385,-2.6146,-2.6146,-2.6146,-2.6146,-2.6063,-2.6207,-2.661,-2.6974,-2.7138,-2.7138,-2.6704,-2.6622,-2.6416,-2.561,-2.5098,-2.4646,-2.4073,-2.334,-2.2767,-2.2767,-2.2617,-2.2327,-2.1949,-2.1883,-2.1807,-2.1807,-2.1807,-2.1807,-2.1807,-2.1807,-2.1807,-2.1807,-2.1807,-2.1807,-2.1807,-2.1949,-2.1959,-2.1807,-2.209,-2.209,-2.1807,-2.1959,-2.1949,-2.1807,-2.1807,-2.1807,-2.1807,-2.2101,-2.2241,-2.2241,-2.2241,-2.2617,0.0,0.0,0.0,-1.9301,0.0,0.0,0.0,-1.9301,-1.9301,-1.9301,0.0,0.0,0.0,0.0,0.0,0.0,0.0,0.0,0.0,-2.2553,-2.2911,-2.3096,-2.2157,-2.1731,-2.2325,-2.2334,-2.2069,-2.1695,-2.1266,-2.0826,-2.0292,-2.0736,-2.1096,-2.1096,-2.0997,-2.1168,-2.1526,-2.205,-2.2227,-2.2227,-2.3183,-2.3867,-2.4296,-2.4967,-2.5449,-2.5667,-2.6262,-2.6234,-2.5825,-2.5718,-2.5615,-2.5472,-2.5638,-2.5709,-2.5769,-2.5769,-2.5678,-2.5477,-2.5477,-2.5407,-2.5175,-2.5175,-2.5175,-2.5175,-2.5164,-2.5385,-2.5788,-2.6052,-2.6143,-2.6119,-2.6113,-2.6006,-2.5705,-2.53,-2.4781,-2.4211,-2.3589,-2.2885,-2.2327,-2.2101,-2.2101,-2.2025,-2.1807,-2.1807,-2.1807,-2.1807,-2.1807,-2.1807,-2.1807,-2.1807,-2.1807,-2.1807,-2.1807,-2.1807,-2.1807,-2.1807,-2.1807,-2.1807,-2.1807,-2.1807,-2.1807,-2.1807,-2.1807,-2.1807,-2.1807,-2.1807,-2.1807,-2.1807,-2.1807,-2.1807,-2.1807,-2.2035,0.0,0.0,0.0,0.0,0.0,-1.9301,0.0,0.0,0.0,0.0,0.0,0.0,0.0,0.0,0.0,0.0,0.0,0.0,0.0,-2.148,0.0,-2.2658,-2.1989,-2.1472,-2.1553,-2.1383,-2.1114,-2.0744,-2.1096,-2.1006,-2.0292,-2.0826,-2.0997,-2.0654,-2.0382,-2.0382,-2.0654,-2.1096,-2.1266,-2.1177,-2.2217,-2.2698,-2.2795,-2.3801,-2.4074,-2.3825,-2.4746,-2.4897,-2.4492,-2.4467,-2.4254,-2.4069,-2.4941,-2.509,-2.4859,-2.4859,-2.467,-2.4364,-2.4364,-2.4284,-2.4284,-2.4284,-2.4284,-2.4364,-2.4421,-2.4646,-2.4893,-2.4893,-2.4904,-2.5015,-2.5325,-2.526,-2.4979,-2.4789,-2.4465,-2.3985,-2.3133,-2.259,-2.2176,-2.1883,-2.1807,-2.1807,-2.1807,-2.1807,-2.1807,-2.1807,-2.1807,-2.1807,-2.1807,-2.1807,-2.1807,-2.1807,-2.1807,-2.1807,-2.1807,-2.1807,-2.1807,-2.1807,-2.1807,-2.1807,-2.1807,-2.1807,-2.1807,-2.1807,-2.1807,-2.1807,-2.1807,-2.1807,-2.1807,-2.1807,-2.1807,-2.1807,0.0,0.0,0.0,0.0,-1.9301,0.0,0.0,0.0,-1.9301,-1.9301,0.0,0.0,0.0,0.0,0.0,0.0,0.0,0.0,-1.9983,-2.0536,-2.0997,-2.1168,-2.1454,-2.1553,-2.1087,-2.1087,-2.0916,-2.0744,-2.0744,-2.0654,-2.0292,-2.0382,-2.0382,-2.0382,-2.0292,-2.0292,-2.0382,-2.0654,-2.0645,-2.0473,-2.0997,-2.1414,-2.1654,-2.1988,-2.234,-2.2747,-2.291,-2.2664,-2.2333,-2.285,-2.2741,-2.2445,-2.3431,-2.388,-2.3952,-2.3952,-2.3905,-2.3855,-2.3855,-2.3646,-2.3346,-2.3346,-2.3587,-2.3977,-2.4263,-2.441,-2.4489,-2.4511,-2.4601,-2.4454,-2.4089,-2.433,-2.4392,-2.3594,-2.3387,-2.3221,-2.2673,-2.2216,-2.1873,-2.1807,-2.1807,-2.1807,-2.1807,-2.1807,-2.1807,-2.1807,-2.1807,-2.1807,-2.1807,-2.1807,-2.1807,-2.1807,-2.1807,-2.1807,-2.1807,-2.1807,-2.1807,-2.1807,-2.1807,-2.1807,-2.1807,-2.1807,-2.1807,-2.1807,-2.1807,-2.1807,-2.1807,-2.1807,-2.1807,-2.1807,-2.1807,-2.1807,0.0,0.0,0.0,0.0,0.0,0.0,-1.9301,0.0,-1.9301,0.0,0.0,0.0,0.0,0.0,0.0,0.0,-1.8945,0.0,0.0,0.0,-2.0413,0.0,0.0,0.0,-2.0826,-2.0826,-2.0736,-2.0473,-2.0473,-2.0382,-2.0292,-2.0292,-2.0292,-2.0292,-2.0292,-2.0292,-2.0292,-2.0167,-2.0064,-1.9966,-2.0088,-2.0148,-2.0161,-2.075,-2.0931,-2.0847,-2.1487,-2.1481,-2.1163,-2.1629,-2.1594,-2.1201,-2.1659,-2.2098,-2.2439,-2.2439,-2.2335,-2.2111,-2.2111,-2.221,-2.2387,-2.2387,-2.2688,-2.2998,-2.3219,-2.3438,-2.3591,-2.3602,-2.3449,-2.3283,-2.3396,-2.3583,-2.3719,-2.3649,-2.3381,-2.3143,-2.2946,-2.2325,-2.1807,-2.1807,-2.1807,-2.1807,-2.1807,-2.1807,-2.1807,-2.1807,-2.1807,-2.1807,-2.1807,-2.1807,-2.1807,-2.1807,-2.1807,-2.1807,-2.1807,-2.1807,-2.1807,-2.1807,-2.1807,-2.1807,-2.1807,-2.1807,-2.1807,-2.1807,-2.1807,-2.1807,-2.1807,-2.1807,-2.1807,-2.1807,-2.1807,-2.1807,-1.9301,0.0,0.0,0.0,0.0,0.0,0.0,0.0,0.0,0.0,0.0,0.0,0.0,0.0,0.0,-1.8597,0.0,-1.8607,0.0,0.0,0.0,0.0,0.0,0.0,0.0,-2.0654,-2.0473,-2.0292,-2.0292,-2.0249,-2.0146,-2.0146,-2.0095,-1.9992,-1.9984,-1.9984,-1.9984,-1.9806,-1.9581,-1.9581,-1.9548,-1.9358,-1.9101,-1.9685,-1.9621,-1.9154,-1.9947,-2.0089,-1.9885,-2.0343,-2.0353,-2.0129,-2.0275,-2.0518,-2.0847,-2.1001,-2.0847,-2.0624,-2.0867,-2.1339,-2.1807,-2.1949,-2.2176,-2.2402,-2.2402,-2.2628,-2.2777,-2.2703,-2.2478,-2.2326,-2.2674,-2.2882,-2.3111,-2.3577,-2.3339,-2.3029,-2.3163,-2.2459,-2.1807,-2.1807,-2.1807,-2.1807,-2.1807,-2.1807,-2.1807,-2.1807,-2.1807,-2.1807,-2.1807,-2.1807,-2.1807,-2.1807,-2.1807,-2.1807,-2.1807,-2.1807,-2.1807,-2.1807,-2.1807,-2.1807,-2.1807,-2.1807,-2.1807,-2.1807,-2.1807,-2.1807,-2.1807,-2.1807,-2.1807,-2.1807,-2.1807,-2.1807,0.0,0.0,0.0,-1.9301,0.0,0.0,0.0,0.0,-1.9301,0.0,0.0,0.0,0.0,-1.8851,-1.8497,-1.7891,-1.827,0.0,0.0,0.0,0.0,0.0,0.0,0.0,0.0,-2.0473,-2.0292,-2.0292,-2.0292,-2.0138,-1.9778,-1.9761,-1.959,-1.9222,-1.9213,-1.9213,-1.9213,-1.9444,-1.9436,-1.9196,-1.9427,-1.921,-1.8605,-1.8688,-1.84,-1.8057,-1.8057,-1.8121,-1.8112,-1.8754,-1.9073,-1.9073,-1.9678,-1.9608,-1.9152,-1.9756,-1.9982,-1.9982,-2.0702,-2.1339,-2.1883,-2.2252,-2.2402,-2.2402,-2.2402,-2.2402,-2.2327,-2.1959,-2.1807,-2.1807,-2.1828,-2.217,-2.2635,-2.3101,-2.2853,-2.2646,-2.3091,-2.2459,-2.1807,-2.1807,-2.1807,-2.1807,-2.1807,-2.1807,-2.1807,-2.1807,-2.1807,-2.1807,-2.1807,-2.1807,-2.1807,-2.1807,-2.1807,-2.1807,-2.1807,-2.1807,-2.1807,-2.1807,-2.1807,-2.1807,-2.1807,-2.1807,-2.1807,-2.1807,-2.1807,-2.1807,-2.1807,-2.1807,-2.1807,-2.1807,-2.1807,-2.1807,-1.9301,-1.9301,-1.9301,-1.9301,-1.9301,-1.9301,0.0,0.0,0.0,0.0,0.0,0.0,0.0,-1.878,-1.8496,-1.8037,-1.8057,-1.8263,0.0,0.0,0.0,0.0,0.0,0.0,0.0,0.0,-1.9555,-1.9555,-1.9555,-1.9495,-1.9376,-1.9367,-1.9307,-1.9179,-1.917,-1.917,-1.917,-1.8998,-1.886,-1.8785,-1.8785,-1.8594,-1.822,-1.8383,-1.8313,-1.804,-1.804,-1.804,-1.804,-1.8282,-1.8362,-1.8362,-1.8585,-1.8505,-1.8442,-1.9063,-1.9301,-1.946,-2.0557,-2.1339,-2.1807,-2.1949,-2.2025,-2.2025,-2.2025,-2.2025,-2.1949,-2.1807,-2.1807,-2.1807,-2.1807,-2.2149,-2.2615,-2.308,-2.2832,-2.2625,-2.3091,-2.2459,-2.1807,-2.1807,-2.1807,-2.1807,-2.1807,-2.1807,-2.1807,-2.1807,-2.1807,-2.1807,-2.1807,-2.1807,-2.1807,-2.1807,-2.1807,-2.1807,-2.1807,-2.1807,-2.1807,-2.1807,-2.1807,-2.1807,-2.1807,-2.1807,-2.1807,-2.1807,-2.1807,-2.1807,-2.1807,-2.1807,-2.1807,-2.1807,-2.1807,-2.1807,-1.9301,-1.9301,-1.9301,-1.9301,-1.9231,-1.9222,-1.9301,-1.9222,-1.9222,0.0,0.0,0.0,0.0,-1.862,-1.854,-1.804,-1.804,-1.8126,0.0,-1.8614,0.0,0.0,0.0,0.0,0.0,0.0,-1.917,-1.917,-1.917,-1.9119,-1.8973,-1.8965,-1.8905,-1.8776,-1.8768,-1.8768,-1.8768,-1.8519,-1.8391,-1.8391,-1.8313,-1.8201,-1.804,-1.8201,-1.8201,-1.804,-1.804,-1.804,-1.804,-1.804,-1.804,-1.804,-1.804,-1.804,-1.8031,-1.8523,-1.8843,-1.9161,-1.9932,-2.0789,-2.1492,-2.1492,-2.1655,-2.1807,-2.1807,-2.1807,-2.1807,-2.1807,-2.1807,-2.1807,-2.1807,-2.2025,-2.2408,-2.3039,-2.2832,-2.2625,-2.3091,-2.2594,-2.2004,-2.1838,-2.1807,-2.1807,-2.1807,-2.1807,-2.1807,-2.1807,-2.1807,-2.1807,-2.1807,-2.1807,-2.1807,-2.1807,-2.1807,-2.1807,-2.1807,-2.1807,-2.1807,-2.1807,-2.1807,-2.1807,-2.1807,-2.1807,-2.1807,-2.1807,-2.1807,-2.1807,-2.1807,-2.1807,-2.1807,-2.1807,-2.1807,-2.1807]}]]